     2              OBSERVATION DATA    GPS                 RINEX VERSION / TYPE
ASRINEXO V2.9.7 UX USGS/MENLO_PARK 26-APR-01 16:31          PGM / RUN BY / DATE
                                                            COMMENT
BIT 2 OF LLI (+4) FLAGS DATA COLLECTED UNDER "AS" CONDITION COMMENT
BIT 2 OF LLI (+4) FLAGS DATA COLLECTED UNDER "AS" CONDITION COMMENT
BIT 2 OF LLI (+4) FLAGS DATA COLLECTED UNDER "AS" CONDITION COMMENT
BIT 2 OF LLI (+4) FLAGS DATA COLLECTED UNDER "AS" CONDITION COMMENT
BIT 2 OF LLI (+4) FLAGS DATA COLLECTED UNDER "AS" CONDITION COMMENT
BIT 2 OF LLI (+4) FLAGS DATA COLLECTED UNDER "AS" CONDITION COMMENT
BIT 2 OF LLI (+4) FLAGS DATA COLLECTED UNDER "AS" CONDITION COMMENT
BIT 2 OF LLI (+4) FLAGS DATA COLLECTED UNDER "AS" CONDITION COMMENT
Original Marker Name: pico Pico_NCER_1977_USGS              COMMENT
Campaign Name: USGS Profiles                                COMMENT
4-Character Station Name: PICO                              COMMENT
6-Character Antenna Code: DMRCHT                            COMMENT
Vertical Measurement Point: BCR                             COMMENT
Vertical Offset to Rinex Ref. Point: 0.0348                 COMMENT
Radial Measurement Point: ECF                               COMMENT
Radial Offset to Rinex Ref. Point: 0.1897                   COMMENT
Antenna Height from Field Measurement: 1.6270 m             COMMENT
Additional Antenna Identification Info.:                    COMMENT
Turborogue and Ashtech Choke Ring                           COMMENT
Original XYZ: -2524527.6370 -4630078.2427 3577434.9473      COMMENT
New XYZ position is based on association with SCEC monument COMMENT
E1E9I3O4+0031. Position of that monument is believed to be  COMMENT
valid to within 1 m horizontally; vertical accuracy         COMMENT
should be no worse than 3-times this value.                 COMMENT
                                                            COMMENT
Revised Rinex header created by UCSD GPS archive for        COMMENT
GSAC on 07-Jun-2001 (2001:158) 17:16:30 GMT                 COMMENT
For assistance contact dagnew@ucsd.edu                      COMMENT
or anderson@python.ucsd.edu                                 COMMENT
                                                            COMMENT
PICO NCER 1977                                              MARKER NAME
JMS US GEOLOGICAL SURVEY                                    OBSERVER / AGENCY
O4597 ASHTECH Z-XII3 CC00                                   REC # / TYPE / VERS
CR519993706 DORNE-MARGOL. TYPE T                            ANT # / TYPE
 -2524519.1101 -4630051.5932  3577414.1692                  APPROX POSITION XYZ
        1.5811        0.0000        0.0000                  ANTENNA: DELTA H/E/N
     1     1     0                                          WAVELENGTH FACT L1/2
     5    C1    L1    L2    P1    P2                        # / TYPES OF OBSERV
    30                                                      INTERVAL
  2001     4    18     0     0   30.000000                  TIME OF FIRST OBS
  2001     4    18    22    48   30.000000                  TIME OF LAST OBS
                                                            END OF HEADER
 01  4 18  0  0 30.0000000  0  9 17 21 26 06 23 03 15 18 22
  20781714.153   -26334009.470 9 -20490775.24247  20781713.459    20781721.7474
  22251711.539   -14979447.521 8 -11384182.11347  22251710.851    22251722.3394
  22875475.512    -6591062.394 8  -5115905.02746  22875475.318    22875485.1484
  22745767.472   -15504527.320 8 -12062839.20846  22745767.063    22745781.0784
  20772008.983   -22504609.255 9 -17503515.94247  20772008.188    20772016.0954
  23042552.582   -11246759.912 8  -8734339.37146  23042552.173    23042563.2374
  20507092.995   -26931073.278 9 -20693966.80347  20507092.006    20507100.3154
  20337155.188   -28930096.880 9 -22154658.87248  20337154.451    20337161.1574
  24124403.207    -4050796.476 8  -3130990.83945  24124401.873    24124419.7314
 01  4 18  0  1  0.0000000  0  9 17 21 26 06 23 03 15 18 22
  20783934.700   -26322340.604 9 -20481682.61847  20783933.952    20783942.2654
  22241851.569   -15031262.062 8 -11424556.91247  22241850.797    22241862.1654
  22890131.831    -6514042.517 8  -5055889.56446  22890131.622    22890141.5764
  22764909.114   -15403938.264 8 -11984458.38446  22764908.721    22764922.7664
  20776274.570   -22482193.541 9 -17486049.11947  20776273.725    20776281.6184
  23026551.776   -11330846.175 8  -8799860.97646  23026551.100    23026562.0284
  20504509.810   -26944647.894 9 -20704544.38347  20504508.814    20504517.1004
  20337455.213   -28928520.023 9 -22153430.09948  20337454.473    20337461.1964
  24135137.704    -3994386.635 8  -3087035.34445  24135136.342    24135154.4374
 01  4 18  0  1 30.0000000  0  9 17 21 26 06 23 03 15 18 22
  20786200.914   -26310431.769 9 -20472402.99947  20786200.193    20786208.4324
  22232040.541   -15082818.618 8 -11464730.68647  22232039.780    22232051.1454
  22904875.121    -6436566.772 8  -4995518.87446  22904874.955    22904884.6664
  22784098.205   -15303099.254 8 -11905882.81446  22784097.847    22784112.1154
  20780595.098   -22459488.810 9 -17468357.08747  20780594.254    20780602.1054
  23010611.017   -11414615.299 8  -8865135.46446  23010610.276    23010621.1994
  20501972.227   -26957982.653 9 -20714935.07347  20501971.261    20501979.5804
  20337828.342   -28926558.694 9 -22151901.74048  20337827.655    20337834.4394
  24145921.452    -3937718.086 8  -3042878.26045  24145920.307    24145938.1874
 01  4 18  0  2  0.0000000  0  9 17 21 26 06 23 03 15 18 22
  20788512.831   -26298282.596 9 -20462936.10747  20788512.083    20788520.3654
  22222278.500   -15134117.917 8 -11504703.99847  22222277.728    22222289.0674
  22919704.474    -6358638.054 8  -4934795.22146  22919704.249    22919713.9734
  22803334.462   -15202012.959 8 -11827114.54646  22803334.040    22803348.5554
  20784970.262   -22436496.986 9 -17450441.34147  20784969.425    20784977.2494
  22994730.870   -11498065.259 8  -8930161.24846  22994730.170    22994741.0944
  20499480.464   -26971077.014 9 -20725138.42947  20499479.476    20499487.7944
  20338274.423   -28924214.296 9 -22150074.87948  20338273.746    20338280.5534
  24156754.215    -3880793.473 8  -2998521.62845  24156752.907    24156770.6584
 01  4 18  0  2 30.0000000  0  9 17 21 26 06 23 03 15 18 22
  20790870.689   -26285892.020 9 -20453281.10647  20790869.960    20790878.2074
  22212565.386   -15185159.613 8 -11544476.58447  22212564.652    22212575.9954
  22934619.613    -6280258.743 8  -4873720.46046  22934619.383    22934629.0884
  22822617.406   -15100681.391 8 -11748155.15846  22822616.981    22822631.5844
  20789399.789   -22413219.396 9 -17432302.92647  20789398.959    20789406.8154
  22978911.870   -11581192.990 8  -8994935.97246  22978911.251    22978922.2814
  20497034.571   -26983929.859 9 -20735153.59447  20497033.619    20497041.9074
  20338793.215   -28921487.867 9 -22147950.33748  20338792.527    20338799.3624
  24167635.093    -3823615.184 8  -2953967.33745  24167633.625    24167651.4794
 01  4 18  0  3  0.0000000  0  9 17 21 26 06 23 03 15 18 22
  20793274.707   -26273258.740 9 -20443436.99447  20793273.956    20793282.2654
  22202901.536   -15235943.009 8 -11584047.90647  22202900.792    22202912.1334
  22949620.045    -6201430.793 8  -4812296.11646  22949619.749    22949629.5874
  22841946.650   -14999106.318 8 -11669006.03146  22841946.260    22841961.0364
  20793883.460   -22389657.121 9 -17413942.68347  20793882.655    20793890.5494
  22963154.520   -11663995.839 8  -9059457.53346  22963154.150    22963165.2694
  20494634.965   -26996539.832 9 -20744979.51147  20494634.000    20494642.2984
  20339384.596   -28918380.082 9 -22145528.63548  20339383.888    20339390.7194
  24178563.324    -3766186.070 8  -2909217.61445  24178562.060    24178580.1064
 01  4 18  0  3 30.0000000  0  9 17 21 26 06 23 03 15 18 22
  20795725.022   -26260382.403 9 -20433403.47747  20795724.250    20795732.5184
  22193286.608   -15286469.280 8 -11623418.86347  22193285.848    22193297.1984
  22964705.193    -6122157.399 8  -4750524.67946  22964705.075    22964714.8274
  22861321.662   -14897290.614 8 -11589669.39746  22861321.286    22861336.0534
  20798420.984   -22365812.188 9 -17395362.18347  20798420.183    20798428.1114
  22947459.795   -11746471.702 8  -9123724.29446  22947459.355    22947470.4794
  20492281.560   -27008906.734 9 -20754616.02247  20492280.629    20492288.9104
  20340048.243   -28914892.250 9 -22142810.79148  20340047.528    20340054.3944
  24189538.959    -3708509.478 8  -2864275.03645  24189537.721    24189555.8114
 01  4 18  0  4  0.0000000  0  9 17 21 26 06 23 03 15 18 22
  20798221.531   -26247262.931 9 -20423180.50647  20798220.771    20798229.0534
  22183720.467   -15336739.034 8 -11662589.94747  22183719.731    22183731.0514
  22979874.751    -6042442.075 8  -4688408.88046  22979874.494    22979884.2784
  22880741.943   -14795237.281 8 -11510147.59146  22880741.492    22880756.5024
  20803011.856   -22341686.886 9 -17376563.21647  20803011.045    20803018.9774
  22931827.482   -11828618.799 8  -9187734.88346  22931827.136    22931838.2884
  20489974.554   -27021030.299 9 -20764062.92547  20489973.577    20489981.9054
  20340783.830   -28911026.367 9 -22139798.36748  20340783.119    20340790.0124
  24200561.310    -3650588.286 8  -2819141.88245  24200559.871    24200577.9124
 01  4 18  0  4 30.0000000  0  9 17 21 26 06 23 03 15 18 22
  20800764.713   -26233898.736 9 -20412766.83247  20800763.931    20800772.1944
  22174203.134   -15386752.208 8 -11701561.09347  22174202.409    22174213.6694
  22995127.629    -5962286.480 8  -4625949.99845  22995127.554    22995137.2834
  22900207.142   -14692947.740 8 -11430441.73846  22900206.706    22900221.8384
  20807655.955   -22317281.924 9 -17357546.33447  20807655.110    20807663.0454
  22916258.830   -11910433.576 8  -9251486.52446  22916258.274    22916269.3164
  20487714.184   -27032908.725 9 -20773318.80447  20487713.151    20487721.4424
  20341591.360   -28906782.593 9 -22136491.48448  20341590.670    20341597.5234
  24211629.423    -3592424.289 8  -2773819.52245  24211628.218    24211646.4824
 01  4 18  0  5  0.0000000  0  9 17 21 26 06 23 03 15 18 22
  20803354.296   -26220289.902 9 -20402162.55147  20803353.548    20803361.8824
  22164734.571   -15436509.131 8 -11740332.55747  22164733.835    22164745.0334
  23010464.289    -5881694.201 8  -4563150.86845  23010463.967    23010473.5184
  22919716.745   -14590425.351 8 -11350554.45646  22919716.300    22919731.5284
  20812352.757   -22292599.773 9 -17338313.46447  20812351.939    20812359.8494
  22900753.519   -11991914.626 8  -9314978.12446  22900752.898    22900763.8024
  20485500.309   -27044542.180 9 -20782383.80247  20485499.324    20485507.5974
  20342470.335   -28902163.488 9 -22132892.13148  20342469.641    20342476.4284
  24222743.107    -3534021.426 8  -2728311.04945  24222742.064    24222760.4374
 01  4 18  0  5 30.0000000  0  9 17 21 26 06 23 03 15 18 22
  20805990.828   -26206434.797 9 -20391366.37047  20805990.093    20805998.4714
  22155314.727   -15486009.422 8 -11778904.06747  22155314.046    22155325.2074
  23025882.977    -5800667.238 8  -4500013.00345  23025882.764    23025892.4294
  22939270.450   -14487671.547 8 -11270486.83646  22939269.993    22939285.2104
  20817102.188   -22267641.098 9 -17318865.12547  20817101.371    20817109.2704
  22885312.244   -12073058.584 8  -9378207.07746  22885311.698    22885322.4814
  20483333.503   -27055928.859 9 -20791256.50847  20483332.504    20483340.7674
  20343420.750   -28897169.102 9 -22129000.35948  20343420.053    20343426.7474
  24233902.139    -3475382.166 8  -2682618.36645  24233900.879    24233919.4284
 01  4 18  0  6  0.0000000  0  9 17 21 26 06 23 03 15 18 22
  20808674.267   -26192333.216 9 -20380378.12247  20808673.565    20808681.8954
  22145943.628   -15535253.830 8 -11817276.17847  22145943.013    22145954.1654
  23041384.185    -5719208.586 8  -4436538.76345  23041383.952    23041393.5904
  22958867.529   -14384689.262 8 -11190241.18346  22958867.076    22958882.3224
  20821903.859   -22242408.216 9 -17299203.11247  20821903.046    20821910.9154
  22869935.924   -12153863.195 8  -9441171.56946  22869934.964    22869945.7024
  20481213.619   -27067068.690 9 -20799936.86547  20481212.642    20481220.8884
  20344442.161   -28891801.383 9 -22124817.67248  20344441.476    20344448.0924
  24245105.358    -3416509.451 7  -2636743.76845  24245104.033    24245122.9164
 01  4 18  0  6 30.0000000  0  9 17 21 26 06 23 03 15 18 22
  20811404.914   -26177983.863 9 -20369196.80447  20811404.155    20811412.4864
  22136621.430   -15584242.330 8 -11855448.88847  22136620.746    22136631.8484
  23056966.811    -5637320.850 8  -4372730.16945  23056966.564    23056976.4974
  22978507.740   -14281480.636 8 -11109819.16446  22978507.340    22978522.5244
  20826757.478   -22216902.451 9 -17279328.46547  20826756.626    20826764.4894
  22854624.210   -12234325.561 8  -9503869.40446  22854623.364    22854634.0984
  20479140.954   -27077960.671 9 -20808424.08947  20479139.937    20479148.1574
  20345534.464   -28886061.043 9 -22120344.63748  20345533.780    20345540.3624
  24256352.686    -3357405.451 8  -2590688.95545  24256351.348    24256370.5004
 01  4 18  0  7  0.0000000  0  9 17 21 26 06 23 03 15 18 22
  20814182.746   -26163386.013 9 -20357821.87047  20814182.002    20814190.3634
  22127347.803   -15632975.452 8 -11893422.60347  22127347.057    22127358.1404
  23072630.781    -5555006.504 8  -4308589.17945  23072630.540    23072640.3624
  22998190.648   -14178047.833 8 -11029222.46746  22998190.244    22998205.3014
  20831662.722   -22191125.114 9 -17259242.20947  20831661.901    20831669.7474
  22839378.048   -12314443.581 8  -9566298.92346  22839377.338    22839388.0484
  20477115.635   -27088603.664 9 -20816717.30847  20477114.638    20477122.8334
  20346697.473   -28879949.035 9 -22115581.99548  20346696.795    20346703.3814
  24267643.556    -3298072.683 8  -2544455.87945  24267642.111    24267661.3044
 01  4 18  0  7 30.0000000  0  9 17 21 26 06 23 03 15 18 22
  20817008.022   -26148539.378 9 -20346253.05847  20817007.236    20817015.5264
  22118122.708   -15681453.289 9 -11931197.40347  22118121.933    22118132.9464
  23088375.359    -5472268.807 8  -4244118.29545  23088375.090    23088384.9384
  23017915.616   -14074393.792 8 -10948453.38946  23017915.218    23017930.2504
  20836619.233   -22165078.339 9 -17238945.99547  20836618.399    20836626.2554
  22824197.811   -12394215.188 8  -9628458.50346  22824197.127    22824207.9304
  20475137.770   -27098997.333 9 -20824816.24247  20475136.758    20475144.9684
  20347930.900   -28873467.433 9 -22110531.35948  20347930.191    20347936.7684
  24278977.407    -3238515.007 8  -2498047.54745  24278975.765    24278995.0434
 01  4 18  0  8  0.0000000  0  9 17 21 26 06 23 03 15 18 22
  20819880.827   -26133442.462 9 -20334489.23147  20819880.077    20819888.3724
  22108946.250   -15729675.763 8 -11968773.21147  22108945.426    22108956.3664
  23104200.097    -5389109.694 8  -4179319.02545  23104199.884    23104209.6474
  23037682.510   -13970520.038 8 -10867513.07246  23037682.055    23037697.0514
  20841626.825   -22138763.063 9 -17218440.57047  20841626.023    20841633.8744
  22809084.042   -12473637.066 8  -9690345.58746  22809083.610    22809094.3234
  20473207.595   -27109140.016 9 -20832719.61447  20473206.664    20473214.9074
  20349234.518   -28866616.692 9 -22105193.07648  20349233.819    20349240.3744
  24290352.969    -3178734.609 7  -2451465.70845  24290351.779    24290371.0224
 01  4 18  0  8 30.0000000  0  9 17 21 26 06 23 03 15 18 22
  20822801.409   -26118094.956 9 -20322530.13647  20822800.605    20822808.9424
  22099818.131   -15777643.525 8 -12006150.54547  22099817.365    22099828.2604
  23120104.336    -5305532.535 8  -4114193.99645  23120104.036    23120113.7054
  23057490.494   -13866429.464 8 -10786403.84645  23057490.061    23057505.1704
  20846685.104   -22112181.394 9 -17197727.55547  20846684.301    20846692.1924
  22794037.592   -12552707.435 8  -9751958.74146  22794037.016    22794047.6194
  20471325.354   -27119031.453 9 -20840427.19447  20471324.357    20471332.6034
  20350608.086   -28859398.473 9 -22099568.44348  20350607.368    20350613.9244
  24301771.108    -3118734.500 8  -2404712.63045  24301769.745    24301788.7684
 01  4 18  0  9  0.0000000  0  9 17 21 26 06 23 03 15 18 22
  20825769.707   -26102496.198 9 -20310375.26247  20825768.970    20825777.2714
  22090738.443   -15825357.331 9 -12043329.99947  22090737.671    22090748.4864
  23136087.458    -5221540.336 8  -4048745.55045  23136087.250    23136096.9824
  23077339.297   -13762124.913 8 -10705127.85545  23077338.760    23077353.9214
  20851793.796   -22085334.979 9 -17176808.25347  20851792.964    20851800.9134
  22779058.431   -12631424.073 8  -9813296.28046  22779057.736    22779068.1974
  20469490.976   -27128670.835 9 -20847938.37547  20469490.057    20469498.2184
  20352051.218   -28851814.306 9 -22093658.66248  20352050.489    20352057.0624
  24313230.242    -3058517.339 8  -2357790.44845  24313229.011    24313248.1494
 01  4 18  0  9 30.0000000  0  9 17 21 26 06 23 03 15 18 22
  20828786.130   -26086644.953 9 -20298023.65247  20828785.352    20828793.7174
  22081707.171   -15872816.918 9 -12080311.36447  22081706.323    22081717.0974
  23152149.143    -5137135.255 8  -3982975.38845  23152148.911    23152158.9134
  23097228.346   -13657608.159 8 -10623686.53945  23097227.842    23097243.0904
  20856952.644   -22058224.970 9 -17155683.55447  20856951.803    20856959.7514
  22764147.125   -12709783.796 8  -9874355.71146  22764146.350    22764156.7114
  20467704.938   -27138056.984 9 -20855252.23047  20467703.953    20467712.0374
  20353563.865   -28843864.842 9 -22087464.23548  20353563.172    20353569.7704
  24324730.287    -2998085.674 7  -2310701.11145  24324728.751    24324748.1544
 01  4 18  0 10  0.0000000  0  9 17 21 26 06 23 03 15 18 22
  20831850.697   -26070540.293 9 -20285474.56647  20831849.990    20831858.3024
  22072724.031   -15920022.563 9 -12117094.84147  22072723.262    22072733.9834
  23168288.967    -5052320.009 8  -3916885.62645  23168288.727    23168298.5114
  23117157.372   -13552881.469 8 -10542081.61345  23117156.944    23117172.2564
  20862161.366   -22030852.865 9 -17134354.61947  20862160.517    20862168.4714
  22749304.285   -12787783.836 8  -9935134.86046  22749303.325    22749313.5924
  20465967.114   -27147188.979 9 -20862368.04547  20465966.166    20465974.2624
  20355145.781   -28835551.363 9 -22080986.15948  20355145.116    20355151.7514
  24336270.222    -2937442.569 7  -2263447.00245  24336268.932    24336288.3044
 01  4 18  0 10 30.0000000  0  9 17 21 26 06 23 03 15 18 22
  20834963.583   -26054181.859 9 -20272727.74747  20834962.845    20834971.2494
  22063789.279   -15966974.676 9 -12153680.77547  22063788.467    22063799.0984
  23184506.491    -4967097.525 8  -3850478.54745  23184506.121    23184515.9114
  23137125.861   -13447947.478 8 -10460315.18446  23137125.441    23137140.9734
  20867419.612   -22003220.386 9 -17112822.79847  20867418.767    20867426.7134
  22734529.920   -12865422.171 8  -9995632.16146  22734529.213    22734539.3974
  20464277.782   -27156066.148 9 -20869285.30247  20464276.846    20464284.9994
  20356796.807   -28826875.304 9 -22074225.55848  20356796.113    20356802.7734
  24347850.101    -2876591.101 7  -2216030.54245  24347848.785    24347868.1304
 01  4 18  0 11  0.0000000  0  9 17 21 26 06 23 03 15 18 22
  20838125.009   -26037568.433 9 -20259782.21647  20838124.317    20838132.6924
  22054902.822   -16013672.898 9 -12190068.86147  22054902.029    22054912.6124
  23200800.553    -4881470.536 8  -3783756.24445  23200800.330    23200810.2504
  23157133.276   -13342808.339 8 -10378388.87546  23157132.870    23157148.5074
  20872727.190   -21975329.040 9 -17091089.26647  20872726.292    20872734.2504
  22719825.325   -12942696.183 8 -10055845.54846  22719824.403    22719834.5294
  20462637.275   -27164687.478 9 -20876003.19247  20462636.312    20462644.3484
  20358516.615   -28817837.874 9 -22067183.36348  20358515.903    20358522.5594
  24359469.060    -2815533.435 7  -2168453.42245  24359467.861    24359486.9354
 01  4 18  0 11 30.0000000  0  9 17 21 26 06 23 03 15 18 22
  20841335.057   -26020699.679 9 -20246637.73147  20841334.295    20841342.6494
  22046064.480   -16060118.257 9 -12226259.91647  22046063.668    22046074.2444
  23217171.280    -4795442.021 8  -3716721.08845  23217171.007    23217180.9284
  23177179.334   -13237466.803 8 -10296304.88446  23177179.002    23177194.7234
  20878083.644   -21947180.862 9 -17069155.60947  20878082.744    20878090.6884
  22705189.974   -13019603.769 8 -10115773.44046  22705189.284    22705199.3584
  20461045.474   -27173052.373 9 -20882521.27947  20461044.484    20461052.5394
  20360304.847   -28808440.479 9 -22059860.68448  20360304.125    20360310.8074
  24371126.975    -2754272.655 7  -2120718.01245  24371125.730    24371144.6054
 01  4 18  0 12  0.0000000  0  9 17 21 26 06 23 03 15 18 22
  20844593.878   -26003574.392 9 -20233293.35247  20844593.178    20844601.5234
  22037274.302   -16106310.706 9 -12262253.90147  22037273.503    22037284.0454
  23233617.947    -4709014.500 8  -3649375.01445  23233617.651    23233627.6654
  23197263.641   -13131924.956 8 -10214064.78446  23197263.208    23197278.9594
  20883488.761   -21918776.898 9 -17047022.63747  20883487.872    20883495.8044
  22690624.952   -13096142.300 8 -10175413.75446  22690624.378    22690634.3954
  20459502.754   -27181159.424 9 -20888838.44247  20459501.782    20459509.8484
  20362161.391   -28798684.177 9 -22052258.33948  20362160.660    20362167.3794
  24382822.956    -2692811.490 7  -2072826.47145  24382821.972    24382840.5274
 01  4 18  0 12 30.0000000  0  9 17 21 26 06 23 03 15 18 22
  20847901.571   -25986192.365 9 -20219748.91547  20847900.829    20847909.2224
  22028532.084   -16152251.331 9 -12298051.65947  22028531.225    22028541.7764
  23250139.911    -4622191.395 8  -3581720.69745  23250139.632    23250149.7094
  23217385.307   -13026186.011 8 -10131671.13146  23217384.878    23217400.7744
  20888942.088   -21890119.551 9 -17024692.22547  20888941.187    20888949.1134
  22676130.795   -13172309.825 8 -10234764.96146  22676130.042    22676140.1134
  20458009.006   -27189008.776 9 -20894954.79947  20458008.066    20458016.1214
  20364085.862   -28788570.942 9 -22044377.86948  20364085.127    20364091.8304
  24394556.567    -2631153.744 7  -2024781.74545  24394555.290    24394573.9134
 01  4 18  0 13  0.0000000  0  9 17 21 26 06 23 03 15 18 22
  20851258.340   -25968552.786 9 -20206003.78447  20851257.605    20851265.9454
  22019837.505   -16197940.476 9 -12333653.45347  22019836.725    22019847.3204
  23266736.622    -4534975.391 8  -3513760.20945  23266736.403    23266746.5064
  23237544.112   -12920252.066 8 -10049125.54046  23237543.673    23237559.7254
  20894443.341   -21861209.970 9 -17002165.26347  20894442.459    20894450.3844
  22661707.317   -13248103.761 8 -10293825.06746  22661706.817    22661716.8544
  20456564.645   -27196599.130 9 -20900869.33747  20456563.666    20456571.7274
  20366078.104   -28778101.742 9 -22036220.02148  20366077.348    20366084.0344
  24406326.696    -2569301.774 7  -1976585.67845  24406325.412    24406344.3574
 01  4 18  0 13 30.0000000  0  9 17 21 26 06 23 03 15 18 22
  20854664.385   -25950654.056 9 -20192056.72047  20854663.587    20854671.9424
  22011190.881   -16243377.453 9 -12369058.75247  22011190.141    22011200.7994
  23283407.577    -4447368.719 8  -3445495.30545  23283407.402    23283417.5504
  23257739.709   -12814124.927 8  -9966429.37046  23257739.222    23257755.4754
  20899992.352   -21832049.389 9 -16979442.71847  20899991.507    20899999.4324
  22647355.890   -13323521.100 8 -10352591.72746  22647355.263    22647365.2804
  20455169.760   -27203929.212 9 -20906581.07047  20455168.801    20455176.8734
  20368137.865   -28767277.294 9 -22027785.36548  20368137.172    20368143.8034
  24418133.334    -2507257.441 7  -1928239.72745  24418131.979    24418151.4224
 01  4 18  0 14  0.0000000  0 10 17 21 29 26 06 23 03 15 18 22
  20858119.717   -25932495.968 9 -20177907.55647  20858118.945    20858127.2984
  22002592.222   -16288562.828 9 -12404267.99847  22002591.483    22002602.1714
  24458181.623                                    24458172.260    24458245.8924
  23300152.350    -4359374.549 8  -3376928.47445  23300152.221    23300162.1474
  23277971.354   -12707807.570 8  -9883585.01046  23277970.916    23277987.2274
  20905588.740   -21802639.701 9 -16956526.05847  20905587.963    20905595.8644
  22633076.274   -13398559.750 8 -10411063.29646  22633075.758    22633085.8384
  20453824.534   -27210998.463 9 -20912089.55147  20453823.533    20453831.5844
  20370264.986   -28756099.380 9 -22019075.27148  20370264.250    20370270.8244
  24429976.127    -2445024.064 7  -1879746.45845  24429974.889    24429994.6364
 01  4 18  0 14 30.0000000  0 10 17 21 29 26 06 23 03 15 18 22
  20861624.654   -25914077.194 9 -20163555.26747  20861623.918    20861632.2704
  21994041.424   -16333497.079 9 -12439281.56747  21994040.643    21994051.2944
  24437337.090                                    24437327.780    24437390.9274
  23316970.362    -4270995.390 8  -3308061.62845  23316970.218    23316980.2854
  23298238.824   -12601301.920 8  -9800593.93046  23298238.475    23298254.9124
  20911232.327   -21772982.065 9 -16933416.19247  20911231.596    20911239.4954
  22618869.469   -13473216.920 8 -10469237.60346  22618868.873    22618878.9914
  20452529.193   -27217805.486 9 -20917393.69947  20452528.189    20452536.2354
  20372459.228   -28744568.763 9 -22010090.35248  20372458.451    20372464.9794
  24441854.332    -2382604.521 8  -1831108.13845  24441853.337    24441872.8894
 01  4 18  0 15  0.0000000  0 10 17 21 29 26 06 23 03 15 18 22
  20865179.292   -25895397.905 9 -20148999.97547  20865178.508    20865186.8104
  21985538.104   -16378181.200 9 -12474100.21647  21985537.399    21985548.0364
  24416496.137                                    24416488.157    24416540.3184
  23333861.022    -4182234.782 8  -3238897.55345  23333860.814    23333870.7944
  23318541.672   -12494611.406 8  -9717458.79146  23318541.239    23318557.8264
  20916922.689   -21743079.075 9 -16910115.14647  20916921.926    20916929.8284
  22604735.342   -13547491.424 8 -10527113.74146  22604734.808    22604744.9194
  20451283.656   -27224350.593 9 -20922493.76247  20451282.701    20451290.7434
  20374720.021   -28732687.955 9 -22000832.55648  20374719.275    20374725.7964
  24453767.955    -2320002.593 8  -1782327.67445  24453766.708    24453785.7294
 01  4 18  0 15 30.0000000  0 10 17 21 29 26 06 23 03 15 18 22
  20868783.423   -25876457.626 9 -20134241.31747  20868782.632    20868791.0064
  21977082.481   -16422615.711 9 -12508724.36647  21977081.713    21977092.3054
  24395660.613                                    24395666.402    24395711.1984
  23350823.601    -4093095.925 8  -3169438.76245  23350823.431    23350833.1044
  23338879.132   -12387738.615 8  -9634181.60645  23338878.730    23338895.3014
  20922659.389   -21712932.603 9 -16886624.36547  20922658.615    20922666.4914
  22590674.442   -13621381.085 8 -10584689.99646  22590674.032    22590684.1014
  20450088.194   -27230632.917 9 -20927389.05147  20450087.219    20450095.2314
  20377047.155   -28720458.235 9 -21991302.87748  20377046.494    20377053.0264
  24465715.115    -2257221.024 8  -1733407.24845  24465713.888    24465732.8774
 01  4 18  0 16  0.0000000  0 10 17 21 29 26 06 23 03 15 18 22
  20872437.371   -25857256.155 9 -20119279.12847  20872436.593    20872444.9164
  21968674.095   -16466802.146 9 -12543155.20647  21968673.294    21968683.7904
  24374832.512                                    24374837.811    24374895.7854
  23367857.289    -4003582.534 8  -3099688.10145  23367857.189    23367867.2014
  23359250.690   -12280686.648 8  -9550764.82945  23359250.277    23359266.9304
  20928441.968   -21682544.834 9 -16862945.55947  20928441.222    20928449.0724
  22576687.492   -13694884.060 8 -10641964.92746  22576686.815    22576696.8594
  20448942.684   -27236652.150 9 -20932079.33547  20448941.732    20448949.7744
  20379440.394   -28707881.845 9 -21981503.06548  20379439.737    20379446.2184
  24477695.675    -2194263.088 7  -1684349.42145  24477694.425    24477713.6464
 01  4 18  0 16 30.0000000  0 10 17 21 29 26 06 23 03 15 18 22
  20876141.405   -25837791.499 9 -20104111.86547  20876140.608    20876148.9104
  21960313.227   -16510738.628 9 -12577391.28747  21960312.412    21960322.8174
  24354010.422                                    24354015.606    24354088.2764
  23384962.440    -3913695.783 8  -3029646.54745  23384962.247    23384972.1224
  23379656.206   -12173456.474 8  -9467209.16245  23379655.731    23379672.2644
  20934270.436   -21651915.879 9 -16839078.81747  20934269.687    20934277.5384
  22562774.512   -13767996.216 8 -10698935.34446  22562773.987    22562783.9764
  20447847.825   -27242406.139 9 -20936562.92947  20447846.850    20447854.8394
  20381899.554   -28694958.827 9 -21971433.15348  20381898.865    20381905.3634
  24489709.206    -2131130.524 8  -1635155.51345  24489708.237    24489727.7594
 01  4 18  0 17  0.0000000  0 10 17 21 29 26 06 23 03 15 18 22
  20879895.667   -25818062.799 9 -20088738.85147  20879894.879    20879903.1554
  21951999.580   -16554426.461 9 -12611433.60147  21951998.788    21952009.1584
  24333195.118                                    24333200.236    24333215.7264
  23402137.988    -3823438.848 8  -2959316.53045  23402137.637    23402147.2154
  23400095.034   -12066050.764 8  -9383516.74345  23400094.511    23400111.1384
  20940144.432   -21621047.490 9 -16815025.50347  20940143.710    20940151.5504
  22548936.439   -13840715.504 8 -10755599.61846  22548935.937    22548945.8554
  20446803.445   -27247894.160 9 -20940839.27547  20446802.453    20446810.4814
  20384424.431   -28681690.392 9 -21961094.08248  20384423.727    20384430.2454
  24501755.837    -2067826.696 8  -1585828.14445  24501754.727    24501774.5754
 01  4 18  0 17 30.0000000  0  9 17 21 26 06 23 03 15 18 22
  20883699.657   -25798072.381 9 -20073161.91047  20883698.896    20883707.2264
  21943732.583   -16597868.893 9 -12645284.69947  21943731.831    21943742.1954
  23419382.294    -3732817.434 8  -2888702.46445  23419382.259    23419392.1544
  23420566.202   -11958474.984 8  -9299691.80545  23420565.729    23420582.4004
  20946063.194   -21589944.233 9 -16790789.16847  20946062.463    20946070.2754
  22535172.917   -13913042.721 8 -10811958.38246  22535172.415    22535182.4294
  20445809.234   -27253118.322 9 -20944910.02347  20445808.272    20445816.3364
  20387014.169   -28668080.877 9 -21950489.23348  20387013.484    20387020.0084
  24513833.902    -2004357.147 8  -1536371.63745  24513832.566    24513852.5594
 01  4 18  0 18  0.0000000  0 10 17 21 29 26 06 23 03 15 18 22
  20887555.681   -25777809.010 9 -20057372.26247  20887554.957    20887563.2604
  21935514.169   -16641056.011 9 -12678936.85347  21935513.440    21935523.8014
  24291586.726    -1726772.012 7   -692282.90454  24291586.195    24291611.5784
  23436698.099    -3641824.290 8  -2817798.78845  23436697.862    23436707.6274
  23441071.326   -11850721.299 8  -9215728.21445  23441070.734    23441087.4964
  20952028.380   -21558597.396 9 -16766363.03447  20952027.623    20952035.3944
  22521486.354   -13984965.201 8 -10868001.76446  22521485.910    22521495.9814
  20444867.416   -27258067.476 9 -20948766.47247  20444866.483    20444874.5364
  20389670.554   -28654121.359 9 -21939611.64848  20389669.865    20389676.3794
  24525944.622    -1940714.155 8  -1486780.00145  24525943.652    24525963.5664
 01  4 18  0 18 30.0000000  0 10 17 21 29 26 06 23 03 15 18 22
  20891462.142   -25757280.260 9 -20041375.83747  20891461.402    20891469.7384
  21927342.797   -16683995.903 9 -12712396.36347  21927342.127    21927352.4494
  24270795.531    -1836031.552 7   -777419.65345  24270796.038    24270818.9204
  23454082.041    -3550470.408 8  -2746613.98745  23454081.827    23454091.5874
  23461608.238   -11742800.532 8  -9131634.44045  23461607.536    23461624.4474
  20958037.990   -21527016.846 9 -16741754.78647  20958037.223    20958045.0074
  22507875.865   -14056488.856 8 -10923734.38246  22507875.312    22507885.4204
  20443976.539   -27262748.990 9 -20952414.37647  20443975.600    20443983.6464
  20392391.805   -28639821.376 9 -21928468.76548  20392391.061    20392397.5484
  24538086.478    -1876908.701 8  -1437061.76845  24538085.626    24538105.7484
 01  4 18  0 19  0.0000000  0 10 17 21 29 26 06 23 03 15 18 22
  20895419.495   -25736484.523 9 -20025171.36447  20895418.743    20895427.0284
  21919218.644   -16726688.330 9 -12745663.05347  21919217.922    21919228.1884
  24250013.201    -1945245.394 7   -862520.78445  24250013.475    24250035.9404
  23471534.350    -3458757.831 8  -2675149.69245  23471534.185    23471544.1194
  23482176.692   -11634714.291 8  -9047411.72345  23482176.127    23482192.8394
  20964091.959   -21495203.294 9 -16716964.98547  20964091.162    20964098.9454
  22494341.688   -14127610.563 8 -10979153.79946  22494341.272    22494351.3374
  20443136.923   -27267161.154 9 -20955852.39247  20443135.961    20443143.9744
  20395177.615   -28625181.632 9 -21917061.13548  20395176.863    20395183.3294
  24550259.210    -1812943.256 8  -1387218.86145  24550258.069    24550278.2284
 01  4 18  0 19 30.0000000  0 10 17 21 29 26 06 23 03 15 18 22
  20899427.667   -25715421.245 9 -20008758.42247  20899426.918    20899435.3004
  21911141.375   -16769134.343 9 -12778737.73347  21911140.673    21911150.8074
  24229239.577    -2054411.305 7   -947584.54745  24229239.427    24229262.0114
  23489054.435    -3366689.868 8  -2603408.48845  23489054.255    23489063.9684
  23502775.925   -11526465.168 7  -8963062.07645  23502775.406    23502792.3594
  20970189.962   -21463158.462 9 -16691994.96347  20970189.120    20970196.9254
  22480884.796   -14198328.238 8 -11034258.37746  22480884.158    22480894.1014
  20442348.647   -27271303.242 9 -20959079.96447  20442347.697    20442355.7684
  20398027.720   -28610203.716 9 -21905389.99248  20398027.020    20398033.4724
  24562461.520    -1748821.163 8  -1337253.91245  24562460.432    24562480.6354
 01  4 18  0 20  0.0000000  0 10 17 21 29 26 06 23 03 15 18 22
  20903487.027   -25694088.997 9 -19992135.89147  20903486.307    20903494.6704
  21903111.016   -16811333.946 9 -12811620.40447  21903110.312    21903120.3544
  24208475.279    -2163526.219 7  -1032608.60345  24208474.923    24208497.8224
  23506641.668    -3274268.572 8  -2531391.95945  23506641.511    23506650.9694
  23523405.846   -11418054.990 8  -8878586.95145  23523405.435    23523422.4494
  20976331.666   -21430883.411 9 -16666845.55447  20976330.828    20976338.6154
  22467505.136   -14268638.576 8 -11089045.56746  22467504.490    22467514.3644
  20441612.081   -27275173.773 9 -20962095.93747  20441611.167    20441619.1904
  20400942.092   -28594888.253 9 -21893455.83248  20400941.402    20400947.8744
  24574693.035    -1684544.200 8  -1287168.28945  24574692.034    24574712.4464
 01  4 18  0 20 30.0000000  0 10 17 21 29 26 06 23 03 15 18 22
  20907597.819   -25672486.672 9 -19975302.90847  20907597.102    20907605.4444
  21895127.672   -16853286.867 9 -12844310.87147  21895126.869    21895136.8504
  24187721.228    -2272587.232 7  -1117590.67545  24187720.760    24187744.0094
  23524295.591    -3181496.629 8  -2459102.18145  23524295.448    23524305.0184
  23544066.147   -11309485.875 8  -8793988.00045  23544065.732    23544082.8244
  20982517.004   -21398379.335 9 -16641517.68347  20982516.166    20982523.9314
  22454203.497   -14338539.171 8 -11143513.47346  22454202.809    22454212.6654
  20440927.504   -27278771.423 9 -20964899.26947  20440926.551    20440934.5104
  20403920.535   -28579236.317 9 -21881259.48448  20403919.830    20403926.3504
  24586953.605    -1620114.603 8  -1236963.75945  24586952.826    24586973.4294
 01  4 18  0 21  0.0000000  0 10 17 21 29 26 06 23 03 15 18 22
  20911760.044   -25650614.341 9 -19958259.52547  20911759.280    20911767.6374
  21887190.835   -16894994.501 9 -12876810.20047  21887190.034    21887200.0194
  24166977.964    -2381592.829 8  -1202529.55845  24166977.500    24167000.6924
  23542015.670    -3088377.600 8  -2386541.94745  23542015.561    23542025.2074
  23564756.176   -11200761.155 8  -8709267.78445  23564755.709    23564772.6834
  20988745.460   -21365648.525 9 -16616013.13347  20988744.595    20988752.3744
  22440979.987   -14408028.749 8 -11197661.10546  22440979.313    22440989.0944
  20440294.756   -27282096.326 9 -20967490.07847  20440293.839    20440301.7784
  20406962.574   -28563250.010 9 -21868802.58448  20406961.874    20406968.4214
  24599243.122    -1555536.183 8  -1186643.23145  24599241.989    24599262.6394
 01  4 18  0 21 30.0000000  0 10 17 21 29 26 06 23 03 15 18 22
  20915973.729   -25628471.178 9 -19941005.10347  20915972.963    20915981.2934
  21879300.497   -16936457.172 9 -12909118.64647  21879299.796    21879309.7814
  24146245.932    -2490540.411 8  -1287423.24845  24146245.372    24146268.2404
  23559801.155    -2994914.453 8  -2313713.56745  23559801.059    23559810.6654
  23585475.248   -11091883.235 8  -8624428.20545  23585474.745    23585491.8824
  20995016.752   -21332692.556 9 -16590333.14347  20995015.893    20995023.6774
  22427835.147   -14477104.700 8 -11251486.42946  22427834.593    22427844.3174
  20439714.167   -27285147.410 9 -20969867.51247  20439713.231    20439721.1554
  20410068.006   -28546930.767 9 -21856086.25448  20410067.344    20410073.8284
  24611559.947    -1490812.123 8  -1136209.23145  24611558.743    24611579.6134
 01  4 18  0 22  0.0000000  0 10 17 21 29 26 06 23 03 15 18 22
  20920239.220   -25606055.880 9 -19923538.62847  20920238.460    20920246.8114
  21871456.958   -16977674.749 9 -12941236.11747  21871456.226    21871466.2514
  24125525.302    -2599427.000 8  -1372269.39145  24125524.728    24125547.2654
  23577651.798    -2901109.533 8  -2240618.88245  23577651.551    23577661.4054
  23606223.037   -10982854.103 8  -8539470.80545  23606222.572    23606239.7784
  21001330.650   -21299512.472 9 -16564478.52047  21001329.822    21001337.6064
  22414769.813   -14545764.263 8 -11304987.29546  22414769.069    22414778.7804
  20439185.939   -27287923.163 9 -20972030.41147  20439184.997    20439192.9094
  20413236.693   -28530279.375 9 -21843111.10948  20413236.011    20413242.4084
  24623903.826    -1425944.820 7  -1085663.60945  24623902.787    24623923.7824
 01  4 18  0 22 30.0000000  0 10 17 21 29 26 06 23 03 15 18 22
  20924556.581   -25583367.785 9 -19905859.59847  20924555.832    20924564.2634
  21863660.044   -17018647.547 9 -12973162.85447  21863659.284    21863669.3034
  24104816.544    -2708250.197 8  -1457066.13445  24104815.984    24104838.3274
  23595566.749    -2806965.866 8  -2167260.21545  23595566.540    23595576.5764
  23626999.168   -10873676.389 8  -8454397.64545  23626998.628    23627016.0964
  21007686.898   -21266110.120 9 -16538450.69347  21007686.092    21007693.8784
  22401783.790   -14614005.508 8 -11358162.20346  22401783.119    22401792.8654
  20438710.210   -27290423.023 9 -20973978.32447  20438709.256    20438717.1334
  20416468.229   -28513297.573 9 -21829878.50648  20416467.524    20416473.8894
  24636274.604    -1360936.719 7  -1035008.27345  24636273.563    24636294.6864
 01  4 18  0 23  0.0000000  0 10 17 21 29 26 06 23 03 15 18 22
  20928926.066   -25560405.858 9 -19887967.18447  20928925.356    20928933.7534
  21855909.584   -17059375.864 9 -13004899.08847  21855908.870    21855918.9084
  24084120.307    -2817007.185 8  -1541811.27545  24084119.742    24084142.1934
  23613545.367    -2712486.103 8  -2093639.66245  23613545.333    23613555.4114
  23647803.140   -10764352.079 8  -8369210.24945  23647802.646    23647820.1934
  21014085.195   -21232486.631 9 -16512250.55547  21014084.402    21014092.1594
  22388878.007   -14681825.659 8 -11411008.97646  22388877.253    22388887.0974
  20438287.221   -27292645.719 9 -20975710.26947  20438286.289    20438294.1814
  20419762.455   -28495986.043 9 -21816388.97348  20419761.763    20419768.1404
  24648671.763    -1295790.177 7   -984245.07645  24648670.839    24648691.9054
 01  4 18  0 23 30.0000000  0 10 17 21 29 26 06 23 03 15 18 22
  20933347.748   -25537170.042 9 -19869861.34747  20933346.995    20933355.3734
  21848205.370   -17099861.224 9 -13036446.00547  21848204.663    21848214.6794
  24063436.941    -2925696.365 8  -1626503.59745  24063436.441    24063459.0044
  23631587.743    -2617673.877 8  -2019760.05645  23631587.452    23631597.4254
  23668634.598   -10654884.518 8  -8283911.20745  23668633.935    23668651.5614
  21020525.131   -21198644.231 9 -16485879.83647  21020524.354    21020532.1334
  22376052.456   -14749223.182 8 -11463526.42546  22376051.822    22376061.8274
  20437917.063   -27294591.216 9 -20977226.21247  20437916.075    20437923.9764
  20423119.002   -28478347.137 9 -21802644.34348  20423118.310    20423124.7284
  24661094.854    -1230509.323 7   -933377.19445  24661093.740    24661114.7424
 01  4 18  0 24  0.0000000  0 10 17 21 29 26 06 23 03 15 18 22
  20937821.825   -25513658.692 9 -19851540.81547  20937821.068    20937829.4844
  21840547.565   -17140102.808 9 -13067802.96647  21840546.844    21840556.8354
  24042767.204    -3034314.350 8  -1711140.43745  24042766.810    24042789.4044
  23649692.723    -2522531.323 8  -1945623.06145  23649692.528    23649702.5514
  23689492.863   -10545275.246 8  -8198501.76645  23689492.245    23689509.9534
  21027006.580   -21164583.604 9 -16459339.07547  21027005.827    21027013.6034
  22363308.030   -14816195.145 8 -11515712.27046  22363307.454    22363317.4154
  20437599.862   -27296257.683 9 -20978524.73247  20437598.915    20437606.7724
  20426537.726   -28460381.512 9 -21788645.12848  20426537.053    20426543.4584
  24673542.551    -1165096.486 7   -882406.50845  24673541.443    24673562.7314
 01  4 18  0 24 30.0000000  0 10 17 21 29 26 06 23 03 15 18 22
  20942348.281   -25489872.117 9 -19833005.82647  20942347.524    20942355.9004
  21832935.768   -17180102.467 9 -13098971.41447  21832935.104    21832945.0154
  24022111.266    -3142859.700 8  -1795720.65745  24022110.770    24022133.3414
  23667860.219    -2427062.189 8  -1871231.58245  23667860.040    23667869.7944
  23710377.440   -10435527.710 8  -8112984.61946  23710376.917    23710394.7004
  21033529.078   -21130307.391 9 -16432630.32547  21033528.381    21033536.1124
  22350644.989   -14882740.300 8 -11567565.53946  22350644.271    22350654.1614
  20437335.811   -27297644.995 9 -20979605.73347  20437334.867    20437342.7874
  20430018.177   -28442091.517 9 -21774393.15748  20430017.503    20430023.9214
  24686014.931    -1099555.138 7   -831335.65945  24686013.787    24686035.1284
 01  4 18  0 25  0.0000000  0 10 17 21 29 26 06 23 03 15 18 22
  20946927.281   -25465809.174 9 -19814255.47647  20946926.544    20946934.8964
  21825370.172   -17219860.005 9 -13129951.19447  21825369.451    21825379.2294
  24001469.627    -3251329.487 7  -1880241.98545  24001469.100    24001491.5004
  23686089.357    -2331269.109 8  -1796587.68545  23686089.032    23686098.7124
  23731287.970   -10325643.984 8  -8027361.33845  23731287.401    23731305.2574
  21040092.393   -21095816.652 9 -16405754.41047  21040091.708    21040099.4234
  22338063.534   -14948855.564 8 -11619083.81546  22338062.881    22338072.7354
  20437125.180   -27298751.883 9 -20980468.21647  20437124.233    20437132.0964
  20433560.198   -28423477.900 9 -21759889.01248  20433559.551    20433565.9754
  24698511.186    -1033887.370 7   -780166.32845  24698510.206    24698531.5304
 01  4 18  0 25 30.0000000  0 10 17 21 29 26 06 23 03 15 18 22
  20951559.107   -25441468.679 9 -19795288.85947  20951558.358    20951566.7244
  21817850.680   -17259375.558 9 -13160742.41647  21817849.887    21817859.5014
  23980842.756    -3359720.803 7  -1964702.17545  23980842.449    23980864.4754
  23704379.029    -2235154.553 8  -1721693.25745  23704378.970    23704388.8504
  23752223.798   -10215626.225 8  -7941633.60645  23752223.367    23752241.3054
  21046696.321   -21061112.482 9 -16378712.18647  21046695.646    21046703.4154
  22325564.414   -15014538.766 8 -11670265.43246  22325563.734    22325573.4424
  20436968.144   -27299577.358 9 -20981111.41547  20436967.152    20436975.0334
  20437163.650   -28404541.751 9 -21745133.54348  20437162.996    20437169.3704
  24711031.507     -968095.671 7   -728900.40045  24711030.299    24711051.6734
 01  4 18  0 26  0.0000000  0 10 17 21 29 26 06 23 03 15 18 22
  20956243.987   -25416849.573 9 -19776105.13647  20956243.245    20956251.5924
  21810377.065   -17298649.546 9 -13191345.40447  21810376.251    21810385.7544
  23960231.226    -3468031.067 7  -2049099.19145  23960230.999    23960252.8614
  23722729.549    -2138721.395 8  -1646550.59345  23722729.486    23722739.6024
  23773184.967   -10105476.691 8  -7855803.19145  23773184.426    23773202.4554
  21053340.646   -21026196.351 9 -16351504.79747  21053339.976    21053347.7494
  22313147.732   -15079787.281 8 -11721108.32046  22313147.220    22313156.8674
  20436864.817   -27300120.245 9 -20981534.41647  20436863.834    20436871.7154
  20440828.181   -28385284.562 9 -21730127.91148  20440827.520    20440833.8524
  24723574.622     -902183.185 7   -677540.37745  24723573.316    24723594.6594
 01  4 18  0 26 30.0000000  0 10 17 21 29 26 06 23 03 15 18 22
  20960981.844   -25391951.985 9 -19756704.42747  20960981.055    20960989.4404
  21802949.066   -17337683.427 9 -13221761.29847  21802948.263    21802957.7384
  23939635.474    -3576258.400 7  -2133431.57245  23939635.237    23939657.0184
  23741140.307    -2041973.066 8  -1571162.35545  23741140.141    23741150.4944
  23794170.399    -9995198.700 8  -7769872.69145  23794169.978    23794188.1964
  21060024.915   -20991070.554 9 -16324134.03047  21060024.199    21060031.9354
  22300814.279   -15144599.916 8 -11771611.56546  22300813.748    22300823.3434
  20436815.294   -27300380.362 9 -20981737.07047  20436814.308    20436822.1964
  20444553.415   -28365708.173 9 -21714873.54848  20444552.751    20444559.0814
  24736139.769     -836153.520 7   -626089.05045  24736138.567    24736159.8944
 01  4 18  0 27  0.0000000  0 10 17 21 29 26 06 23 03 15 18 22
  20965772.889   -25366774.688 9 -19737085.75147  20965772.178    20965780.5024
  21795566.656   -17376477.144 9 -13251990.04447  21795565.934    21795575.4254
  23919056.388    -3684399.958 7  -2217697.12145  23919056.063    23919077.4974
  23759610.240    -1944912.185 8  -1495530.51845  23759610.274    23759620.6574
  23815179.832    -9884794.216 8  -7683843.66445  23815179.483    23815197.8794
  21066748.898   -20955736.107 9 -16296600.67947  21066748.134    21066755.8324
  22288564.123   -15208973.941 8 -11821773.04446  22288563.698    22288573.2604
  20436819.867   -27300356.273 9 -20981718.27247  20436818.905    20436826.7904
  20448339.153   -28345813.689 9 -21699371.32648  20448338.490    20448344.8704
  24748726.668     -770008.706 7   -574547.98545  24748725.673    24748747.3374
 01  4 18  0 27 30.0000000  0 10 17 21 29 26 06 23 03 15 18 22
  20970617.318   -25341317.337 9 -19717248.85447  20970616.564    20970624.8664
  21788230.016   -17415031.277 9 -13282032.10347  21788229.253    21788238.7374
  23898494.123    -3792453.837 7  -2301894.33945  23898493.750    23898514.8684
  23778139.203    -1847542.140 8  -1419657.82045  23778139.326    23778149.4334
  23836213.073    -9774266.127 8  -7597718.28045  23836212.563    23836230.9964
  21073512.138   -20920194.962 9 -16268906.26347  21073511.362    21073519.0744
  22276397.896   -15272907.682 8 -11871591.43546  22276397.511    22276407.0004
  20436878.570   -27300047.609 9 -20981477.72547  20436877.594    20436885.4734
  20452185.095   -28325602.893 9 -21683622.62648  20452184.447    20452190.8624
  24761335.004     -703751.767 7   -522919.56645  24761334.253    24761355.8554
 01  4 18  0 28  0.0000000  0 10 17 21 29 26 06 23 03 15 18 22
  20975515.127   -25315579.043 9 -19697193.04347  20975514.413    20975522.7304
  21780938.826   -17453346.423 9 -13311887.93447  21780938.051    21780947.4704
  23877948.938    -3900417.160 7  -2386020.99645  23877948.431    23877969.5444
  23796726.747    -1749865.577 7  -1343546.28245  23796726.550    23796736.6694
  23857269.235    -9663616.753 8  -7511498.43545  23857268.726    23857287.1324
  21080314.418   -20884448.519 9 -16241051.87547  21080313.653    21080321.4324
  22264315.805   -15336398.611 8 -11921064.79246  22264315.465    22264324.9444
  20436991.564   -27299453.519 9 -20981014.76947  20436990.636    20436998.5584
  20456091.040   -28305076.942 9 -21667628.34448  20456090.373    20456096.8044
  24773965.147     -637385.652 7   -471206.03745  24773963.621    24773985.1234
 01  4 18  0 28 30.0000000  0 10 17 21 29 26 06 23 03 15 18 22
  20980466.569   -25289559.286 9 -19676917.90347  20980465.826    20980474.1154
  21773692.928   -17491423.216 9 -13341558.03647  21773692.197    21773701.5754
  23857421.334    -4008287.905 7  -2470075.52045  23857420.723    23857441.9074
  23815371.396    -1651885.714 8  -1267198.36945  23815371.252    23815381.6604
  23878348.042    -9552848.978 7  -7425186.31545  23878347.454    23878365.9474
  21087155.491   -20848498.443 9 -16213038.81647  21087154.717    21087162.5324
  22252318.527   -15399444.859 8 -11970191.64746  22252318.091    22252327.5304
  20437159.116   -27298573.073 9 -20980328.67247  20437158.170    20437166.0194
  20460056.606   -28284237.649 9 -21651389.90348  20460055.958    20460062.3814
  24786614.477     -570913.965 7   -419410.26045  24786612.804    24786634.5944
 01  4 18  0 29  0.0000000  0 10 17 21 29 26 06 23 03 15 18 22
  20985471.597   -25263257.451 9 -19656422.97247  20985470.861    20985479.2164
  21766492.309   -17529262.050 9 -13371042.71647  21766491.612    21766500.9994
  23836911.721    -4116063.566 7  -2554055.94545  23836911.121    23836932.1904
  23834073.548    -1553605.643 8  -1190616.56345  23834073.384    23834083.4894
  23899448.557    -9441965.125 7  -7338783.71845  23899448.266    23899466.8124
  21094035.008   -20812346.376 9 -16184868.35747  21094034.254    21094042.0614
  22240406.226   -15462044.527 8 -12018970.51346  22240405.688    22240415.1044
  20437381.267   -27297405.486 9 -20979418.83747  20437380.316    20437388.2144
  20464081.505   -28263086.471 9 -21634908.43648  20464080.882    20464087.2884
  24799283.373     -504339.390 7   -367534.35345  24799281.885    24799303.8114
 01  4 18  0 29 30.0000000  0 10 17 21 29 26 06 23 03 15 18 22
  20990530.686   -25236672.002 9 -19635707.03647  20990529.958    20990538.3254
  21759336.904   -17566863.223 9 -13400342.19547  21759336.215    21759345.6304
  23816420.857    -4223741.043 8  -2637959.91345  23816420.396    23816441.2284
  23852832.646    -1455027.410 8  -1113802.41345  23852832.447    23852842.3684
  23920571.104    -9330967.217 7  -7252292.22345  23920570.773    23920589.3804
  21100952.761   -20775993.131 9 -16156541.13847  21100951.985    21100959.8214
  22228579.357   -15524194.676 8 -12067399.11646  22228578.765    22228588.2414
  20437658.392   -27295949.040 9 -20978283.91947  20437657.454    20437665.3624
  20468165.664   -28241624.177 9 -21618184.54248  20468165.044    20468171.4214
  24811971.566     -437663.499 7   -315579.46645  24811970.030    24811992.1064
 01  4 18  0 30  0.0000000  0 10 17 21 29 26 06 23 03 15 18 22
  20995643.809   -25209802.323 9 -19614769.62647  20995643.119    20995651.4364
  21752226.781   -17604226.878 9 -13429456.61047  21752226.057    21752235.4434
  23795949.320    -4331317.760 8  -2721785.37345  23795948.878    23795969.7424
  23871647.669    -1356154.202 8  -1036758.41745  23871647.492    23871657.6834
  23941714.899    -9219857.645 7  -7165713.71945  23941714.585    23941733.0484
  21107908.552   -20739440.299 9 -16128058.39547  21107907.770    21107915.5844
  22216838.401   -15585893.243 8 -12115475.84246  22216837.794    22216847.3384
  20437990.580   -27294203.159 9 -20976923.46747  20437989.634    20437997.5594
  20472308.804   -28219852.027 9 -21601219.20348  20472308.136    20472314.4814
  24824678.561     -370889.290 7   -263547.99445  24824677.024    24824699.1404
 01  4 18  0 30 30.0000000  0 10 17 21 29 26 06 23 03 15 18 22
  21000810.960   -25182648.753 9 -19593610.99547  21000810.252    21000818.5624
  21745161.358   -17641354.891 9 -13458387.38947  21745160.719    21745170.1114
  23775497.300    -4438792.330 8  -2805531.22245  23775496.857    23775517.6774
  23890518.211    -1256989.982 7   -959487.65945  23890517.949    23890528.1444
  23962879.288    -9108640.020 8  -7079051.03745  23962878.894    23962897.5204
  21114901.886   -20702690.348 9 -16099422.05147  21114901.078    21114908.8394
  22205183.490   -15647139.135 8 -12163199.83446  22205183.002    22205192.6104
  20438377.827   -27292167.961 9 -20975337.57047  20438376.936    20438384.8224
  20476510.329   -28197772.707 9 -21584014.50548  20476509.638    20476515.9904
  24837403.449     -304021.002 7   -211443.19445  24837401.904    24837424.3574
 01  4 18  0 31  0.0000000  0  9 17 21 29 26 06 23 03 15 18
  21006033.569   -25155203.867 9 -19572225.37047  21006032.836    21006041.2144
  21738142.046   -17678240.738 9 -13487129.48447  21738141.438    21738150.8164
  23755066.494    -4546155.620 8  -2889190.37745  23755066.081    23755086.7364
  23909444.527    -1157530.951 8   -881987.17245  23909444.356    23909454.7044
  23984065.082    -8997310.263 8  -6992300.98745  23984064.566    23984083.2634
  21121933.625   -20665738.238 9 -16070628.18247  21121932.850    21121940.6164
  22193616.454   -15707923.503 8 -12210564.21046  22193616.079    22193625.6864
  20438821.633   -27289835.806 9 -20973520.27747  20438820.679    20438828.5364
  20480771.300   -28175380.834 9 -21566566.26648  20480770.637    20480776.9954
 01  4 18  0 31 30.0000000  0  9 17 21 29 26 06 23 03 15 18
  21011310.317   -25127474.256 9 -19550617.88347  21011309.613    21011317.9974
  21731167.399   -17714892.453 9 -13515689.13547  21731166.736    21731176.1164
  23734655.747    -4653412.491 8  -2972766.62045  23734655.411    23734675.7174
  23928425.186    -1057787.309 8   -804264.89845  23928424.966    23928435.4794
  24005270.253    -8885878.037 7  -6905471.12245  24005269.836    24005288.5294
  21129002.235   -20628592.506 9 -16041683.44247  21129001.447    21129009.2374
  22182136.493   -15768251.837 8 -12257573.22646  22182136.057    22182145.5174
  20439320.684   -27287212.993 9 -20971476.51447  20439319.773    20439327.6754
  20485090.153   -28152685.150 9 -21548881.29048  20485089.478    20485095.8274
 01  4 18  0 32  0.0000000  0  9 17 21 29 26 06 23 03 15 18
  21016641.184   -25099460.602 9 -19528789.06147  21016640.443    21016648.8164
  21724236.854   -17751312.203 9 -13544068.03447  21724236.174    21724245.5364
  23714265.454    -4760561.953 8  -3056259.17245  23714265.207    23714285.2394
  23947459.085     -957763.489 7   -726324.31645  23947458.849    23947469.4834
  24026493.996    -8774347.420 7  -6818564.55245  24026493.613    24026512.5054
  21136107.009   -20591256.214 9 -16012590.21347  21136106.268    21136114.0784
  22170743.425   -15828123.295 8 -12304226.23146  22170742.884    22170752.2084
  20439874.986   -27284300.097 9 -20969206.69647  20439874.050    20439881.9174
  20489466.301   -28129688.531 9 -21530961.81748  20489465.588    20489471.8924
 01  4 18  0 32 30.0000000  0 10 17 21 29 26 06 23 03 09 15 18
  21022026.966   -25071157.955 9 -19506735.05147  21022026.234    21022034.6124
  21717351.159   -17787496.172 9 -13572263.21247  21717350.472    21717359.8094
  23693896.924    -4867597.160 8  -3139662.69245  23693896.688    23693916.5434
  23966546.229     -857457.978 8   -648164.24845  23966546.325    23966556.9074
  24047736.996    -8662716.424 7  -6731579.76845  24047736.628    24047755.7534
  21143248.611   -20553726.624 9 -15983346.36347  21143247.854    21143255.6934
  22159438.340   -15887531.476 8 -12350518.25246  22159437.811    22159447.1254
  24441542.211    -2597863.922 7  -1808105.27245  24441541.593    24441557.0064
  20440485.470   -27281091.963 9 -20966706.83347  20440484.557    20440492.3964
  20493900.220   -28106388.071 9 -21512805.58948  20493899.519    20493905.7774
 01  4 18  0 33  0.0000000  0 10 17 21 29 26 06 23 03 09 15 18
  21027467.355   -25042568.212 9 -19484457.33047  21027466.678    21027475.0764
  21710509.817   -17823447.554 9 -13600277.15747  21710509.117    21710518.3314
  23673550.110    -4974518.262 8  -3222977.30245  23673549.754    23673569.5874
  23985686.639     -756876.444 7   -569789.07845  23985686.465    23985696.8274
  24068998.168    -8550990.094 8  -6644520.73345  24068997.689    24069017.1604
  21150426.222   -20516007.854 9 -15953955.10147  21150425.475    21150433.3274
  22148221.427   -15946477.161 8 -12396449.87346  22148220.696    22148230.0534
  24430226.634    -2657327.436 7  -1854440.31145  24430226.027    24430240.8984
  20441151.722   -27277590.398 9 -20963978.32347  20441150.816    20441158.7014
  20498391.096   -28082788.026 9 -21494415.91848  20498390.410    20498396.6864
 01  4 18  0 33 30.0000000  0 10 17 21 29 26 06 23 03 09 15 18
  21032962.720   -25013690.117 9 -19461954.92347  21032962.023    21032970.3944
  21703712.805   -17859166.171 9 -13628109.72947  21703712.023    21703721.1384
  23653225.515    -5081322.142 8  -3306200.57345  23653225.154    23653245.0734
  24004878.900     -656021.238 7   -491200.65345  24004878.548    24004888.7794
  24090277.272    -8439170.380 8  -6557388.93045  24090276.658    24090296.2744
  21157639.671   -20478100.858 9 -15924417.17547  21157638.941    21157646.7844
  22137092.756   -16004957.607 8 -12442018.98546  22137092.130    22137101.5234
  24418958.540    -2716539.370 7  -1900579.24845  24418957.988    24418972.8884
  20441874.116   -27273794.128 9 -20961020.17247  20441873.236    20441881.1164
  20502938.815   -28058889.072 9 -21475793.33448  20502938.181    20502944.5164
 01  4 18  0 34  0.0000000  0 10 17 21 29 26 06 23 03 09 15 18
  21038513.195   -24984522.212 9 -19439226.69447  21038512.431    21038520.8644
  21696960.022   -17894652.089 9 -13655760.98047  21696959.208    21696968.2284
  23632923.744    -5188005.643 8  -3389330.04445  23632923.449    23632943.4844
  24024122.443     -554894.617 7   -412400.73045  24024122.405    24024132.5454
  24111573.540    -8327258.985 8  -6470185.68245  24111572.995    24111592.5494
  21164888.864   -20440006.355 9 -15894733.14047  21164888.123    21164895.9804
  22126053.227   -16062970.169 8 -12487223.49847  22126052.712    22126062.0554
  24407739.270    -2775495.589 7  -1946518.92145  24407738.814    24407753.6804
  20442653.023   -27269701.350 9 -20957830.97047  20442652.086    20442659.9324
  20507543.317   -28034691.938 9 -21456938.40048  20507542.724    20507549.0844
 01  4 18  0 34 30.0000000  0 10 17 21 29 26 06 23 03 09 15 18
  21044118.850   -24955064.188 9 -19416272.38747  21044118.150    21044126.5254
  21690251.210   -17929906.343 9 -13683231.71347  21690250.452    21690259.4664
  23612645.443    -5294566.738 7  -3472364.13545  23612645.097    23612665.1344
  24043417.485     -453499.991 7   -333391.98245  24043417.238    24043427.3224
  24132886.642    -8215258.945 7  -6382913.36245  24132886.091    24132905.8604
  21172173.338   -20401726.014 9 -15864904.30047  21172172.630    21172180.5064
  22115103.041   -16120513.275 8 -12532062.20447  22115102.513    22115111.9024
  24396569.595    -2834193.369 7  -1992257.24645  24396569.026    24396583.8054
  20443488.351   -27265311.617 9 -20954410.37447  20443487.408    20443495.2194
  20512204.248   -28010198.470 9 -21437852.55648  20512203.647    20512210.0324
 01  4 18  0 35  0.0000000  0 10 17 21 29 26 06 23 03 09 15 18
  21049779.924   -24925315.409 9 -19393091.52147  21049779.151    21049787.5184
  21683586.409   -17964929.473 9 -13710522.35247  21683585.676    21683594.6934
  23592390.634    -5401003.088 7  -3555301.02645  23592390.420    23592410.5384
  24062762.563     -351840.276 7   -254176.63745  24062762.566    24062772.8014
  24154216.229    -8103172.712 8  -6295573.90045  24154215.802    24154235.6224
  21179492.865   -20363261.647 9 -15834932.06247  21179492.143    21179500.0244
  22104242.612   -16177585.037 8 -12576533.62547  22104242.082    22104251.4454
  24385449.339    -2892630.044 7  -2037792.11645  24385448.635    24385463.6344
  20444380.273   -27260624.080 9 -20950757.72947  20444379.401    20444387.2554
  20516921.273   -27985410.073 9 -21418536.90547  20516920.652    20516927.0704
 01  4 18  0 35 30.0000000  0 10 17 21 29 26 06 23 03 09 15 18
  21055496.423   -24895274.917 9 -19369683.35647  21055495.704    21055504.0944
  21676965.742   -17999721.122 9 -13737632.61947  21676964.959    21676973.9324
  23572160.013    -5507311.837 7  -3638138.45845  23572159.904    23572180.1114
  24082157.732     -249917.864 7   -174756.63945  24082157.729    24082168.1334
  24175562.045    -7991002.518 7  -6208168.96545  24175561.636    24175581.4024
  21186847.254   -20324614.148 9 -15804817.12247  21186846.512    21186854.4044
  22093472.347   -16234183.112 8 -12620635.94047  22093471.738    22093481.1284
  24374379.480    -2950802.197 7  -2083120.85745  24374378.918    24374393.4624
  20445329.183   -27255637.483 9 -20946872.05047  20445328.294    20445336.1464
  20521694.289   -27960327.773 9 -21398992.24447  20521693.617    20521700.0344
 01  4 18  0 36  0.0000000  0 10 17 21 29 26 06 23 03 09 15 18
  21061269.151   -24864938.959 9 -19346044.95747  21061268.427    21061276.8114
  21670389.522   -18034279.381 9 -13764561.01747  21670388.692    21670397.6034
  23551955.063    -5613487.406 7  -3720872.11945  23551954.892    23551974.8744
  24101602.718     -147732.943 7    -95132.06145  24101602.708    24101613.2784
  24196923.786    -7878747.828 7  -6120698.26945  24196923.398    24196943.1914
  21194236.740   -20285782.126 9 -15774558.39647  21194235.976    21194243.8254
  22082793.166   -16290302.586 8 -12664365.31547  22082792.531    22082801.8474
  24363361.083    -3008703.678 7  -2128238.70645  24363360.516    24363374.8364
  20446335.723   -27250348.159 9 -20942750.47947  20446334.807    20446342.6624
  20526523.409   -27934950.376 9 -21379217.63547  20526522.764    20526529.1604
 01  4 18  0 36 30.0000000  0 10 17 21 29 26 06 23 03 09 15 18
  21067097.478   -24834310.674 9 -19322178.77647  21067096.782    21067105.1624
  21663856.732   -18068608.668 9 -13791311.00047  21663855.935    21663864.8374
  23531775.298    -5719531.188 8  -3803503.07345  23531775.101    23531794.6804
  24121096.465      -45292.152 7    -15308.11945  24121096.503    24121107.0614
  24218300.412    -7766414.768 7  -6033166.54245  24218299.990    24218319.9704
  21201660.326   -20246770.775 9 -15744159.93247  21201659.557    21201667.3904
  22072204.804   -16345944.950 8 -12707722.92347  22072204.131    22072213.3344
  24352393.985    -3066335.078 7  -2173146.09545  24352393.439    24352407.8494
  20447399.348   -27244758.700 9 -20938395.03647  20447398.441    20447406.2534
  20531407.735   -27909282.812 9 -21359216.92247  20531407.113    20531413.4694
 01  4 18  0 37  0.0000000  0 10 17 21 29 26 06 23 03 09 15 18
  21072981.624   -24803389.606 9 -19298084.44047  21072980.869    21072989.2664
  21657367.369   -18102709.565 9 -13817883.01047  21657366.627    21657375.5684
  23511621.278    -5825441.016 7  -3886029.63945  23511620.954    23511640.0644
  24140638.670       57401.431 7     64712.80145  24140638.583    24140649.0694
  24239691.377    -7654006.068 7  -5945575.87745  24239690.911    24239711.0644
  21209117.781   -20207581.492 9 -15713622.82347  21209116.994    21209124.8224
  22061707.284   -16401108.716 8 -12750707.59247  22061706.778    22061715.9734
  24341478.549    -3123693.798 8  -2217840.99345  24341478.086    24341492.9324
  20448520.195   -27238868.534 9 -20933805.27347  20448519.295    20448527.1224
  20536347.026   -27883326.702 9 -21338991.36747  20536346.403    20536352.7404
 01  4 18  0 37 30.0000000  0 10 17 21 29 26 06 23 03 09 15 18
  21078921.560   -24772174.649 9 -19273761.11347  21078920.877    21078929.2964
  21650921.542   -18136581.907 9 -13844276.93447  21650920.790    21650929.7794
  23491492.988    -5931213.849 8  -3968449.45645  23491492.849    23491511.5374
  24160228.316      160345.047 7    144928.56645  24160228.231    24160238.6914
  24261096.435    -7541524.085 7  -5857928.05445  24261095.932    24261115.9304
  21216608.829   -20168215.597 9 -15682948.08947  21216608.088    21216615.9004
  22051301.364   -16455791.654 8 -12793317.59047  22051300.843    22051310.0214
  24330616.165    -3180776.446 8  -2262320.80545  24330615.685    24330630.3744
  20449698.415   -27232676.686 9 -20928980.44147  20449697.529    20449705.3934
  20541340.955   -27857083.207 9 -21318541.88047  20541340.346    20541346.6844
 01  4 18  0 38  0.0000000  0 10 17 21 29 26 06 23 03 09 15 18
  21084917.680   -24740665.247 9 -19249208.33347  21084916.936    21084925.2554
  21644518.937   -18170227.352 9 -13870494.05247  21644518.202    21644527.2114
  23471391.397    -6036847.505 8  -4050760.83445  23471391.085    23471409.3804
  24179865.172      263535.872 7    225336.95545  24179864.918    24179875.2724
  24282514.930    -7428971.258 7  -5770225.10545  24282514.384    24282534.7414
  21224133.222   -20128674.973 9 -15652137.20447  21224132.469    21224140.2514
  22040987.259   -16509992.041 8 -12835551.57147  22040986.773    22040995.9594
  24319806.863    -3237580.041 7  -2306583.16945  24319806.349    24319820.8474
  20450934.259   -27226182.216 9 -20923919.79047  20450933.383    20450941.2244
  20546389.356   -27830553.894 9 -21297869.67747  20546388.711    20546395.0614
 01  4 18  0 38 30.0000000  0 10 17 21 29 26 06 23 03 09 15 18
  21090970.025   -24708859.864 9 -19224424.93147  21090969.316    21090977.6744
  21638159.739   -18203645.109 9 -13896533.75047  21638158.994    21638167.9774
  23451316.714    -6142338.491 8  -4132961.01245  23451316.263    23451334.5904
  24199548.360      366971.801 7    305936.35145  24199548.092    24199558.7444
  24303946.381    -7316349.264 7  -5682468.22045  24303945.968    24303966.3564
  21231690.761   -20088959.896 9 -15621190.38447  21231689.987    21231697.7664
  22030765.654   -16563706.895 8 -12877407.21447  22030765.099    22030774.2554
  24309051.077    -3294100.656 7  -2350624.99545  24309050.536    24309065.0854
  20452228.017   -27219383.312 9 -20918621.92247  20452227.118    20452234.9564
  20551492.049   -27803739.108 9 -21276975.02647  20551491.418    20551497.7464
 01  4 18  0 39  0.0000000  0 10 17 21 29 26 06 23 03 09 15 18
  21097078.862   -24676757.964 9 -19199410.47147  21097078.147    21097086.4784
  21631843.752   -18236835.341 9 -13922396.15647  21631843.037    21631852.0144
  23431269.715    -6247684.526 8  -4215048.24745  23431269.211    23431287.4454
  24219277.431      470649.871 7    386724.43045  24219277.293    24219288.1184
  24325390.528    -7203660.642 7  -5594659.40745  24325390.272    24325410.6914
  21239281.377   -20049071.685 9 -15590108.65147  21239280.502    21239288.2454
  22020636.749   -16616934.421 8 -12918883.12047  22020636.141    22020645.2764
  24298349.509    -3350335.448 7  -2394444.14145  24298349.074    24298363.6104
  20453579.816   -27212279.304 9 -20913086.30947  20453578.912    20453586.8204
  20556648.738   -27776640.556 9 -21255859.25647  20556648.138    20556654.4214
 01  4 18  0 39 30.0000000  0 10 17 21 29 26 06 23 03 09 15 18
  21103244.291   -24644358.340 9 -19174164.02047  21103243.589    21103251.9054
  21625570.821   -18269799.179 9 -13948082.16747  21625570.090    21625579.0604
  23411250.812    -6352882.635 8  -4297020.21545  23411250.280    23411268.4464
  24239052.053      574567.622 7    467699.26945  24239051.973    24239063.0794
  24346847.100    -7090907.270 7  -5506800.14745  24346846.758    24346867.3814
  21246904.648   -20009011.369 9 -15558892.80747  21246903.725    21246911.4424
  22010600.807   -16669672.479 8 -12959977.64047  22010600.349    22010609.4444
  24287703.385    -3406280.796 7  -2438037.72445  24287702.924    24287717.3594
  20454989.999   -27204868.720 9 -20907311.80747  20454989.086    20454996.9884
  20561859.282   -27749259.159 9 -21234523.09347  20561858.642    20561864.9014
 01  4 18  0 40  0.0000000  0 10 17 21 29 26 06 23 03 09 15 18
  21109466.303   -24611661.282 9 -19148685.80147  21109465.591    21109473.9814
  21619340.693   -18302537.902 9 -13973592.75747  21619340.003    21619348.9824
  23391260.341    -6457931.428 8  -4378875.81145  23391259.759    23391277.9064
  24258871.900      678721.184 7    548857.84245  24258871.782    24258882.7904
  24368315.495    -6978092.634 7  -5418893.11645  24368314.897    24368335.7644
  21254560.208   -19968781.203 9 -15527544.61347  21254559.295    21254566.9444
  22000658.355   -16721920.238 8 -13000690.09147  22000657.852    22000666.9854
  24277112.579    -3461934.821 7  -2481404.25845  24277112.115    24277126.5774
  20456458.440   -27197151.832 9 -20901298.62447  20456457.549    20456465.4394
  20567123.106   -27721597.280 9 -21212968.36447  20567122.498    20567128.7894
 01  4 18  0 40 30.0000000  0 10 17 21 29 26 06 23 03 09 15 18
  21115745.125   -24578665.773 9 -19122975.03247  21115744.434    21115752.8964
  21613153.436   -18335051.438 9 -13998927.88447  21613152.816    21613161.7464
  23371298.822    -6562827.985 8  -4460612.79945  23371298.328    23371316.0454
  24278735.883      783108.078 7    630198.25745  24278735.890    24278747.1014
  24389795.030    -6865218.730 8  -5330939.92345  24389794.685    24389815.1724
  21262247.805   -19928382.295 9 -15496064.93347  21262246.963    21262254.5414
  21990809.584   -16773675.163 8 -13041018.52347  21990809.140    21990818.2794
  24266577.914    -3517294.387 8  -2524541.38545  24266577.578    24266591.9964
  20457985.452   -27189127.278 9 -20895045.70347  20457984.562    20457992.4284
  20572440.141   -27693656.134 9 -21191196.02847  20572439.477    20572445.8084
 01  4 18  0 41  0.0000000  0 10 17 21 29 26 06 23 03 09 15 18
  21122080.885   -24545371.502 9 -19097031.45547  21122080.168    21122088.6074
  21607009.021   -18367340.706 9 -14024088.25747  21607008.290    21607017.1784
  23351366.804    -6667570.154 8  -4542229.48445  23351366.267    23351383.7694
  24298644.138      887725.098 7    711717.98045  24298643.949    24298655.0324
  24411285.459    -6752288.349 8  -5242942.73445  24411285.098    24411305.8744
  21269967.254   -19887816.293 9 -15464455.04947  21269966.439    21269974.0204
  21981054.983   -16824935.990 8 -13080961.94447  21981054.533    21981063.6724
  24256099.824    -3572356.544 7  -2567446.76245  24256099.412    24256113.7474
  20459571.168   -27180794.432 9 -20888552.55447  20459570.274    20459578.1344
  20577810.000   -27665437.177 9 -21169207.21747  20577809.369    20577815.6764
 01  4 18  0 41 30.0000000  0 10 17 21 29 26 06 23 03 09 15 18
  21128473.557   -24511777.530 9 -19070854.35247  21128472.843    21128481.3734
  21600907.168   -18399405.945 9 -14049074.06947  21600906.414    21600915.2784
  23331464.342    -6772155.114 8  -4623723.66845  23331463.835    23331481.2404
  24318595.127      992569.605 7    793414.95845  24318595.116    24318606.1514
  24432786.175    -6639303.734 8  -5154903.28845  24432785.713    24432806.6834
  21277718.351   -19847084.411 9 -15432715.91447  21277717.463    21277725.0574
  21971394.754   -16875700.818 8 -13120518.88047  21971394.270    21971403.4464
  24245678.756    -3627117.876 7  -2610117.70945  24245678.497    24245692.7804
  20461215.706   -27172152.268 9 -20881818.38947  20461214.816    20461222.6754
  20583232.564   -27636941.677 9 -21147002.90947  20583231.935    20583238.1734
 01  4 18  0 42  0.0000000  0 10 17 21 29 26 06 23 03 09 15 18
  21134923.528   -24477883.166 9 -19044443.16347  21134922.797    21134931.2994
  21594847.724   -18431247.805 9 -14073885.81547  21594847.019    21594855.8824
  23311592.175    -6876580.419 8  -4705093.44545  23311591.723    23311609.1114
  24338589.300     1097638.748 7    875286.96245  24338589.215    24338599.9864
  24454296.712    -6526267.296 8  -5066823.42745  24454296.292    24454317.2684
  21285500.687   -19806187.933 9 -15400848.51647  21285499.785    21285507.3954
  21961829.249   -16925967.432 8 -13159687.59647  21961828.803    21961837.9954
  24235315.817    -3681575.555 7  -2652552.05045  24235315.460    24235329.5064
  20462919.307   -27163199.727 9 -20874842.36547  20462918.396    20462926.2494
  20588707.464   -27608171.006 9 -21124584.17547  20588706.805    20588713.0374
 01  4 18  0 42 30.0000000  0 10 17 21 29 26 06 23 03 09 15 18
  21141430.690   -24443687.842 9 -19017797.46847  21141429.943    21141438.4254
  21588830.657   -18462867.027 9 -14098524.08447  21588829.994    21588838.8564
  23291750.723    -6980843.679 8  -4786336.97545  23291750.279    23291767.7594
  24358625.849     1202929.600 7    957331.72045  24358625.674    24358635.9804
  24475816.500    -6413181.644 8  -4978705.23445  24475816.164    24475837.4794
  21293314.022   -19765128.297 9 -15368853.98647  21293313.126    21293320.8134
  21952358.894   -16975734.185 9 -13198466.80247  21952358.429    21952367.6684
  24225011.010    -3735726.732 7  -2694747.56145  24225010.545    24225024.7794
  20464682.078   -27153936.089 9 -20867623.93247  20464681.206    20464689.0624
  20594234.371   -27579126.567 9 -21101952.13047  20594233.719    20594239.9754
 01  4 18  0 43  0.0000000  0 10 17 21 29 26 06 23 03 09 15 18
  21147995.099   -24409191.432 9 -18990917.15547  21147994.398    21148002.9004
  21582855.863   -18494264.648 9 -14122989.66647  21582855.200    21582863.9884
  23271940.599    -7084943.179 8  -4867452.91445  23271940.123    23271957.7864
  24378703.677     1308438.650 7   1039546.53945  24378703.405    24378713.4784
  24497345.159    -6300049.813 8  -4890551.08245  24497344.840    24497366.2414
  21301157.999   -19723907.545 9 -15336733.91247  21301157.126    21301164.8454
  21942984.022   -17024999.635 8 -13236855.39347  21942983.479    21942992.6834
  24214764.964    -3789569.185 7  -2736702.54145  24214764.418    24214778.4844
  20466504.180   -27144361.051 9 -20860162.84447  20466503.255    20466511.0984
  20599812.930   -27549810.594 9 -21079108.49047  20599812.347    20599818.6144
 01  4 18  0 43 30.0000000  0 10 17 21 29 26 06 23 03 09 15 18
  21154617.055   -24374392.902 9 -18963801.42747  21154616.344    21154624.8654
  21576923.097   -18525441.052 9 -14147282.88347  21576922.448    21576931.2194
  23252162.242    -7188875.707 8  -4948438.75345  23252161.795    23252179.5794
  24398822.330     1414163.586 7   1121929.54645  24398822.327    24398832.5734
  24518882.328    -6186873.497 8  -4802362.29145  24518881.891    24518903.5624
  21309032.521   -19682526.536 9 -15304488.96447  21309031.684    21309039.4174
  21933704.864   -17073761.923 8 -13274851.90947  21933704.272    21933713.3904
  24204578.198    -3843099.292 7  -2778414.08745  24204577.639    24204592.0064
  20468385.737   -27134473.415 9 -20852458.17647  20468384.822    20468392.6384
  20605443.131   -27520223.624 9 -21056053.69247  20605442.569    20605448.8184
 01  4 18  0 44  0.0000000  0  9 17 21 29 26 23 03 09 15 18
  21161297.340   -24339287.701 9 -18936446.73847  21161296.649    21161305.1814
  21571033.167   -18556392.703 9 -14171400.96647  21571032.495    21571041.2694
  23232416.795    -7292635.068 8  -5029289.65345  23232416.534    23232434.1894
  24418982.361     1520105.381 7   1204481.56445  24418982.360    24418992.9014
  21316938.047   -19640982.596 9 -15272117.05447  21316937.221    21316944.9454
  21924522.471   -17122015.282 8 -13312451.86947  21924521.869    21924530.9484
  24194452.421    -3896310.170 7  -2819876.88245  24194451.959    24194466.0994
  20470327.639   -27124268.378 9 -20844506.18547  20470326.728    20470334.5344
  20611125.473   -27490363.123 9 -21032785.74647  20611124.895    20611131.1084
 01  4 18  0 44 30.0000000  0  9 17 21 29 26 23 03 09 15 18
  21168035.148   -24303880.227 9 -18908856.51247  21168034.445    21168043.0144
  21565184.853   -18587125.471 9 -14195348.48947  21565184.134    21565192.9624
  23212704.307    -7396223.810 8  -5110007.63045  23212703.890    23212721.3174
  24439181.979     1626256.107 7   1287196.36245  24439182.286    24439192.8084
  21324873.456   -19599282.317 9 -15239623.32347  21324872.528    21324880.2814
  21915436.125   -17169763.080 8 -13349657.87547  21915435.660    21915444.7864
  24184387.072    -3949204.022 7  -2861092.64645  24184386.568    24184400.5784
  20472329.211   -27113750.068 9 -20836310.08247  20472328.322    20472336.1324
  20616858.487   -27460235.933 9 -21009309.99047  20616857.896    20616864.0954
 01  4 18  0 45  0.0000000  0  9 17 21 29 26 23 03 09 15 18
  21174830.791   -24268168.986 9 -18881029.58047  21174830.120    21174838.6494
  21559378.277   -18617638.610 9 -14219124.87547  21559377.594    21559386.4754
  23193024.703    -7499638.538 8  -5190589.99945  23193024.414    23193041.5344
  24459421.502     1732613.798 7   1370072.39945  24459421.624    24459432.1954
  21332838.422   -19557425.913 9 -15207007.93647  21332837.564    21332845.3424
  21906446.642   -17217002.929 8 -13386468.08247  21906446.113    21906455.2614
  24174382.353    -4001776.888 7  -2902058.25445  24174381.904    24174396.0674
  20474390.705   -27102916.622 9 -20827868.42647  20474389.805    20474397.6244
  20622642.234   -27429842.066 9 -20985626.43847  20622641.632    20622647.8134
 01  4 18  0 45 30.0000000  0  9 17 21 29 26 23 03 09 15 18
  21181684.204   -24232154.598 9 -18852966.44047  21181683.466    21181692.0204
  21553613.046   -18647934.609 9 -14242732.06047  21553612.365    21553621.2744
  23173378.633    -7602878.255 8  -5271036.04145  23173378.294    23173395.1554
  24479699.433     1839174.289 7   1453106.50045  24479699.367    24479710.2834
  21340832.583   -19515416.216 9 -15174273.10147  21340831.769    21340839.4974
  21897553.904   -17263734.452 8 -13422882.18847  21897553.359    21897562.5134
  24164439.579    -4054027.183 7  -2942772.57145  24164439.157    24164453.0724
  20476511.983   -27091768.615 9 -20819181.65547  20476511.136    20476519.0124
  20628476.155   -27399184.380 9 -20961737.31347  20628475.564    20628481.7434
 01  4 18  0 46  0.0000000  0  9 17 21 29 26 23 03 09 15 18
  21188595.514   -24195834.955 9 -18824665.45147  21188594.861    21188603.4364
  21547889.319   -18678012.335 9 -14266169.17147  21547888.648    21547897.6004
  23153766.530    -7705938.805 8  -5351342.45145  23153766.252    23153782.9674
  24500015.518     1945936.424 7   1536297.74945  24500015.443    24500026.7334
  21348856.000   -19473252.918 9 -15141418.58347  21348855.185    21348862.8844
  21888758.550   -17309954.585 9 -13458897.82047  21888757.938    21888767.0174
  24154558.747    -4105950.504 7  -2983232.10045  24154558.428    24154572.0024
  20478693.723   -27080303.673 9 -20810247.91447  20478692.866    20478700.6874
  20634360.408   -27368262.788 9 -20937642.54947  20634359.750    20634365.9064
 01  4 18  0 46 30.0000000  0  9 17 21 29 26 23 03 09 15 18
  21195564.902   -24159210.727 9 -18796127.11047  21195564.226    21195572.7474
  21542206.777   -18707873.314 9 -14289437.38447  21542206.171    21542215.1774
  23134188.672    -7808819.139 8  -5431508.45045  23134188.336    23134205.0644
  24520369.598     2052896.002 7   1619642.79045  24520369.362    24520380.3834
  21356908.152   -19430938.536 9 -15108446.33047  21356907.341    21356915.0614
  21880060.496   -17355662.609 8 -13494514.41447  21880059.980    21880068.9794
  24144740.195    -4157545.289 7  -3023435.56245  24144739.785    24144753.7394
  20480935.628   -27068522.354 9 -20801067.65547  20480934.734    20480942.6094
  20640294.206   -27337080.247 9 -20913344.45147  20640293.532    20640299.7344
 01  4 18  0 47  0.0000000  0  8 17 21 29 23 03 09 15 18
  21202593.294   -24122276.604 9 -18767347.28647  21202592.621    21202601.1264
  21536566.228   -18737513.812 9 -14312533.79247  21536565.686    21536574.7014
  23114646.523    -7911511.973 8  -5511528.35945  23114646.165    23114662.8244
  21364989.656   -19388469.500 9 -15075353.57047  21364988.876    21364996.6924
  21871461.093   -17400852.115 8 -13529726.95547  21871460.613    21871469.5954
  24134986.028    -4208803.811 7  -3063377.10445  24134985.687    24134999.3294
  20483238.845   -27056418.887 9 -20791636.36547  20483237.980    20483245.8344
  20646278.324   -27305633.152 9 -20888840.20747  20646277.699    20646283.9114
 01  4 18  0 47 30.0000000  0  9 17 21 29 23 03 09 15 18 31
  21209679.329   -24085038.891 8 -18738330.91847  21209678.635    21209687.2554
  21530966.320   -18766941.172 9 -14335464.12947  21530965.773    21530974.7654
  23095139.033    -8014021.870 8  -5591405.73045  23095138.709    23095155.4724
  21373098.971   -19345854.394 9 -15042147.00047  21373098.192    21373106.0884
  21862959.321   -17445528.460 8 -13564539.63747  21862958.859    21862967.9134
  24125294.963    -4259730.129 7  -3103059.73645  24125294.656    24125308.2894
  20485602.180   -27043999.335 9 -20781958.78447  20485601.323    20485609.1514
  20652311.268   -27273929.909 9 -20864136.37747  20652310.633    20652316.8184
  24459444.082    -2016768.471 7  -1546899.41945  24459443.879    24459455.7654
 01  4 18  0 48  0.0000000  0  9 17 21 29 23 03 09 15 18 31
  21216823.649   -24047494.828 8 -18709075.82447  21216823.029    21216831.6554
  21525407.217   -18796154.270 9 -14358227.50447  21525406.661    21525415.6244
  23075667.413    -8116344.162 8  -5671136.92145  23075667.109    23075683.8474
  21381236.474   -19303092.001 9 -15008825.65547  21381235.618    21381243.5374
  21854555.874   -17489688.020 8 -13598949.63247  21854555.496    21854564.6164
  24115667.905    -4310319.126 7  -3142479.53945  24115667.602    24115681.1164
  20488026.235   -27031260.701 9 -20772032.56747  20488025.345    20488033.2554
  20658392.956   -27241969.826 9 -20839232.40547  20658392.373    20658398.5784
  24441894.531    -2108991.351 7  -1618761.34345  24441894.390    24441906.1654
 01  4 18  0 48 30.0000000  0  9 17 21 29 23 03 09 15 18 31
  21224027.073   -24009640.983 8 -18679579.34047  21224026.432    21224035.0514
  21519889.435   -18825150.302 9 -14380821.74747  21519888.831    21519897.7554
  23056232.307    -8218473.637 8  -5750717.85545  23056232.004    23056248.8174
  21389402.054   -19260181.157 9 -14975388.62847  21389401.246    21389409.1264
  21846251.786   -17533326.102 8 -13632953.28147  21846251.385    21846260.5664
  24106106.211    -4360564.963 7  -3181631.88545  24106105.941    24106119.5994
  20490511.714   -27018199.065 9 -20761854.66847  20490510.884    20490518.8124
  20664523.899   -27209751.199 9 -20814126.97547  20664523.338    20664529.6194
  24424399.313    -2200929.578 7  -1690401.47145  24424399.000    24424410.9634
 01  4 18  0 49  0.0000000  0  9 17 21 29 23 03 09 15 18 31
  21231289.306   -23971477.422 9 -18649841.52747  21231288.705    21231297.3474
  21514412.704   -18853930.591 9 -14403247.88447  21514412.082    21514420.9584
  23036834.246    -8320408.312 8  -5830146.99245  23036833.963    23036850.9904
  21397595.610   -19217123.465 9 -14941837.16947  21397594.833    21397602.6554
  21838046.989   -17576441.895 8 -13666549.95247  21838046.645    21838055.8334
  24096610.185    -4410465.682 7  -3220515.40045  24096609.804    24096623.2994
  20493058.706   -27004814.552 9 -20751425.17147  20493057.881    20493065.8564
  20670703.574   -27177276.209 9 -20788821.78047  20670703.060    20670709.4124
  24406958.735    -2292581.175 7  -1761818.22145  24406958.264    24406970.2134
 01  4 18  0 49 30.0000000  0  9 17 21 29 23 03 09 15 18 31
  21238610.328   -23933005.315 9 -18619863.29147  21238609.716    21238618.3304
  21508976.620   -18882497.649 9 -14425507.87547  21508975.956    21508984.7504
  23017473.420    -8422147.699 8  -5909423.96745  23017473.206    23017490.1724
  21405816.632   -19173921.895 9 -14908173.61347  21405815.822    21405823.5684
  21829941.654   -17619035.510 8 -13699739.73547  21829941.316    21829950.4884
  24087180.056    -4460020.050 7  -3259128.98745  24087179.724    24087193.3294
  20495666.989   -26991107.974 9 -20740744.71647  20495666.156    20495674.0634
  20676931.597   -27144547.918 9 -20763319.21647  20676931.069    20676937.4374
  24389572.635    -2383945.344 7  -1833011.03345  24389572.350    24389584.1284
 01  4 18  0 50  0.0000000  0  9 17 21 29 23 03 09 15 18 31
  21245990.542   -23894221.953 9 -18589642.52347  21245989.937    21245998.5954
  21503581.308   -18910849.966 9 -14447600.53047  21503580.661    21503589.3914
  22998150.908    -8523687.047 8  -5988545.06546  22998150.632    22998167.4074
  21414065.109   -19130575.680 9 -14874397.35147  21414064.332    21414072.0744
  21821936.383   -17661103.562 9 -13732519.98947  21821936.078    21821945.1434
  24077816.874    -4509223.055 7  -3297468.80545  24077816.584    24077829.9964
  20498337.054   -26977076.547 9 -20729811.14247  20498336.237    20498344.1814
  20683207.973   -27111565.418 9 -20737618.56847  20683207.414    20683213.7744
  24372241.821    -2475017.466 7  -1903976.25845  24372241.650    24372253.6534
 01  4 18  0 50 30.0000000  0  9 17 21 29 23 03 09 15 18 31
  21253429.736   -23855128.949 8 -18559180.46647  21253429.117    21253437.7764
  21498226.313   -18938990.399 9 -14469528.07947  21498225.668    21498234.3664
  22978866.178    -8625026.509 8  -6067510.42846  22978866.003    22978882.5554
  21422340.375   -19087088.508 9 -14840511.25047  21422339.573    21422347.4144
  21814031.202   -17702646.596 9 -13764891.13347  21814030.750    21814039.7454
  24068520.680    -4558074.286 8  -3335534.49045  24068520.341    24068533.8844
  20501068.676   -26962721.859 9 -20718625.67447  20501067.866    20501075.8014
  20689531.873   -27078332.595 9 -20711722.86347  20689531.366    20689537.7254
  24354966.729    -2565797.087 7  -1974713.54745  24354966.698    24354978.6614
 01  4 18  0 51  0.0000000  0  9 17 21 29 23 03 09 15 18 31
  21260927.902   -23815725.650 8 -18528476.62247  21260927.306    21260935.9914
  21492911.506   -18966919.584 9 -14491291.02447  21492910.878    21492919.5684
  22959620.133    -8726163.127 8  -6146317.71446  22959619.907    22959636.3204
  21430642.304   -19043461.168 9 -14806515.93147  21430641.556    21430649.4784
  21806226.088   -17743662.950 9 -13796851.88847  21806225.634    21806234.5724
  24059291.957    -4606570.640 7  -3373323.69845  24059291.540    24059305.1194
  20503862.021   -26948042.659 9 -20707187.34247  20503861.192    20503869.1384
  20695903.432   -27044850.365 9 -20685632.81947  20695902.844    20695909.1784
  24337747.978    -2656281.445 7  -2045220.75645  24337748.198    24337759.8694
 01  4 18  0 51 30.0000000  0  9 17 21 29 23 03 09 15 18 31
  21268485.371   -23776011.063 8 -18497530.21847  21268484.764    21268493.4564
  21487636.912   -18994637.540 9 -14512889.36847  21487636.269    21487644.9714
  22940413.126    -8827094.257 8  -6224964.88846  22940412.844    22940429.2264
  21438970.837   -18999694.580 9 -14772412.10147  21438970.080    21438978.0354
  21798521.637   -17784150.780 9 -13828400.79647  21798521.028    21798529.9404
  24050131.588    -4654709.007 8  -3410833.95045  24050131.150    24050144.4764
  20506717.416   -26933037.642 9 -20695495.12447  20506716.585    20506724.5034
  20702322.047   -27011119.957 9 -20659349.38547  20702321.521    20702327.8774
  24320586.813    -2746467.244 7  -2115495.30245  24320586.538    24320597.9904
 01  4 18  0 52  0.0000000  0  9 17 21 29 23 03 09 15 18 31
  21276101.937   -23735985.644 8 -18466341.60847  21276101.322    21276110.1204
  21482402.111   -19022146.152 9 -14534324.59247  21482401.503    21482410.1824
  22921245.492    -8927818.401 8  -6303450.76246  22921245.263    22921261.5584
  21447325.444   -18955790.911 9 -14738201.45747  21447324.686    21447332.5904
  21790917.443   -17824109.668 9 -13859537.55647  21790916.992    21790925.9454
  24041039.461    -4702487.351 7  -3448063.64245  24041038.886    24041052.3644
  20509634.742   -26917707.013 9 -20683549.18147  20509633.916    20509641.7884
  20708787.524   -26977143.444 9 -20632874.18747  20708787.005    20708793.4224
  24303482.453    -2836352.814 7  -2185535.89745  24303481.989    24303493.3094
 01  4 18  0 52 30.0000000  0  9 17 21 29 23 03 09 15 18 31
  21283778.018   -23695647.728 9 -18434909.49247  21283777.408    21283786.1824
  21477207.343   -19049444.592 9 -14555596.04147  21477206.729    21477215.3894
  22902118.045    -9028332.030 8  -6381772.60546  22902117.745    22902133.8744
  21455706.080   -18911750.249 9 -14703884.06447  21455705.354    21455713.1974
  21783414.617   -17863536.907 9 -13890260.02947  21783414.197    21783423.2014
  24032016.625    -4749901.734 7  -3485009.71145  24032016.062    24032029.5334
  20512614.450   -26902048.723 9 -20671347.91747  20512613.593    20512621.5284
  20715299.775   -26942921.177 9 -20606207.48447  20715299.267    20715305.6794
  24286435.607    -2925934.691 7  -2255339.86145  24286435.111    24286446.3134
 01  4 18  0 53  0.0000000  0  9 17 21 29 23 03 09 15 18 31
  21291514.057   -23654994.573 8 -18403231.74647  21291513.442    21291522.2904
  21472052.904   -19076531.318 9 -14576702.51747  21472052.238    21472060.8834
  22883031.283    -9128630.728 8  -6459926.96746  22883031.078    22883047.1114
  21464112.932   -18867571.830 9 -14669459.33047  21464112.194    21464119.9924
  21776013.572   -17902429.089 9 -13920565.58147  21776013.170    21776022.1934
  24023064.060    -4796947.376 7  -3521668.47945  24023063.589    24023076.8584
  20515656.906   -26886060.051 9 -20658889.21147  20515656.087    20515664.0564
  20721858.953   -26908452.270 9 -20579348.59547  20721858.486    20721864.8774
  24269447.375    -3015208.055 7  -2324903.43345  24269446.842    24269458.0314
 01  4 18  0 53 30.0000000  0  9 17 21 29 23 03 09 15 18 31
  21299309.564   -23614029.049 8 -18371310.59447  21299308.975    21299317.8304
  21466937.872   -19103410.102 9 -14597646.96847  21466937.289    21466945.9434
  22863985.529    -9228715.205 8  -6537914.41646  22863985.254    22864001.1334
  21472545.173   -18823259.982 9 -14634930.63047  21472544.387    21472552.2214
  21768714.079   -17940788.056 9 -13950455.64547  21768713.713    21768722.7004
  24014181.383    -4843624.938 7  -3558040.41945  24014180.899    24014194.2384
  20518761.885   -26869743.420 9 -20646174.95147  20518761.057    20518769.0384
  20728464.301   -26873741.295 9 -20552301.08447  20728463.793    20728470.1294
  24252518.051    -3104173.405 7  -2394226.97845  24252517.331    24252528.3934
 01  4 18  0 54  0.0000000  0  9 17 21 29 23 03 09 15 18 31
  21307164.582   -23572750.595 8 -18339145.60147  21307163.957    21307172.8314
  21461862.265   -19130081.947 9 -14618430.16147  21461861.753    21461870.4084
  22844980.911    -9328583.148 8  -6615733.15246  22844980.740    22844996.3864
  21481002.502   -18778816.056 9 -14600299.01247  21481001.752    21481009.6724
  21761516.332   -17978612.440 9 -13979929.15347  21761515.896    21761524.8664
  24005369.395    -4889931.397 8  -3594123.18645  24005368.979    24005382.1944
  20521929.357   -26853098.019 9 -20633204.50847  20521928.535    20521936.5334
  20735115.336   -26838790.061 9 -20525066.35247  20735114.789    20735121.1534
  24235647.879    -3192828.120 7  -2463308.46845  24235646.900    24235657.9464
 01  4 18  0 54 30.0000000  0  9 17 21 29 23 03 09 15 18 31
  21315079.348   -23531158.308 9 -18306736.06247  21315078.728    21315087.6334
  21456826.044   -19156547.021 9 -14639052.22947  21456825.549    21456834.1764
  22826018.063    -9428231.904 8  -6693381.10146  22826017.937    22826033.4054
  21489484.867   -18734240.814 9 -14565565.06447  21489484.150    21489492.1384
  21754420.539   -18015900.565 9 -14008984.78547  21754420.119    21754429.0894
  23996628.782    -4935863.640 8  -3629914.38045  23996628.420    23996641.4474
  20525159.686   -26836122.458 9 -20619976.79547  20525158.858    20525166.8334
  20741811.965   -26803599.156 9 -20497644.86247  20741811.383    20741817.7704
  24218837.113    -3281169.104 7  -2532145.51045  24218836.079    24218847.1774
 01  4 18  0 55  0.0000000  0  9 17 21 29 23 03 09 15 18 31
  21323054.147   -23489250.850 8 -18274080.93647  21323053.517    21323062.3754
  21451829.223   -19182805.319 9 -14659513.17647  21451828.698    21451837.2874
  22807097.719    -9527658.235 8  -6770855.72146  22807097.505    22807112.7494
  21497992.084   -18689534.710 9 -14530729.14647  21497991.450    21497999.5054
  21747427.189   -18052650.190 9 -14037620.81847  21747426.840    21747435.7954
  23987959.880    -4981418.217 8  -3665411.24645  23987959.421    23987972.6514
  20528453.135   -26818815.343 9 -20606490.73447  20528452.308    20528460.3194
  20748554.043   -26768169.066 9 -20470036.99547  20748553.455    20748559.8604
  24202086.450    -3369193.044 7  -2600735.49945  24202085.724    24202096.7744
 01  4 18  0 55 30.0000000  0  9 17 21 29 23 03 09 15 18 31
  21331088.796   -23447028.468 9 -18241180.40947  21331088.215    21331097.0214
  21446871.600   -19208857.504 9 -14679813.50847  21446871.090    21446879.6514
  22788220.106    -9626860.249 8  -6848155.58846  22788219.874    22788234.8224
  21506523.947   -18644699.644 9 -14495792.74247  21506523.324    21506531.4344
  21740536.493   -18088860.863 9 -14065836.88747  21740536.120    21740545.0494
  23979363.218    -5026592.974 7  -3700612.16945  23979362.724    23979375.9334
  20531809.651   -26801176.730 9 -20592746.36247  20531808.815    20531816.8004
  20755341.313   -26732501.943 9 -20442244.42847  20755340.677    20755347.0914
  24185396.897    -3456898.300 8  -2669077.16845  24185395.900    24185406.9774
 01  4 18  0 56  0.0000000  0  9 17 21 29 23 03 09 15 18 31
  21339183.514   -23404490.937 8 -18208034.33247  21339182.921    21339191.7304
  21441953.009   -19234704.475 9 -14699953.93947  21441952.505    21441961.0444
  22769385.631    -9725836.086 8  -6925279.21446  22769385.323    22769400.1794
  21515080.162   -18599736.924 9 -14460756.86147  21515079.470    21515087.6214
  21733748.696   -18124531.262 9 -14093631.96247  21733748.210    21733757.1144
  23970839.242    -5071385.518 8  -3735515.25145  23970838.833    23970852.0794
  20535229.345   -26783206.042 9 -20578743.23547  20535228.527    20535236.5254
  20762173.353   -26696599.295 9 -20414268.32347  20762172.757    20762179.1724
  24168768.419    -3544282.516 7  -2737168.65745  24168767.071    24168778.3154
 01  4 18  0 56 30.0000000  0  9 17 21 29 23 03 09 15 18 31
  21347338.287   -23361637.265 8 -18174641.90547  21347337.676    21347346.5354
  21437073.426   -19260347.084 9 -14719935.12247  21437072.853    21437081.3764
  22750594.674    -9824582.611 8  -7002224.17846  22750594.361    22750608.9864
  21523660.527   -18554647.338 9 -14425622.12747  21523659.760    21523667.9354
  21727063.808   -18159659.712 9 -14121004.74947  21727063.397    21727072.3684
  23962388.891    -5115792.619 8  -3770118.00345  23962388.353    23962401.5954
  20538712.510   -26764902.049 9 -20564480.38747  20538711.666    20538719.6254
  20769050.100   -26660461.997 9 -20386109.38347  20769049.466    20769055.9064
  24152201.181    -3631342.459 7  -2805007.49645  24152199.870    24152211.2144
 01  4 18  0 57  0.0000000  0  9 17 21 29 23 03 09 15 18 31
  21355553.436   -23318466.418 9 -18141002.31447  21355552.858    21355561.7344
  21432232.700   -19285785.264 9 -14739757.00247  21432232.105    21432240.6114
  22731847.879    -9923097.071 8  -7078988.29846  22731847.550    22731861.9294
  21532264.821   -18509431.488 9 -14390389.00547  21532264.064    21532272.2534
  21720482.539   -18194244.606 9 -14147953.97147  21720482.113    21720491.0514
  23954012.325    -5159811.166 8  -3804418.00645  23954011.764    23954024.9084
  20542259.315   -26746263.281 9 -20549956.66847  20542258.520    20542266.4734
  20775971.251   -26624090.914 9 -20357768.27047  20775970.655    20775977.1724
  24135695.893    -3718075.007 7  -2872591.20045  24135695.096    24135706.5594
 01  4 18  0 57 30.0000000  0  9 17 21 29 23 03 09 15 18 31
  21363829.061   -23274978.009 8 -18107115.29147  21363828.479    21363837.3544
  21427430.745   -19311019.953 9 -14759420.32047  21427430.079    21427438.5224
  22713145.493   -10021377.409 8  -7155569.99746  22713145.197    22713159.5084
  21540892.914   -18464090.714 9 -14355058.53647  21540892.190    21540900.2914
  21714004.768   -18228284.730 9 -14174478.71847  21714004.428    21714013.4244
  23945710.068    -5203438.470 8  -3838413.10745  23945709.660    23945722.7344
  20545869.956   -26727289.152 9 -20535171.63147  20545869.131    20545877.0984
  20782936.503   -26587487.646 9 -20329246.23447  20782936.003    20782942.5904
  24119254.109    -3804477.585 8  -2939917.76645  24119252.969    24119264.7774
 01  4 18  0 58  0.0000000  0  9 17 21 29 23 03 09 15 18 31
  21372164.862   -23231173.133 8 -18072981.66247  21372164.239    21372173.1714
  21422667.034   -19336052.975 9 -14778926.49047  21422666.427    21422674.8634
  22694487.963   -10119422.495 8  -7231968.39046  22694487.674    22694501.7414
  21549544.344   -18418627.571 9 -14319632.71047  21549543.591    21549551.5924
  21707630.748   -18261780.297 9 -14200579.12347  21707630.420    21707639.4074
  23937482.724    -5246673.333 8  -3872102.41845  23937482.296    23937495.4094
  20549544.306   -26707980.293 9 -20520125.75647  20549543.507    20549551.4684
  20789945.623   -26550654.666 9 -20300545.19947  20789945.051    20789951.6474
  24102875.158    -3890548.929 7  -3006986.24445  24102873.979    24102885.8754
 01  4 18  0 58 30.0000000  0  9 17 21 29 23 03 09 15 18 31
  21380561.154   -23187050.464 8 -18038600.40247  21380560.536    21380569.4394
  21417941.774   -19360884.123 9 -14798275.35947  21417941.138    21417949.5834
  22675875.599   -10217229.232 8  -7308181.06646  22675875.319    22675889.2004
  21558219.008   -18373042.196 9 -14284111.64347  21558218.236    21558226.1464
  21701360.824   -18294729.210 9 -14226253.57347  21701360.411    21701369.3904
  23929330.605    -5289512.269 7  -3905483.24645  23929330.070    23929343.2174
  20553282.614   -26688335.277 9 -20504817.95347  20553281.799    20553289.8164
  20796998.318   -26513592.409 9 -20271665.51547  20796997.728    20797004.2974
  24086559.559    -3976285.890 7  -3073794.18645  24086558.553    24086570.4834
 01  4 18  0 59  0.0000000  0  9 17 21 29 23 03 09 15 18 31
  21389018.122   -23142608.887 8 -18003970.65047  21389017.551    21389026.4494
  21413255.028   -19385512.981 9 -14817466.59547  21413254.342    21413262.7754
  22657309.302   -10314794.570 8  -7384205.63646  22657308.992    22657322.7554
  21566916.771   -18327335.329 9 -14248495.90847  21566915.945    21566923.8174
  21695195.196   -18327129.856 9 -14251500.80047  21695194.769    21695203.7144
  23921254.189    -5331952.275 8  -3938553.19545  23921253.801    23921266.8544
  20557085.189   -26668352.683 9 -20489247.09447  20557084.397    20557092.3414
  20804094.443   -26476301.915 9 -20242607.97547  20804093.895    20804100.3874
  24070308.726    -4061685.434 8  -3140339.18145  24070307.533    24070319.3194
 01  4 18  0 59 30.0000000  0  9 17 21 29 23 03 09 15 18 31
  21397535.660   -23097849.196 8 -17969093.00847  21397535.035    21397543.9554
  21408606.362   -19409941.837 9 -14836501.98947  21408605.641    21408614.0494
  22638789.052   -10412117.473 8  -7460041.28646  22638788.673    22638802.3364
  21575637.171   -18281509.035 9 -14212787.12347  21575636.348    21575644.2314
  21689133.932   -18358982.045 9 -14276320.65547  21689133.465    21689142.4284
  23913254.287    -5373991.553 8  -3971310.91345  23913253.929    23913266.9174
  20560951.941   -26648032.709 9 -20473413.34647  20560951.120    20560959.1234
  20811233.683   -26438785.406 9 -20213374.32847  20811233.033    20811239.4544
  24054122.454    -4146745.945 7  -3206619.97545  24054121.009    24054132.7384
 01  4 18  1  0  0.0000000  0  9 17 21 29 23 03 09 15 18 31
  21406113.861   -23052770.429 8 -17933966.74447  21406113.266    21406122.1774
  21403995.755   -19434170.738 9 -14855381.57547  21403994.983    21404003.3734
  22620315.544   -10509194.855 8  -7535685.62046  22620315.133    22620328.7184
  21584380.117   -18235563.942 9 -14176985.76447  21584379.315    21584387.2644
  21683177.272   -18390284.095 9 -14300711.84347  21683176.849    21683185.8644
  23905331.288    -5415627.096 8  -4003754.01945  23905330.815    23905343.9304
  20564883.059   -26627374.394 9 -20457315.95847  20564882.248    20564890.2944
  20818415.736   -26401043.657 9 -20183965.17047  20818415.051    20818421.4544
  24038000.696    -4231464.205 7  -3272634.09845  24037999.550    24038011.5254
 01  4 18  1  0 30.0000000  0  9 17 21 29 23 03 09 15 18 31
  21414753.032   -23007371.736 8 -17898591.18147  21414752.375    21414761.2784
  21399423.257   -19458199.630 9 -14874105.31247  21399422.428    21399430.7644
  22601889.047   -10606024.297 8  -7611136.76446  22601888.659    22601902.2534
  21593145.478   -18189501.041 9 -14141092.60647  21593144.737    21593152.7754
  21677325.643   -18421034.773 9 -14324673.38847  21677325.240    21677334.2324
  23897485.481    -5456855.920 8  -4035880.24245  23897485.026    23897498.0314
  20568878.712   -26606376.793 9 -20440954.19047  20568877.902    20568885.9484
  20825640.281   -26363077.769 9 -20154381.36247  20825639.680    20825646.1104
  24021944.756    -4315837.416 7  -3338379.35145  24021943.765    24021955.7594
 01  4 18  1  1  0.0000000  0  9 17 21 29 23 03 09 15 18 31
  21423453.041   -22961652.617 8 -17862965.95547  21423452.472    21423461.3994
  21394888.727   -19482029.116 9 -14892673.67147  21394887.817    21394896.0914
  22583510.300   -10702603.159 8  -7686392.66046  22583509.992    22583523.3804
  21601933.132   -18143321.060 9 -14105108.22547  21601932.443    21601940.5214
  21671579.151   -18451232.780 9 -14348204.28747  21671578.718    21671587.7134
  23889717.755    -5497675.243 7  -4067687.35745  23889717.273    23889730.0164
  20572939.225   -26585038.885 9 -20424327.24947  20572938.391    20572946.4164
  20832907.429   -26324888.696 9 -20124623.65247  20832906.809    20832913.2214
  24005955.043    -4399862.617 7  -3403853.43945  24005954.263    24005966.1714
 01  4 18  1  1 30.0000000  0  9 17 21 29 23 03 09 15 18 31
  21432213.957   -22915614.055 8 -17827091.79347  21432213.377    21432222.2864
  21390391.565   -19505661.547 9 -14911088.48247  21390390.681    21390398.9194
  22565179.512   -10798930.564 8  -7761452.60446  22565179.192    22565192.4464
  21610742.731   -18097026.574 9 -14069034.61247  21610742.044    21610750.0504
  21665937.726   -18480878.432 9 -14371304.77547  21665937.344    21665946.2804
  23882027.942    -5538084.041 8  -4099174.55845  23882027.507    23882040.3364
  20577064.251   -26563361.284 9 -20407435.62647  20577063.455    20577071.5424
  20840216.513   -26286479.278 9 -20094694.23647  20840215.899    20840222.2424
  23990032.008    -4483539.409 8  -3469056.03245  23990030.977    23990042.7384
 01  4 18  1  2  0.0000000  0  9 17 21 29 23 03 09 15 18 31
  21441035.811   -22869254.891 8 -17790967.80947  21441035.260    21441044.1614
  21385931.837   -19529096.565 9 -14929349.46247  21385931.048    21385939.2864
  22546897.084   -10895003.431 8  -7836314.20346  22546896.779    22546909.8604
  21619574.179   -18050617.857 9 -14032871.98247  21619573.441    21619581.3414
  21660401.846   -18509969.830 9 -14393973.37747  21660401.456    21660410.3174
  23874417.107    -5578078.995 7  -4130339.30945  23874416.746    23874429.4704
  20581254.352   -26541342.624 9 -20390278.22347  20581253.525    20581261.5184
  20847567.378   -26247850.052 9 -20064593.54047  20847566.840    20847573.1414
  23974175.599    -4566863.867 8  -3533984.09045  23974174.814    23974186.4614
 01  4 18  1  2 30.0000000  0  9 17 21 29 23 03 09 15 18 31
  21449918.692   -22822574.885 8 -17754593.82447  21449918.150    21449927.1114
  21381509.517   -19552334.927 9 -14947457.20847  21381508.810    21381517.0734
  22528663.599   -10990819.684 8  -7910975.84146  22528663.301    22528676.1694
  21628426.950   -18004096.348 9 -13996621.47147  21628426.202    21628434.0844
  21654971.575   -18538506.284 9 -14416209.55547  21654971.136    21654979.9174
  23866885.260    -5617657.888 8  -4161179.85345  23866884.870    23866897.4954
  20585509.347   -26518982.390 9 -20372854.67447  20585508.499    20585516.5624
  20854959.751   -26209002.438 9 -20034322.68147  20854959.222    20854965.5974
  23958386.812    -4649833.579 8  -3598635.71145  23958386.194    23958397.6914
 01  4 18  1  3  0.0000000  0  9 17 21 29 23 03 09 15 18 31
  21458862.875   -22775573.385 8 -17717969.31347  21458862.289    21458871.2364
  21377124.626   -19575377.150 9 -14965412.13247  21377123.905    21377132.1634
  22510479.438   -11086376.572 8  -7985435.36746  22510479.130    22510491.8614
  21637300.998   -17957462.715 9 -13960283.59447  21637300.249    21637308.1984
  21649647.099   -18566486.433 9 -14438012.25747  21649646.692    21649655.3864
  23859433.330    -5656817.740 8  -4191693.88545  23859432.978    23859445.4284
  20589829.545   -26496279.545 9 -20355164.15047  20589828.728    20589836.7194
  20862393.455   -26169937.435 9 -20003882.43547  20862392.946    20862399.4364
  23942666.115    -4732445.918 7  -3663008.87145  23942665.548    23942676.8444
 01  4 18  1  3 30.0000000  0  9 17 21 29 23 03 09 15 18 31
  21467868.051   -22728250.983 8 -17681094.75347  21467867.455    21467876.4534
  21372776.811   -19598224.936 9 -14983215.54447  21372776.045    21372784.3164
  22492344.697   -11181673.055 8  -8059691.98246  22492344.375    22492357.2504
  21646196.034   -17910718.951 9 -13923859.90047  21646195.291    21646203.3154
  21644428.565   -18593910.157 9 -14459381.36547  21644428.094    21644436.7784
  23852061.641    -5695556.963 8  -4221880.14345  23852061.212    23852073.5764
  20594214.889   -26473234.404 9 -20337206.90747  20594214.072    20594222.0854
  20869868.192   -26130657.267 9 -19973274.52547  20869867.711    20869874.2444
  23927013.463    -4814699.527 7  -3727102.48845  23927013.144    23927024.3644
 01  4 18  1  4  0.0000000  0  9 17 21 29 23 03 09 15 18 31
  21476934.430   -22680606.710 8 -17643969.38947  21476933.868    21476942.8794
  21368465.915   -19620877.974 9 -15000867.20947  21368465.220    21368473.4964
  22474259.933   -11276706.142 8  -8133743.35246  22474259.685    22474272.7264
  21655111.964   -17863865.599 9 -13887350.81147  21655111.228    21655119.2704
  21639316.062   -18620776.135 9 -14480315.87947  21639315.624    21639324.3104
  23844770.106    -5733872.399 8  -4251736.16645  23844769.760    23844782.3884
  20598665.616   -26449845.812 9 -20318982.03747  20598664.791    20598672.7854
  20877383.933   -26091162.357 9 -19942499.27747  20877383.418    20877389.9104
  23911430.370    -4896591.125 8  -3790914.01345  23911429.721    23911440.7564
 01  4 18  1  4 30.0000000  0  9 17 21 29 23 03 09 15 18 31
  21486062.185   -22632640.278 8 -17606592.99747  21486061.579    21486070.6244
  21364191.878   -19643337.284 9 -15018367.92047  21364191.288    21364199.5454
  22456225.898   -11371473.601 8  -8207587.74246  22456225.619    22456238.7454
  21664048.566   -17816903.722 9 -13850757.15947  21664047.792    21664055.8134
  21634310.015   -18647083.259 9 -14500814.91447  21634309.569    21634318.1924
  23837559.878    -5771761.653 8  -4281260.16045  23837559.600    23837571.7254
  20603181.835   -26426112.924 9 -20300488.88547  20603181.034    20603188.9784
  20884940.285   -26051454.317 9 -19911557.95747  20884939.667    20884946.0864
  23895916.249    -4978118.297 8  -3854441.58745  23895915.512    23895926.4604
 01  4 18  1  5  0.0000000  0  9 17 21 29 23 03 09 15 18 31
  21495251.288   -22584351.125 8 -17568965.13347  21495250.668    21495259.7274
  21359954.789   -19665602.887 9 -15035717.68847  21359954.221    21359962.4444
  22438242.841   -11465973.065 8  -8281223.30646  22438242.569    22438255.7714
  21673005.596   -17769834.342 9 -13814079.73547  21673004.791    21673012.7824
  21629410.373   -18672830.777 9 -14520877.89647  21629409.931    21629418.5794
  23830431.250    -5809222.151 7  -4310450.01145  23830431.037    23830443.1554
  20607763.706   -26402035.032 9 -20281726.89247  20607762.893    20607770.8394
  20892536.914   -26011534.266 9 -19880451.42947  20892536.268    20892542.5794
  23880472.172    -5059278.254 8  -3917682.99345  23880471.274    23880482.0844
 01  4 18  1  5 30.0000000  0  9 17 21 29 23 03 09 15 18 31
  21504501.978   -22535738.703 8 -17531085.37447  21504501.343    21504510.4384
  21355754.500   -19687675.532 9 -15052917.10447  21355753.889    21355762.0954
  22420311.490   -11560201.721 8  -8354647.86046  22420311.162    22420324.2124
  21681982.839   -17722658.078 9 -13777319.02947  21681982.086    21681990.0764
  21624617.468   -18698017.481 9 -14540503.88047  21624617.059    21624625.6824
  23823384.550    -5846251.325 8  -4339303.74345  23823384.373    23823396.5494
  20612411.400   -26377611.135 9 -20262695.30147  20612410.625    20612418.5914
  20900173.624   -25971403.139 9 -19849180.42947  20900173.001    20900179.2574
  23865098.208    -5140068.140 8  -3980636.02245  23865097.347    23865108.0474
 01  4 18  1  6  0.0000000  0  9 17 21 29 23 03 09 15 18 31
  21513814.013   -22486803.627 8 -17492954.19947  21513813.387    21513822.5204
  21351590.628   -19709556.725 9 -15069967.34147  21351589.992    21351598.1944
  22402431.833   -11654158.505 8  -8427860.57646  22402431.510    22402444.4914
  21690980.157   -17675376.832 9 -13740476.50947  21690979.417    21690987.4354
  21619931.363   -18722643.195 9 -14559692.72747  21619930.933    21619939.5744
  23816420.512    -5882847.509 8  -4367820.12045  23816420.306    23816432.4714
  20617124.912   -26352841.385 9 -20243394.20347  20617124.132    20617132.1264
  20907850.058   -25931063.058 9 -19817746.60647  20907849.407    20907855.6994
  23849795.196    -5220486.335 8  -4043299.42045  23849794.092    23849804.9164
 01  4 18  1  6 30.0000000  0  9 17 21 29 23 03 09 15 18 31
  21523187.648   -22437545.111 8 -17454571.00047  21523187.017    21523196.1304
  21347463.017   -19731246.850 9 -15086868.69247  21347462.419    21347470.6194
  22384604.498   -11747840.693 8  -8500859.33246  22384604.152    22384617.0404
  21699997.342   -17627991.249 9 -13703552.69647  21699996.605    21700004.6574
  21615352.359   -18746706.716 9 -14578443.49647  21615351.853    21615360.5024
  23809539.416    -5919007.951 7  -4395996.97745  23809538.920    23809551.1054
  20621904.450   -26327724.745 9 -20223822.80247  20621903.673    20621911.6394
  20915566.065   -25890514.906 9 -19786150.65947  20915565.425    20915571.7674
  23834563.088    -5300530.122 7  -4105671.07045  23834562.116    23834572.9844
 01  4 18  1  7  0.0000000  0  9 17 21 29 23 03 09 15 18 31
  21532622.849   -22387962.780 8 -17415935.46747  21532622.256    21532631.3284
  21343371.691   -19752746.244 9 -15103621.42047  21343371.152    21343379.3554
  22366829.730   -11841246.155 8  -8573642.45746  22366829.417    22366842.1534
  21709034.121   -17580502.311 9 -13666548.34847  21709033.429    21709041.5684
  21610880.429   -18770207.025 9 -14596755.40147  21610879.869    21610888.5764
  23802741.463    -5954729.995 7  -4423832.19845  23802741.026    23802753.3644
  20626750.082   -26302260.769 9 -20203980.75847  20626749.279    20626757.2664
  20923321.389   -25849759.751 9 -19754393.40547  20923320.826    20923327.2484
  23819402.900    -5380196.843 8  -4167748.89145  23819401.951    23819412.8204
 01  4 18  1  7 30.0000000  0  9 17 21 29 23 03 09 15 18 31
  21542119.741   -22338056.984 8 -17377047.89847  21542119.061    21542128.2064
  21339316.506   -19774055.987 9 -15120226.36847  21339316.029    21339324.2374
  22349108.054   -11934373.133 8  -8646208.59346  22349107.775    22349120.4004
  21718090.301   -17532911.535 9 -13629464.65247  21718089.659    21718097.7944
  21606515.447   -18793144.155 9 -14614628.46347  21606515.011    21606523.7274
  23796027.283    -5990011.792 8  -4451324.37145  23796026.914    23796039.3614
  20631661.866   -26276449.348 9 -20183867.98047  20631661.078    20631669.0404
  20931115.877   -25808799.461 9 -19722476.30647  20931115.320    20931121.7504
  23804314.949    -5459484.841 8  -4229531.59945  23804313.707    23804324.6754
 01  4 18  1  8  0.0000000  0  9 17 21 29 23 03 09 15 18 31
  21551678.225   -22287826.756 8 -17337907.53247  21551677.614    21551686.7364
  21335297.440   -19795176.124 9 -15136683.57247  21335296.931    21335305.1634
  22331439.958   -12027218.797 8  -8718555.52446  22331439.626    22331452.0154
  21727165.852   -17485219.398 9 -13592301.96647  21727165.197    21727173.2534
  21602258.073   -18815516.501 9 -14632061.43147  21602257.609    21602266.2854
  23789397.699    -6024850.736 7  -4478471.49345  23789397.363    23789409.4804
  20636639.993   -26250289.001 9 -20163483.30847  20636639.192    20636647.1474
  20938949.300   -25767634.784 9 -19690399.94447  20938948.737    20938955.1904
  23789299.258    -5538391.080 8  -4291016.84945  23789298.182    23789309.3214
 01  4 18  1  8 30.0000000  0  9 17 21 29 23 03 09 15 18 31
  21561298.657   -22237271.446 8 -17298513.83447  21561298.034    21561307.1174
  21331314.453   -19816106.967 9 -15152993.27647  21331313.869    21331322.1154
  22313825.914   -12119780.557 8  -8790681.24646  22313825.551    22313837.8014
  21736260.661   -17437426.409 9 -13555060.69547  21736259.910    21736267.8714
  21598108.234   -18837323.168 9 -14649053.61447  21598107.861    21598116.5894
  23782852.708    -6059244.133 7  -4505271.39145  23782852.264    23782864.4244
  20641684.715   -26223778.789 9 -20142826.01247  20641683.910    20641691.8464
  20946821.436   -25726266.539 9 -19658164.95947  20946820.828    20946827.3284
  23774356.815    -5616912.503 7  -4352202.23245  23774355.837    23774367.2204
 01  4 18  1  9  0.0000000  0  9 17 21 29 23 03 09 15 18 31
  21570980.851   -22186391.317 8 -17258867.05247  21570980.241    21570989.3824
  21327367.322   -19836849.549 9 -15169156.28247  21327366.691    21327374.8874
  22296266.159   -12212056.526 8  -8862584.28446  22296265.797    22296277.8664
  21745374.232   -17389534.214 9 -13517742.12547  21745373.501    21745381.4944
  21594066.233   -18858564.102 9 -14665604.94847  21594065.799    21594074.5614
  23776392.796    -6093190.107 8  -4531722.66345  23776392.506    23776404.5854
  20646796.018   -26196918.637 9 -20121896.03847  20646795.211    20646803.2064
  20954731.861   -25684696.465 9 -19625772.70647  20954731.292    20954737.8624
  23759488.109    -5695047.439 8  -4413086.47145  23759487.229    23759498.6224
 01  4 18  1  9 30.0000000  0  9 17 21 29 23 03 09 15 18 31
  21580724.846   -22135186.514 8 -17218967.27447  21580724.246    21580733.3794
  21323455.842   -19857404.902 9 -15185173.39547  21323455.139    21323463.2614
  22278760.863   -12304045.147 8  -8934263.40446  22278760.566    22278772.5794
  21754506.421   -17341544.237 9 -13480347.36747  21754505.699    21754513.7724
  21590131.944   -18879238.751 9 -14681715.03647  21590131.493    21590140.3024
  23770018.717    -6126686.679 7  -4557823.77145  23770018.209    23770030.2764
  20651973.908   -26169708.524 9 -20100693.36547  20651973.107    20651981.0944
  20962680.447   -25642926.188 9 -19593224.45547  20962679.909    20962686.4744
  23744693.758    -5772793.706 8  -4473667.84445  23744692.552    23744703.9464
 01  4 18  1 10  0.0000000  0  9 17 21 29 23 03 09 15 18 31
  21590530.714   -22083656.294 8 -17178813.93447  21590530.097    21590539.2684
  21319579.739   -19877773.628 9 -15201045.08447  21319579.033    21319587.1364
  22261310.795   -12395743.889 8  -9005716.67146  22261310.506    22261322.5884
  21763657.155   -17293456.970 9 -13442876.79947  21763656.414    21763664.5924
  21586305.653   -18899346.120 9 -14697383.08047  21586305.192    21586314.0814
  23763730.250    -6159730.922 7  -4583572.40645  23763729.922    23763742.0014
  20657218.581   -26142147.446 9 -20079217.22047  20657217.796    20657225.7714
  20970667.136   -25600956.347 9 -19560520.70147  20970666.540    20970673.0064
  23729973.459    -5850148.341 8  -4533944.06945  23729972.522    23729983.7814
 01  4 18  1 10 30.0000000  0  9 17 21 29 23 03 09 15 18 31
  21600398.646   -22031800.394 8 -17138406.80547  21600398.075    21600407.1944
  21315738.983   -19897956.383 9 -15216771.86247  21315738.332    21315746.4634
  22243916.529   -12487150.248 8  -9076942.10446  22243916.238    22243928.1744
  21772826.174   -17245273.289 9 -13405331.10447  21772825.466    21772833.6344
  21582587.410   -18918885.475 9 -14712608.52547  21582586.956    21582595.8514
  23757528.697    -6192320.736 7  -4608966.95445  23757528.426    23757540.3024
  20662530.295   -26114234.442 9 -20057466.83747  20662529.469    20662537.4574
  20978691.531   -25558788.196 9 -19527662.40947  20978690.944    20978697.3154
  23715328.095    -5927108.978 8  -4593913.28845  23715327.390    23715338.5644
 01  4 18  1 11  0.0000000  0  9 17 21 29 23 03 09 15 18 31
  21610328.475   -21979619.041 8 -17097746.08247  21610327.871    21610337.0164
  21311933.496   -19917954.166 9 -15232354.50347  21311932.836    21311941.0034
  22226578.332   -12578262.689 8  -9147938.52246  22226577.961    22226589.7964
  21782013.217   -17196994.698 9 -13367711.45347  21782012.576    21782020.6864
  21578977.279   -18937856.648 9 -14727391.22747  21578976.865    21578985.7034
  23751413.677    -6224454.508 8  -4634006.10145  23751413.249    23751425.3864
  20667908.843   -26085969.769 9 -20035442.43347  20667908.055    20667916.0494
  20986753.225   -25516423.648 9 -19494651.08947  20986752.633    20986758.9784
  23700758.004    -6003674.195 8  -4653574.39545  23700757.377    23700768.5564
 01  4 18  1 11 30.0000000  0  9 17 21 29 23 03 09 15 18 31
  21620320.290   -21927111.900 8 -17056831.49247  21620319.684    21620328.8774
  21308163.223   -19937767.106 9 -15247793.11947  21308162.526    21308170.7094
  22209296.230   -12669078.915 8  -9218704.12846  22209295.915    22209307.7064
  21791218.260   -17148621.956 9 -13330018.42947  21791217.624    21791225.6224
  21575475.399   -18956258.841 9 -14741730.56247  21575474.960    21575483.8224
  23745385.968    -6256129.797 8  -4658688.04345  23745385.601    23745397.5964
  20673354.555   -26057352.429 9 -20013143.22247  20673353.735    20673361.8164
  20994852.080   -25473863.575 9 -19461487.40947  20994851.517    20994857.8714
  23686263.944    -6079840.850 8  -4712924.93045  23686263.232    23686274.4414
 01  4 18  1 12  0.0000000  0  9 17 21 29 23 03 09 15 18 31
  21630374.164   -21874278.641 8 -17015662.78847  21630373.534    21630382.8414
  21304428.149   -19957395.736 9 -15263088.11347  21304427.312    21304435.4984
  22192070.920   -12759596.712 8  -9289237.19346  22192070.680    22192082.4014
  21800441.162   -17100155.806 9 -13292252.61447  21800440.459    21800448.4064
  21572081.838   -18974091.332 9 -14755625.98147  21572081.429    21572090.3184
  23739446.191    -6287344.023 7  -4683010.70045  23739445.834    23739457.5934
  20678867.455   -26028381.824 9 -19990568.73447  20678866.649    20678874.7384
  21002988.026   -25431108.774 9 -19428171.98847  21002987.474    21002993.8274
  23671845.693    -6155606.467 8  -4771962.99645  23671845.432    23671856.6904
 01  4 18  1 12 30.0000000  0  9 17 21 29 23 03 09 15 18 31
  21640490.157   -21821118.725 8 -16974239.53247  21640489.571    21640498.8494
  21300727.977   -19976840.365 9 -15278239.73747  21300727.084    21300735.2484
  22174903.082   -12849813.553 8  -9359535.77446  22174902.794    22174914.3924
  21809681.625   -17051596.900 9 -13254414.52947  21809680.922    21809688.9264
  21568796.859   -18991353.622 9 -14769077.08347  21568796.473    21568805.3094
  23733594.333    -6318094.856 8  -4706972.26145  23733593.925    23733605.9184
  20684447.769   -25999057.305 9 -19967718.46847  20684446.965    20684454.9934
  21011160.782   -25388160.516 9 -19394705.82847  21011160.257    21011166.6304
  23657504.944    -6230968.628 8  -4830686.64945  23657504.281    23657515.6214
 01  4 18  1 13  0.0000000  0  9 17 21 29 23 03 09 15 18 31
  21650668.223   -21767632.782 8 -16932562.24447  21650667.645    21650676.9804
  21297062.332   -19996102.952 9 -15293249.50747  21297061.501    21297069.6194
  22157792.624   -12939728.068 8  -9429598.76546  22157792.370    22157803.9154
  21818939.469   -17002946.925 9 -13216505.48847  21818938.713    21818946.8634
  21565620.418   -19008045.690 9 -14782083.86447  21565620.052    21565628.8504
  23727830.960    -6348380.753 8  -4730571.54645  23727830.574    23727842.4664
  20690095.376   -25969379.032 9 -19944592.55647  20690094.556    20690102.6364
  21019369.920   -25345020.685 9 -19361090.39447  21019369.443    21019375.9404
  23643240.932    -6305925.628 8  -4889094.62045  23643240.335    23643251.7404
 01  4 18  1 13 30.0000000  0  9 17 21 29 23 03 09 15 18 31
  21660908.312   -21713820.951 8 -16890631.00447  21660907.706    21660917.0864
  21293431.334   -20015183.604 9 -15308117.50847  21293430.545    21293438.6114
  22140740.202   -13029338.623 8  -9499424.91146  22140739.895    22140751.2904
  21828214.291   -16954207.300 9 -13178526.58847  21828213.522    21828221.7734
  21562552.672   -19024167.308 9 -14794646.13647  21562552.206    21562560.9964
  23722156.512    -6378200.082 7  -4753807.27245  23722156.063    23722168.0164
  20695810.235   -25939346.979 9 -19921190.96847  20695809.439    20695817.5184
  21027615.325   -25301690.755 9 -19327326.82447  21027614.835    21027621.4654
  23629054.543    -6380475.815 8  -4947185.57945  23629053.746    23629065.2544
 01  4 18  1 14  0.0000000  0  9 17 21 29 23 03 09 15 18 31
  21671210.721   -21659682.055 8 -16848444.90547  21671210.063    21671219.4444
  21289834.842   -20034082.826 9 -15322844.13847  21289834.105    21289842.1434
  22123746.161   -13118641.977 8  -9569011.68746  22123745.850    22123757.2014
  21837506.170   -16905377.758 9 -13140477.62347  21837505.459    21837513.7104
  21559593.475   -19039717.137 9 -14806762.86147  21559593.094    21559601.8914
  23716571.373    -6407549.538 8  -4776676.86545  23716570.910    23716582.7624
  20701592.829   -25908959.297 9 -19897512.26647  20701592.036    20701600.0834
  21035896.873   -25258170.930 9 -19293415.28947  21035896.372    21035903.0724
  23614946.028    -6454615.366 8  -5004956.57045  23614945.403    23614956.8174
 01  4 18  1 14 30.0000000  0  9 17 21 29 23 03 09 15 18 31
  21681575.228   -21605216.406 8 -16806004.19246  21681574.568    21681583.9324
  21286272.789   -20052800.972 9 -15337429.67247  21286272.091    21286280.1234
  22106810.806   -13207636.624 8  -9638357.91746  22106810.534    22106821.8364
  21846815.002   -16856459.893 9 -13102359.82847  21846814.265    21846822.3894
  21556743.164   -19054695.444 9 -14818434.24847  21556742.798    21556751.6184
  23711075.993    -6436427.500 8  -4799179.08745  23711075.544    23711087.4284
  20707443.043   -25878216.163 9 -19873556.58947  20707442.246    20707450.3064
  21044214.205   -25214463.099 9 -19259357.25147  21044213.704    21044220.3754
  23600916.300    -6528342.434 8  -5062406.13745  23600915.416    23600926.9144
 01  4 18  1 15  0.0000000  0  9 17 21 29 23 03 09 15 18 31
  21692001.976   -21550423.847 8 -16763308.74346  21692001.320    21692010.6484
  21282745.057   -20071339.052 9 -15351874.90447  21282744.363    21282752.3844
  22089934.586   -13296320.373 8  -9707461.88646  22089934.278    22089945.5994
  21856140.460   -16807454.458 9 -13064173.79747  21856139.739    21856147.7714
  21554001.840   -19069101.448 9 -14829659.69047  21554001.375    21554010.2354
  23705670.633    -6464831.820 8  -4821312.22545  23705670.266    23705682.3354
  20713360.988   -25847117.021 9 -19849323.50847  20713360.209    20713368.2884
  21052567.140   -25170568.334 9 -19225153.55947  21052566.651    21052573.2724
  23586965.288    -6601654.802 8  -5119532.55845  23586964.474    23586975.7994
 01  4 18  1 15 30.0000000  0  9 17 21 29 23 03 09 15 18 31
  21702490.980   -21495303.964 8 -16720358.25046  21702490.298    21702499.7344
  21279251.571   -20089697.570 9 -15366180.20847  21279250.861    21279258.8494
  22073117.921   -13384690.832 8  -9776321.74146  22073117.709    22073128.9314
  21865482.420   -16758362.089 9 -13025920.03447  21865481.742    21865489.7074
  21551369.382   -19082934.659 9 -14840438.79747  21551368.968    21551377.7964
  23700355.924    -6492760.254 8  -4843074.53945  23700355.645    23700367.4974
  20719346.876   -25815660.988 9 -19824812.32447  20719346.105    20719354.1774
  21060955.443   -25126487.404 9 -19190804.79747  21060954.954    21060961.5524
  23573093.453    -6674550.040 8  -5176333.94245  23573092.907    23573104.0704
 01  4 18  1 16  0.0000000  0  9 17 21 29 23 03 09 15 18 31
  21713042.141   -21439856.981 8 -16677152.87946  21713041.494    21713050.9964
  21275792.160   -20107877.170 9 -15380346.09647  21275791.406    21275799.3454
  22056361.366   -13472746.367 8  -9844936.21246  22056361.119    22056372.2344
  21874840.660   -16709184.018 9 -12987599.49147  21874840.043    21874848.0674
  21548845.979   -19096195.187 9 -14850771.66047  21548845.535    21548854.3804
  23695132.118    -6520211.255 8  -4864464.82545  23695131.702    23695143.7624
  20725400.727   -25783847.897 9 -19800022.91847  20725399.954    20725407.9834
  21069378.882   -25082221.715 9 -19156312.07447  21069378.403    21069384.9374
  23559301.710    -6747025.997 8  -5232808.60545  23559301.116    23559312.1114
 01  4 18  1 16 30.0000000  0  9 17 21 29 23 03 09 15 18 31
  21723655.933   -21384081.464 8 -16633691.49146  21723655.286    21723664.7044
  21272366.825   -20125877.376 9 -15394372.19847  21272366.048    21272373.9854
  22039665.314   -13560483.609 8  -9913302.65946  22039665.097    22039676.1914
  21884215.466   -16659919.848 9 -12949211.86147  21884214.733    21884222.8634
  21546431.842   -19108881.015 9 -14860656.72147  21546431.446    21546440.3054
  23689999.839    -6547181.280 8  -4885480.34045  23689999.335    23690011.2174
  20731522.847   -25751676.079 9 -19774953.98047  20731522.046    20731530.0804
  21077837.553   -25037771.141 9 -19121675.28747  21077837.127    21077843.5494
  23545590.497    -6819079.081 8  -5288953.74945  23545589.748    23545600.6024
 01  4 18  1 17  0.0000000  0  9 17 21 29 23 03 09 15 18 31
  21734331.525   -21327980.760 8 -16589976.71246  21734330.916    21734340.3184
  21268974.786   -20143702.453 9 -15408261.83747  21268974.036    21268981.9704
  22023029.683   -13647903.732 8  -9981422.00246  22023029.414    22023040.5184
  21893605.692   -16610573.751 9 -12910760.39247  21893604.973    21893613.1804
  21544126.457   -19120995.617 9 -14870096.66947  21544126.132    21544134.9254
  23684958.869    -6573671.681 8  -4906122.13745  23684958.404    23684970.1454
  20737712.657   -25719148.515 9 -19749607.84947  20737711.841    20737719.9294
  21086330.633   -24993140.249 9 -19086897.98547  21086330.167    21086336.5284
  23531959.274    -6890710.779 8  -5344770.54945  23531958.524    23531969.3794
 01  4 18  1 17 30.0000000  0  9 17 21 29 23 03 09 15 18 31
  21745069.635   -21271551.602 8 -16546006.02146  21745069.002    21745078.5174
  21265616.655   -20161349.329 9 -15422012.61847  21265615.911    21265623.8554
  22006455.088   -13735001.964 8 -10049290.51946  22006454.849    22006466.0644
  21903011.855   -16561143.476 9 -12872243.33747  21903011.211    21903019.4304
  21541930.656   -19132535.501 9 -14879088.78347  21541930.192    21541939.0004
  23680010.086    -6599677.514 8  -4926386.33845  23680009.629    23680021.2654
  20743970.840   -25686261.539 9 -19723981.65347  20743970.048    20743978.1214
  21094858.315   -24948327.208 9 -19051978.76447  21094857.754    21094864.2164
  23518409.002    -6961915.712 8  -5400254.81045  23518408.515    23518419.3134
 01  4 18  1 18  0.0000000  0  9 17 21 29 23 03 09 15 18 31
  21755870.136   -21214794.403 8 -16501779.69046  21755869.564    21755879.0444
  21262292.194   -20178819.284 9 -15435625.53847  21262291.432    21262299.4264
  21989942.268   -13821776.447 8 -10116906.77946  21989942.040    21989953.2484
  21912433.874   -16511630.319 9 -12833661.69147  21912433.238    21912441.4104
  21539844.056   -19143500.457 9 -14887632.90547  21539843.627    21539852.4184
  23675153.831    -6625197.183 8  -4946271.71945  23675153.442    23675164.9494
  20750297.425   -25653015.157 9 -19698075.40747  20750296.589    20750304.7284
  21103420.179   -24903333.635 9 -19016918.86347  21103419.677    21103426.3424
  23504940.865    -7032691.748 8  -5455404.84645  23504940.278    23504950.9274
 01  4 18  1 18 30.0000000  0  9 17 21 29 23 03 09 15 18 31
  21766732.902   -21157711.006 8 -16457299.18446  21766732.225    21766741.6864
  21259000.847   -20196114.763 9 -15449102.49647  21259000.151    21259008.1804
  21973491.143   -13908227.191 8 -10184270.77546  21973490.839    21973501.9504
  21921871.189   -16462037.303 9 -12795017.81747  21921870.505    21921878.5804
  21537866.520   -19153892.461 9 -14895730.57047  21537866.096    21537874.8794
  23670389.916    -6650230.669 8  -4965778.20445  23670389.591    23670401.2814
  20756692.093   -25619411.074 9 -19671890.42347  20756691.292    20756699.3714
  21112015.833   -24858162.662 9 -18981720.72747  21112015.376    21112022.1594
  23491554.621    -7103038.507 8  -5510220.38245  23491553.766    23491564.2504
 01  4 18  1 19  0.0000000  0  9 17 21 29 23 03 09 15 18 31
  21777657.741   -21100300.364 8 -16412563.69846  21777657.142    21777666.6604
  21255742.769   -20213235.528 9 -15462443.32147  21255742.126    21255750.1544
  21957101.992   -13994351.187 8 -10251380.15946  21957101.705    21957112.7814
  21931323.720   -16412364.223 9 -12756311.55447  21931323.021    21931331.0894
  21535998.268   -19163710.192 9 -14903380.75347  21535997.829    21536006.5614
  23665719.361    -6674774.873 8  -4984903.48045  23665719.004    23665730.6544
  20763155.095   -25585447.944 9 -19645425.65547  20763154.248    20763162.2824
  21120645.374   -24812814.231 9 -18946384.30947  21120644.942    21120651.6974
  23478250.413    -7172952.972 8  -5564699.06245  23478249.476    23478259.9604
 01  4 18  1 19 30.0000000  0  9 17 21 29 23 03 09 15 18 31
  21788645.141   -21042561.391 8 -16367572.37246  21788644.545    21788654.1024
  21252518.087   -20230181.135 9 -15475647.65647  21252517.438    21252525.4034
  21940775.638   -14080145.533 8 -10318232.68246  21940775.408    21940786.4084
  21940791.501   -16362610.796 9 -12717542.68147  21940790.806    21940798.9364
  21534239.444   -19172952.716 9 -14910582.72347  21534239.017    21534247.7174
  23661142.297    -6698827.130 8  -5003645.43545  23661141.903    23661153.3554
  20769686.711   -25551124.082 9 -19618679.82147  20769685.876    20769693.9574
  21129308.744   -24767288.580 9 -18910909.80247  21129308.264    21129314.9084
  23465028.674    -7242431.924 8  -5618838.39545  23465027.960    23465038.4904
 01  4 18  1 20  0.0000000  0  9 17 21 29 23 03 09 15 18 31
  21799695.069   -20984494.409 8 -16322325.43946  21799694.446    21799703.9734
  21249326.473   -20246952.815 9 -15488716.45947  21249325.818    21249333.7454
  21924512.626   -14165608.397 8 -10384826.90346  21924512.346    21924523.1344
  21950274.332   -16312778.190 9 -12678712.11447  21950273.642    21950281.8724
  21532590.002   -19181619.962 9 -14917336.42047  21532589.629    21532598.4284
  23656659.114    -6722385.787 8  -5022002.74745  23656658.776    23656670.2424
  20776286.962   -25516439.433 9 -19591652.84347  20776286.116    20776294.2254
  21138005.537   -24721587.193 9 -18875298.35447  21138005.014    21138011.5424
  23451890.522    -7311473.810 8  -5672637.13345  23451889.685    23451900.3024
 01  4 18  1 20 30.0000000  0  9 17 21 29 23 03 09 15 18 31
  21810807.023   -20926100.705 8 -16276823.93046  21810806.413    21810815.9834
  21246167.665   -20263551.931 9 -15501650.79447  21246167.035    21246174.9924
  21908312.730   -14250739.303 8 -10451162.46446  21908312.431    21908323.1414
  21959771.853   -16262868.579 8 -12639821.54647  21959771.157    21959779.4284
  21531049.942   -19189712.949 9 -14923642.64447  21531049.535    21531058.4024
  23652270.000    -6745450.427 8  -5039975.10845  23652269.535    23652281.0714
  20782955.726   -25481394.911 9 -19564345.43847  20782954.900    20782962.9554
  21146735.341   -24675712.378 9 -18839551.77347  21146734.740    21146741.2524
  23438835.955    -7380077.673 8  -5726094.55045  23438834.702    23438845.4084
 01  4 18  1 21  0.0000000  0  9 17 21 29 23 03 09 15 18 31
  21821981.374   -20867379.087 8 -16231066.92046  21821980.747    21821990.3794
  21243041.810   -20279977.995 9 -15514450.28647  21243041.199    21243049.1714
  21892176.566   -14335534.985 8 -10517236.81446  21892176.252    21892186.8004
  21969284.109   -16212881.703 8 -12600870.76547  21969283.331    21969291.6074
  21529619.227   -19197230.908 9 -14929500.78947  21529618.895    21529627.8314
  23647975.340    -6768017.925 8  -5057560.08145  23647974.858    23647986.4334
  20789693.226   -25445989.047 9 -19536756.48247  20789692.386    20789700.4914
  21155497.915   -24629664.191 9 -18803670.09047  21155497.404    21155503.9724
  23425864.890    -7448239.889 8  -5779207.85545  23425863.792    23425874.4464
 01  4 18  1 21 30.0000000  0  9 17 21 29 23 03 09 15 18 31
  21833218.322   -20808329.431 8 -16185054.28346  21833217.698    21833227.2974
  21239948.664   -20296232.247 9 -15527115.89247  21239948.080    21239956.0844
  21876104.306   -14419993.572 8 -10583048.48546  21876104.009    21876114.6384
  21978810.777   -16162818.283 8 -12561860.33347  21978810.076    21978818.3484
  21528298.134   -19204173.523 9 -14934910.60447  21528297.770    21528306.7134
  23643775.935    -6790086.542 8  -5074756.33145  23643775.505    23643787.0854
  20796499.576   -25410221.304 9 -19508885.53947  20796498.753    20796506.8824
  21164293.274   -24583443.641 9 -18767654.10447  21164292.805    21164299.4664
  23412978.292    -7515958.296 8  -5831975.32745  23412977.473    23412987.9554
 01  4 18  1 22  0.0000000  0  9 17 21 29 23 03 09 15 18 31
  21844517.723   -20748951.301 8 -16138785.70546  21844517.055    21844526.6534
  21236888.317   -20312314.274 9 -15539647.30847  21236887.719    21236895.7444
  21860096.737   -14504112.475 8 -10648595.48646  21860096.501    21860107.1024
  21988352.083   -16112678.435 8 -12522790.35747  21988351.401    21988359.6364
  21527086.734   -19210540.008 9 -14939871.49547  21527086.268    21527095.1264
  23639671.673    -6811653.578 8  -5091561.73245  23639671.267    23639682.7134
  20803375.017   -25374090.913 9 -19480732.01947  20803374.184    20803382.2824
  21173121.331   -24537051.374 9 -18731504.32947  21173120.933    21173127.6244
  23400176.814    -7583230.181 8  -5884394.86045  23400175.976    23400186.3244
 01  4 18  1 22 30.0000000  0  9 17 21 29 23 03 09 15 18 31
  21855879.396   -20689245.369 8 -16092261.69246  21855878.750    21855888.3474
  21233860.488   -20328225.424 9 -15552045.56747  21233859.915    21233867.9424
  21844154.084   -14587890.682 8 -10713877.01246  21844153.837    21844164.4124
  21997907.623   -16062463.721 8 -12483662.03847  21997906.946    21997915.1404
  21525984.574   -19216331.235 9 -14944384.12247  21525984.201    21525993.0014
  23635663.062    -6832718.252 8  -5107975.70245  23635662.760    23635674.1044
  20810319.300   -25337598.350 9 -19452296.28447  20810318.446    20810326.6054
  21181981.986   -24490489.242 9 -18695222.16847  21181981.459    21181988.0944
  23387460.346    -7650054.459 8  -5936465.61045  23387459.599    23387469.9394
 01  4 18  1 23  0.0000000  0  9 17 21 29 23 03 09 15 18 31
  21867303.473   -20629211.446 8 -16045482.11446  21867302.861    21867312.4714
  21230865.075   -20343966.084 9 -15564310.98947  21230864.528    21230872.5414
  21828276.723   -14671325.875 8 -10778891.26146  21828276.469    21828287.0144
  22007477.463   -16012174.748 9 -12444475.85747  22007476.671    22007484.8094
  21524992.146   -19221546.913 9 -14948448.26147  21524991.718    21525000.4144
  23631750.511    -6853278.576 8  -5123996.62745  23631750.060    23631761.6664
  20817332.720   -25300742.802 9 -19423577.71347  20817331.871    20817340.0524
  21190874.830   -24443757.773 9 -18658808.06947  21190874.233    21190880.8204
  23374829.412    -7716428.746 8  -5988185.73645  23374828.853    23374839.1534
 01  4 18  1 23 30.0000000  0  9 17 21 29 23 03 09 15 18 31
  21878790.102   -20568849.479 8 -15998446.89946  21878789.459    21878798.9894
  21227902.180   -20359536.748 9 -15576443.93447  21227901.550    21227909.5114
  21812464.951   -14754416.195 8 -10843636.77346  21812464.695    21812475.2384
  22017061.141   -15961812.028 8 -12405232.20847  22017060.376    22017068.5484
  21524109.181   -19226187.190 9 -14952064.04347  21524108.730    21524117.3824
  23627934.201    -6873332.776 8  -5139623.20245  23627933.841    23627945.3274
  20824415.249   -25263523.823 9 -19394575.94447  20824414.388    20824422.5654
  21199799.573   -24396858.212 9 -18622262.97747  21199798.964    21199805.5684
  23362284.959    -7782350.905 8  -6039553.53645  23362284.257    23362294.5394
 01  4 18  1 24  0.0000000  0  9 17 21 29 23 03 09 15 18 31
  21890338.804   -20508160.652 8 -15951156.99546  21890338.174    21890347.8174
  21224971.198   -20374939.463 9 -15588446.02247  21224970.519    21224978.4384
  21796718.980   -14837160.856 8 -10908112.94547  21796718.726    21796729.2854
  22026658.399   -15911377.639 8 -12365932.71747  22026657.732    22026666.0154
  21523335.379   -19230253.063 9 -14955232.23647  21523334.985    21523343.6574
  23624214.514    -6892880.113 8  -5154854.83145  23624214.087    23624225.5424
  20831566.783   -25225942.337 9 -19365291.69347  20831565.927    20831574.0774
  21208755.750   -24349792.982 9 -18585588.80147  21208755.154    21208761.8154
  23349826.818    -7847819.673 8  -6090568.07445  23349825.913    23349836.1254
 01  4 18  1 24 30.0000000  0  9 17 21 29 23 03 09 15 18 31
  21901949.884   -20447143.994 8 -15903611.64546  21901949.266    21901959.0084
  21222072.204   -20390173.451 9 -15600316.62747  21222071.546    21222079.4484
  21781039.532   -14919556.821 8 -10972317.41247  21781039.210    21781049.6934
  22036269.516   -15860871.352 9 -12326577.20347  22036268.758    22036277.1284
  21522671.205   -19233743.464 9 -14957952.00647  21522670.725    21522679.4744
  23620591.476    -6911918.004 8  -5169689.47445  23620591.095    23620602.6624
  20838787.576   -25187996.964 9 -19335723.90547  20838786.728    20838794.8914
  21217743.553   -24302561.894 9 -18548785.38347  21217742.912    21217749.5904
  23337455.176    -7912832.098 8  -6141227.02245  23337454.326    23337464.4844
 01  4 18  1 25  0.0000000  0  9 17 21 29 23 03 09 15 18 31
  21913623.326   -20385799.748 8 -15855811.02946  21913622.725    21913632.5854
  21219205.235   -20405239.216 9 -15612056.15647  21219204.590    21219212.5284
  21765426.661   -15001602.657 8 -11036249.05547  21765426.369    21765436.6684
  22045894.035   -15810294.005 8 -12287166.31247  22045893.296    22045901.6904
  21522116.341   -19236658.659 9 -14960223.57547  21522115.959    21522124.7374
  23617066.008    -6930444.945 8  -5184125.99845  23617065.636    23617076.8764
  20846077.586   -25149687.553 9 -19305872.44447  20846076.741    20846084.9364
  21226762.567   -24255166.152 9 -18511853.66147  21226761.968    21226768.6674
  23325170.720    -7977386.405 8  -6191528.99445  23325169.851    23325180.0334
 01  4 18  1 25 30.0000000  0  9 17 21 29 23 03 09 15 18 31
  21925359.024   -20324128.981 8 -15807755.96846  21925358.380    21925368.1594
  21216369.859   -20420138.773 9 -15623666.17547  21216369.253    21216377.2344
  21749880.607   -15083297.121 8 -11099906.91047  21749880.321    21749890.5144
  22055531.690   -15759647.276 8 -12247701.37247  22055531.004    22055539.4214
  21521670.948   -19238999.613 9 -14962047.67447  21521670.527    21521679.2714
  23613637.633    -6948460.264 8  -5198163.84045  23613637.289    23613648.6594
  20853436.767   -25111014.852 9 -19275737.90347  20853435.907    20853444.1634
  21235812.463   -24207607.876 9 -18474795.29147  21235811.993    21235818.7204
  23312973.781    -8041481.274 8  -6241472.96345  23312972.925    23312983.0604
 01  4 18  1 26  0.0000000  0  9 17 21 29 23 03 09 15 18 31
  21937156.982   -20262130.699 8 -15759445.71546  21937156.343    21937166.1644
  21213566.263   -20434871.411 9 -15635146.12647  21213565.674    21213573.6954
  21734401.893   -15164637.576 8 -11163288.90947  21734401.617    21734411.8294
  22065182.794   -15708930.911 8 -12208182.15447  22065182.052    22065190.4014
  21521334.995   -19240765.825 9 -14963423.92947  21521334.490    21521343.1734
  23610307.297    -6965961.118 8  -5211800.79145  23610306.984    23610318.2754
  20860865.330   -25071977.400 9 -19245319.14547  20860864.514    20860872.7484
  21244893.471   -24159887.284 9 -18437610.44247  21244892.966    21244899.7514
  23300864.839    -8105113.842 8  -6291056.69445  23300863.917    23300874.0844
 01  4 18  1 26 30.0000000  0  9 17 21 29 23 03 09 15 18 31
  21949017.102   -20199805.604 8 -15710880.80046  21949016.452    21949026.2974
  21210794.208   -20449438.261 9 -15646496.89647  21210793.633    21210801.6734
  21718990.690   -15245622.632 8 -11226393.96647  21718990.456    21719000.8214
  22074846.877   -15658146.193 8 -12168609.67347  22074846.082    22074854.4164
  21521108.173   -19241957.655 9 -14964352.61847  21521107.677    21521116.3534
  23607075.110    -6982946.419 8  -5225036.01445  23607074.683    23607086.0654
  20868363.327   -25032575.484 9 -19214616.38747  20868362.493    20868370.7234
  21254005.245   -24112005.503 9 -18400299.98647  21254004.619    21254011.4164
  23288844.131    -8168282.693 8  -6340279.08245  23288843.110    23288853.3794
 01  4 18  1 27  0.0000000  0  9 17 21 29 23 03 09 15 18 31
  21960939.752   -20137152.131 8 -15662060.00146  21960939.088    21960948.9134
  21208053.854   -20463838.367 9 -15657717.74647  21208053.340    21208061.3514
  21703647.804   -15326249.065 8 -11289219.58847  21703647.568    21703657.9614
  22084524.028   -15607292.136 8 -12128983.16347  22084523.333    22084531.6824
  21520990.897   -19242573.689 9 -14964832.64847  21520990.418    21520999.1484
  23603941.396    -6999413.259 8  -5237867.24545  23603941.071    23603952.3144
  20875930.980   -24992807.343 9 -19183628.26047  20875930.134    20875938.3924
  21263147.593   -24063962.233 9 -18362863.69447  21263146.960    21263153.7254
  23276912.244    -8230984.208 8  -6389137.31645  23276911.319    23276921.6414
 01  4 18  1 27 30.0000000  0  9 17 21 29 23 03 09 15 18 31
  21972924.508   -20074172.168 8 -15612984.79946  21972923.861    21972933.7074
  21205344.811   -20478074.279 9 -15668810.65047  21205344.316    21205352.2724
  21688373.303   -15406516.693 8 -11351765.61747  21688373.032    21688383.2874
  22094213.926   -15556371.299 8 -12089304.62447  22094213.234    22094221.6514
  21520982.735   -19242616.117 9 -14964865.71547  21520982.314    21520991.0684
  23600906.681    -7015361.751 8  -5250294.57245  23600906.373    23600917.5504
  20883568.023   -24952674.413 9 -19152355.87847  20883567.207    20883575.4294
  21272320.068   -24015760.242 9 -18325303.73147  21272319.470    21272326.1734
  23265069.364    -8293217.979 8  -6437631.08346  23265068.559    23265078.8714
 01  4 18  1 28  0.0000000  0  9 17 21 29 23 03 09 15 18 31
  21984971.501   -20010865.031 8 -15563654.65946  21984970.831    21984980.7754
  21202667.099   -20492146.089 9 -15679775.68547  21202666.559    21202674.4324
  21673167.529   -15486422.872 8 -11414030.00447  21673167.269    21673177.3854
  22103916.550   -15505383.602 8 -12049573.98147  22103915.907    22103924.3444
  21521083.884   -19242084.323 9 -14964451.33747  21521083.484    21521092.2574
  23597970.721    -7030789.522 8  -5262316.13745  23597970.405    23597981.6274
  20891274.710   -24912175.540 9 -19120798.35047  20891273.892    20891282.1674
  21281522.737   -23967399.823 9 -18287620.31047  21281522.189    21281528.8394
  23253316.292    -8354981.440 8  -6485758.37346  23253315.285    23253325.6004
 01  4 18  1 28 30.0000000  0  9 17 21 29 23 03 09 15 18 31
  21997080.434   -19947232.062 8 -15514070.62946  21997079.789    21997089.7794
  21200020.428   -20506054.809 9 -15690613.63447  21200019.852    21200027.6334
  21658030.638   -15565967.227 8 -11476012.45647  21658030.377    21658040.3214
  22113631.566   -15454330.841 8 -12009792.64847  22113630.962    22113639.3534
  21521294.050   -19240979.843 9 -14963590.71947  21521293.628    21521302.4034
  23595134.104    -7045696.247 8  -5273931.73045  23595133.739    23595144.8684
  20899050.880   -24871311.707 9 -19088956.43847  20899050.059    20899058.3224
  21290755.167   -23918883.109 9 -18249815.10447  21290754.637    21290761.3164
  23241652.974    -8416273.611 8  -6533518.41046  23241651.750    23241661.8994
 01  4 18  1 29  0.0000000  0  9 17 21 29 23 03 09 15 18 31
  22009251.520   -19883272.637 8 -15464232.22746  22009250.893    22009260.9304
  21197404.895   -20519800.141 9 -15701324.27247  21197404.222    21197411.9274
  21642963.194   -15645146.812 8 -11537710.66647  21642962.899    21642972.6574
  22123359.084   -15403212.909 8 -11969960.53247  22123358.437    22123366.8294
  21521613.319   -19239301.938 9 -14962283.27447  21521612.907    21521621.6774
  23592396.875    -7060079.655 8  -5285139.51445  23592396.504    23592407.7374
  20906896.668   -24830081.860 9 -19056829.30647  20906895.847    20906904.0994
  21300017.360   -23870210.192 9 -18211888.17747  21300016.835    21300023.6094
  23230079.393    -8477092.011 8  -6580909.30946  23230078.351    23230088.3984
 01  4 18  1 29 30.0000000  0  9 17 21 29 23 03 09 15 18 31
  22021485.152   -19818984.720 8 -15414137.83946  22021484.513    22021494.5784
  21194820.522   -20533380.824 9 -15711906.61547  21194819.852    21194827.5804
  21627965.916   -15723957.902 8 -11599121.74247  21627965.571    21627975.2634
  22133099.242   -15352028.393 8 -11930076.53447  22133098.574    22133106.9244
  21522042.007   -19237048.863 9 -14960527.65447  21522041.621    21522050.3754
  23589760.008    -7073936.038 8  -5295936.63845  23589759.649    23589770.8494
  20914812.535   -24788483.661 9 -19024415.15347  20914811.727    20914820.0004
  21309309.443   -23821380.079 9 -18173838.76147  21309308.883    21309315.7184
  23218596.941    -8537432.462 8  -6627927.75146  23218595.920    23218605.8414
 01  4 18  1 30  0.0000000  0  9 17 21 29 23 03 09 15 18 31
  22033780.449   -19754372.600 8 -15363790.83346  22033779.811    22033789.9704
  21192266.606   -20546801.372 9 -15722364.17447  21192265.950    21192273.7494
  21613038.009   -15802402.952 8 -11660247.58047  21613037.706    21613047.4964
  22142851.102   -15300782.092 8 -11890144.38847  22142850.444    22142858.7364
  21522579.312   -19234225.258 9 -14958327.46647  21522578.918    21522587.6574
  23587222.960    -7087267.982 8  -5306325.09245  23587222.536    23587233.8194
  20922797.779   -24746521.051 9 -18991717.05347  20922796.969    20922805.2974
  21318630.487   -23772397.883 9 -18135670.83847  21318629.900    21318636.6994
  23207204.981    -8597297.185 8  -6674575.51846  23207203.997    23207213.9514
 01  4 18  1 30 30.0000000  0  9 17 21 29 23 03 09 15 18 31
  22046138.124   -19689433.094 8 -15313188.72146  22046137.486    22046147.6144
  21189743.603   -20560059.349 9 -15732695.05947  21189742.976    21189750.8694
  21598180.713   -15880476.674 8 -11721084.07747  21598180.511    21598190.3494
  22152615.268   -15249471.239 8 -11850161.94647  22152614.554    22152622.8804
  21523225.837   -19230827.707 9 -14955680.04647  21523225.451    21523234.2304
  23584786.552    -7100070.986 8  -5316301.42845  23584786.202    23584797.4434
  20930853.049   -24704190.582 9 -18958732.29747  20930852.242    20930860.5734
  21327980.846   -23723261.133 9 -18097382.48247  21327980.306    21327987.0614
  23195904.699    -8656680.839 8  -6720848.41246  23195903.630    23195913.5874
 01  4 18  1 31  0.0000000  0  9 17 21 29 23 03 09 15 18 31
  22058557.547   -19624168.598 8 -15262333.38446  22058556.968    22058567.1334
  21187251.030   -20573157.168 9 -15742901.15047  21187250.482    21187258.4584
  21583394.253   -15958179.578 8 -11781631.62947  21583393.988    21583403.7834
  22162391.030   -15198098.602 8 -11810131.37347  22162390.436    22162398.8454
  21523981.075   -19226858.948 9 -14952587.53547  21523980.668    21523989.4664
  23582450.760    -7112345.570 8  -5325865.98445  23582450.360    23582461.4844
  20938977.938   -24661493.929 9 -18925462.20747  20938977.138    20938985.4714
  21337360.060   -23673973.126 9 -18058976.27147  21337359.523    21337366.2564
  23184695.512    -8715583.645 8  -6766746.63146  23184694.691    23184704.6514
 01  4 18  1 31 30.0000000  0  9 17 21 29 23 03 09 15 18 31
  22071039.299   -19558577.604 8 -15211223.60946  22071038.678    22071048.7244
  21184789.301   -20586093.469 9 -15752981.37847  21184788.776    21184796.7784
  21568678.928   -16035508.364 8 -11841887.65947  21568678.655    21568688.4284
  22172178.989   -15146663.185 8 -11770051.87547  22172178.330    22172186.8084
  21524845.257   -19222317.843 9 -14949049.03847  21524844.830    21524853.6064
  23580216.040    -7124088.719 8  -5335016.42345  23580215.746    23580226.7204
  20947172.855   -24618429.470 9 -18891905.51947  20947172.025    20947180.3764
  21346768.226   -23624533.027 9 -18020451.54947  21346767.670    21346774.4594
  23173578.359    -8774002.250 8  -6812267.54846  23173577.787    23173587.7744
 01  4 18  1 32  0.0000000  0  9 17 21 29 23 03 09 15 18 31
  22083582.866   -19492661.044 8 -15159860.16146  22083582.234    22083592.3454
  21182358.084   -20598869.942 9 -15762937.06247  21182357.519    21182365.4614
  21554034.976   -16112462.109 8 -11901851.45647  21554034.692    21554044.3654
  22181978.645   -15095166.412 8 -11729924.55747  22181977.916    22181986.3524
  21525818.096   -19217205.734 9 -14945065.60747  21525817.656    21525826.3814
  23578082.655    -7135299.941 8  -5343752.38745  23578082.353    23578093.3664
  20955437.642   -24574997.902 9 -18858062.77447  20955436.813    20955445.1654
  21356204.921   -23574942.876 9 -17981809.89847  21356204.347    21356211.1774
  23162553.807    -8831935.505 8  -6857410.26246  23162553.308    23162563.3704
 01  4 18  1 32 30.0000000  0  9 17 21 29 23 03 09 15 18 31
  22096188.260   -19426419.591 8 -15108243.54346  22096187.628    22096197.7294
  21179957.089   -20611487.238 9 -15772768.70547  21179956.561    21179964.4624
  21539462.684   -16189039.242 8 -11961521.78747  21539462.471    21539471.9994
  22191789.569   -15043609.141 8 -11689750.10546  22191788.895    22191797.3244
  21526899.509   -19211523.106 9 -14940637.60547  21526899.048    21526907.7224
  23576050.466    -7145978.200 8  -5352073.03245  23576050.160    23576061.3614
  20963772.318   -24531198.988 9 -18823933.78447  20963771.493    20963779.8394
  21365670.064   -23525203.635 9 -17943052.07447  21365669.485    21365676.2634
  23151621.985    -8889382.004 8  -6902173.68946  23151621.447    23151631.5984
 01  4 18  1 33  0.0000000  0  9 17 21 29 23 03 09 15 18 31
  22108855.567   -19359852.865 8 -15056373.46746  22108854.928    22108865.0174
  21177586.333   -20623945.440 9 -15782476.38747  21177585.812    21177593.7394
  21524962.527   -16265237.712 8 -12020897.05847  21524962.289    21524971.7294
  22201611.980   -14991991.578 8 -11649528.68546  22201611.304    22201619.7564
  21528089.492   -19205269.932 9 -14935765.03047  21528089.024    21528097.6824
  23574120.014    -7156121.708 8  -5359977.00745  23574119.826    23574131.0374
  20972176.986   -24487032.196 9 -18789518.14447  20972176.155    20972184.5404
  21375163.472   -23475315.801 9 -17904178.46447  21375162.843    21375169.5924
  23140783.249    -8946339.337 8  -6946555.94746  23140782.739    23140792.8834
 01  4 18  1 33 30.0000000  0  9 17 21 29 23 03 09 15 18 31
  22121584.574   -19292961.826 8 -15004250.68246  22121583.956    22121594.1074
  21175245.569   -20636246.003 9 -15792061.22947  21175245.053    21175252.9964
  21510534.576   -16341056.743 8 -12079976.65847  21510534.298    21510543.6604
  22211445.701   -14940315.169 8 -11609261.39846  22211445.026    22211453.5344
  21529387.716   -19198447.542 9 -14930448.90747  21529387.255    21529395.9414
  23572291.750    -7165729.958 8  -5367463.90745  23572291.482    23572302.6094
  20980651.530   -24442498.266 9 -18754816.42447  20980650.738    20980659.1264
  21384684.617   -23425281.187 9 -17865190.48447  21384684.091    21384690.8414
  23130037.865    -9002806.328 8  -6990556.12046  23130037.428    23130047.5844
 01  4 18  1 34  0.0000000  0  9 17 21 29 23 03 09 15 18 31
  22134375.369   -19225746.271 8 -14951875.02546  22134374.731    22134384.9374
  21172934.997   -20648388.171 9 -15801522.64047  21172934.452    21172942.4174
  21496179.195   -16416493.884 8 -12138758.68347  21496178.935    21496188.2484
  22221290.750   -14888579.615 8 -11568948.03647  22221290.090    22221298.6054
  21530794.218   -19191055.866 9 -14924689.18647  21530793.822    21530802.5484
  23570565.545    -7174800.928 8  -5374532.13845  23570565.158    23570576.3154
  20989196.075   -24397596.516 9 -18719828.08947  20989195.282    20989203.6534
  21394233.821   -23375099.988 9 -17826088.28847  21394233.260    21394240.0124
  23119386.154    -9058780.688 8  -7034172.42846  23119385.812    23119395.9374
 01  4 18  1 34 30.0000000  0  9 17 21 29 23 03 09 15 18 31
  22147227.609   -19158207.644 8 -14899247.61746  22147226.994    22147237.1684
  21170654.089   -20660374.629 9 -15810862.71747  21170653.491    21170661.4144
  21481896.688   -16491548.844 9 -12197242.90847  21481896.413    21481905.6114
  22231146.732   -14836787.086 8 -11528590.26947  22231145.988    22231154.5174
  21532308.713   -19183096.909 9 -14918487.42347  21532308.303    21532317.1034
  23568941.496    -7183334.724 8  -5381181.78145  23568941.152    23568952.3254
  20997810.398   -24352328.201 9 -18684554.12047  20997809.599    20997817.9824
  21403810.484   -23324774.536 9 -17786873.68547  21403809.931    21403816.6384
  23108828.336    -9114261.962 8  -7077404.51046  23108828.121    23108838.1744
 01  4 18  1 35  0.0000000  0  9 17 21 29 23 03 09 15 18 31
  22160141.689   -19090343.963 8 -14846366.93146  22160141.073    22160151.2674
  21168403.303   -20672203.246 9 -15820079.79747  21168402.620    21168410.4624
  21467687.507   -16566217.996 8 -12255426.50547  21467687.210    21467696.3994
  22241013.604   -14784935.729 8 -11488186.67446  22241012.878    22241021.5584
  21533931.410   -19174569.043 9 -14911842.36047  21533931.080    21533939.9204
  23567420.521    -7191327.960 8  -5387410.22545  23567420.075    23567431.3094
  21006494.963   -24306690.797 9 -18648992.55447  21006494.157    21006502.5344
  21413414.848   -23274303.401 9 -17747545.55547  21413414.282    21413420.9864
  23098365.424    -9169246.220 8  -7120249.31146  23098364.965    23098374.8854
 01  4 18  1 35 30.0000000  0  9 17 21 29 23 03 09 15 18 31
  22173117.235   -19022157.362 8 -14793234.63446  22173116.660    22173126.8864
  21166182.020   -20683876.443 9 -15829175.77447  21166181.268    21166189.0734
  21453551.686   -16640501.180 8 -12313309.35047  21453551.396    21453560.7164
  22250891.273   -14733027.996 8 -11447739.14546  22250890.559    22250899.2254
  21535662.183   -19165474.410 9 -14904755.66347  21535661.791    21535670.5824
  23566002.117    -7198781.249 8  -5393217.95545  23566001.846    23566012.8294
  21015249.367   -24260685.936 9 -18613144.65647  21015248.556    21015256.9394
  21423046.349   -23223689.363 9 -17708106.08447  21423045.824    21423052.5764
  23087996.986    -9223733.320 8  -7162706.70746  23087996.333    23088006.1824
 01  4 18  1 36  0.0000000  0  9 17 21 29 23 03 09 15 18 31
  22186154.250   -18953647.906 8 -14739850.73946  22186153.655    22186163.9534
  21163990.167   -20695394.443 9 -15838150.81747  21163989.455    21163997.2474
  21439489.721   -16714396.765 9 -12370890.17747  21439489.440    21439498.7374
  22260779.718   -14681064.326 8 -11407248.02246  22260779.053    22260787.5734
  21537500.661   -19155813.538 9 -14897227.73747  21537500.249    21537509.0254
  23564686.870    -7205693.133 8  -5398603.78945  23564686.487    23564697.5354
  21024073.773   -24214313.398 9 -18577010.26947  21024072.957    21024081.3724
  21432704.965   -23172933.266 9 -17668555.91547  21432704.397    21432711.2214
  23077723.142    -9277721.347 8  -7204775.24046  23077722.686    23077732.5114
 01  4 18  1 36 30.0000000  0  9 17 21 29 23 03 09 15 18 31
  22199252.712   -18884815.776 8 -14686215.38646  22199252.098    22199262.2814
  21161827.820   -20706757.380 9 -15847005.03147  21161827.112    21161834.9494
  21425501.970   -16787902.955 9 -12428167.58447  21425501.644    21425510.8224
  22270678.859   -14629044.959 8 -11366713.48846  22270678.130    22270686.6154
  21539446.823   -19145587.065 9 -14889259.07547  21539446.371    21539455.1314
  23563474.613    -7212062.279 8  -5403566.72645  23563474.456    23563485.4154
  21032968.217   -24167572.842 9 -18540589.10447  21032967.400    21032975.8094
  21442390.443   -23122035.666 9 -17628895.48447  21442389.902    21442396.7534
  23067545.003    -9331208.634 8  -7246453.56946  23067544.331    23067554.1414
 01  4 18  1 37  0.0000000  0  9 17 21 29 23 03 09 15 18 31
  22212412.461   -18815661.225 8 -14632328.81246  22212411.827    22212421.9664
  21159694.792   -20717965.903 9 -15855738.93047  21159694.149    21159702.0534
  21411588.464   -16861018.115 9 -12485140.29347  21411588.136    21411597.3164
  22280588.210   -14576970.521 8 -11326136.05546  22280587.511    22280596.1304
  21541500.362   -19134795.744 9 -14880850.27347  21541499.900    21541508.7094
  23562366.190    -7217887.847 8  -5408106.09845  23562365.804    23562376.6274
  21041932.688   -24120464.233 9 -18503881.14247  21041931.864    21041940.2734
  21452102.769   -23070997.546 9 -17589125.56447  21452102.199    21452108.9994
  23057462.421    -9384193.660 8  -7287740.52746  23057461.532    23057471.2274
 01  4 18  1 37 30.0000000  0  9 17 21 29 23 03 09 15 18 31
  22225633.640   -18746183.378 8 -14578190.34146  22225632.975    22225643.2924
  21157591.270   -20729019.475 9 -15864352.09347  21157590.655    21157598.5994
  21397749.867   -16933739.533 8 -12541806.20147  21397749.567    21397758.7964
  22290508.135   -14524840.256 8 -11285515.13346  22290507.553    22290516.2834
  21543661.420   -19123438.749 9 -14872000.69547  21543661.074    21543669.8564
  23561361.177    -7223167.433 8  -5412219.98445  23561360.959    23561372.0744
  21050967.441   -24072986.369 9 -18466885.46247  21050966.639    21050975.0894
  21461841.846   -23019818.462 9 -17549245.79347  21461841.247    21461848.0394
  23047475.522    -9436673.298 8  -7328633.69546  23047474.806    23047484.5414
 01  4 18  1 38  0.0000000  0  9 17 21 29 23 03 09 15 18 31
  22238916.057   -18676383.411 8 -14523800.87246  22238915.439    22238925.9044
  21155517.183   -20739919.026 9 -15872845.23547  21155516.541    21155524.4564
  21383986.248   -17006066.565 8 -12598164.78847  21383985.965    21383995.2704
  22300438.749   -14472655.502 8 -11244851.72946  22300438.068    22300446.6904
  21545930.057   -19111517.858 9 -14862711.70747  21545929.633    21545938.3054
  23560460.845    -7227900.708 8  -5415908.24045  23560460.433    23560471.3944
  21060072.395   -24025140.019 9 -18429602.64847  21060071.566    21060080.0324
  21471607.345   -22968500.187 9 -17509257.56247  21471606.826    21471613.6794
  23037584.897    -9488647.072 8  -7369132.67646  23037584.313    23037594.1224
 01  4 18  1 38 30.0000000  0  9 17 21 29 23 03 09 15 18 31
  22252259.966   -18606261.472 8 -14469160.48946  22252259.311    22252269.7624
  21153472.259   -20750665.399 9 -15881219.00847  21153471.586    21153479.4694
  21370298.027   -17077997.411 8 -12654214.66647  21370297.781    21370307.1194
  22310379.605   -14420416.509 8 -11204146.05846  22310378.886    22310387.4164
  21548305.866   -19099033.506 9 -14852983.65947  21548305.408    21548314.0274
  23559664.033    -7232086.413 8  -5419169.78245  23559663.594    23559674.6904
  21069247.470   -23976924.947 9 -18392032.50747  21069246.654    21069255.0504
  21481399.305   -22917043.427 9 -17469161.42347  21481398.757    21481405.6404
  23027791.057    -9540112.934 8  -7409235.87746  23027790.553    23027800.4674
 01  4 18  1 39  0.0000000  0  9 17 21 29 23 03 09 15 18 31
  22265665.108   -18535817.646 8 -14414269.29246  22265664.471    22265674.9144
  21151456.591   -20761258.405 9 -15889473.28647  21151455.822    21151463.6614
  21356685.671   -17149530.283 9 -12709954.44247  21356685.425    21356694.7214
  22320330.553   -14368123.626 8 -11163398.41146  22320329.887    22320338.4954
  21550788.627   -19085986.297 9 -14842817.02947  21550788.180    21550796.8794
  23558972.119    -7235723.304 8  -5422003.71445  23558971.633    23558982.5014
  21078492.833   -23928340.715 9 -18354174.71547  21078492.024    21078500.3854
  21491217.544   -22865448.712 9 -17428957.79047  21491216.940    21491223.8424
  23018094.474    -9591068.670 8  -7448941.59146  23018093.955    23018103.8374
 01  4 18  1 39 30.0000000  0  9 17 21 29 23 03 09 15 18 31
  22279131.028   -18465054.227 8 -14359129.07946  22279130.339    22279140.8574
  21149469.537   -20771700.112 9 -15897609.66847  21149468.778    21149476.6544
  21343148.957   -17220665.488 9 -12765384.34647  21343148.736    21343157.9484
  22330291.365   -14315779.166 8 -11122610.57146  22330290.751    22330299.3984
  21553378.001   -19072378.721 9 -14832213.74347  21553377.587    21553386.3874
  23558384.063    -7238812.284 8  -5424410.68645  23558383.680    23558394.5674
  21087807.995   -23879389.260 9 -18316030.77547  21087807.175    21087815.5754
  21501061.267   -22813718.959 9 -17388648.93147  21501060.766    21501067.6754
  23008494.968    -9641514.864 8  -7488250.25346  23008494.391    23008504.1084
 01  4 18  1 40  0.0000000  0  9 17 21 29 23 03 09 15 18 31
  22292657.899   -18393970.339 8 -14303739.14646  22292657.284    22292667.7594
  21147511.283   -20781990.032 9 -15905627.78447  21147510.623    21147518.5384
  21329688.552   -17291400.519 9 -12820502.43347  21329688.324    21329697.3714
  22340262.202   -14263382.580 8 -11081782.11646  22340261.539    22340270.1664
  21556073.972   -19058210.587 9 -14821173.66847  21556073.641    21556082.5424
  23557901.147    -7241351.057 8  -5426388.94645  23557900.715    23557911.4744
  21097193.319   -23830069.475 9 -18277599.82247  21097192.488    21097200.9114
  21510930.947   -22761853.603 9 -17348234.40947  21510930.403    21510937.3164
  22998992.854    -9691448.750 8  -7527159.71946  22998992.348    22999001.9314
 01  4 18  1 40 30.0000000  0  9 17 21 29 23 03 09 15 18 31
  22306245.597   -18322566.598 8 -14248099.97946  22306244.958    22306255.4444
  21145581.944   -20792128.913 9 -15913528.21247  21145581.289    21145589.1704
  21316304.579   -17361734.021 9 -12875307.64047  21316304.280    21316313.2134
  22350242.880   -14210934.428 8 -11040913.48146  22350242.110    22350250.7394
  21558876.666   -19043482.889 9 -14809697.56847  21558876.280    21558885.1344
  23557522.580    -7243339.123 8  -5427938.04245  23557522.187    23557533.3354
  21106648.528   -23780381.619 9 -18238882.06547  21106647.742    21106656.2454
  21520826.226   -22709853.905 9 -17307715.21147  21520825.712    21520832.5504
  22989588.594    -9740868.869 8  -7565668.84646  22989588.099    22989597.5164
 01  4 18  1 41  0.0000000  0  9 17 21 29 23 03 09 15 18 31
  22319893.986   -18250844.283 8 -14192212.55646  22319893.369    22319903.8954
  21143681.076   -20802117.992 9 -15921311.89047  21143680.435    21143688.2924
  21302997.010   -17431665.273 9 -12929799.38847  21302996.752    21303005.5984
  22360232.926   -14158435.835 8 -11000005.54046  22360232.303    22360240.9654
  21561785.421   -19028197.437 9 -14797786.84147  21561785.017    21561793.8224
  23557249.176    -7244776.246 8  -5429057.87645  23557248.856    23557259.7514
  21116173.799   -23730326.356 9 -18199877.99147  21116173.027    21116181.5054
  21530746.906   -22657721.277 9 -17267092.40247  21530746.294    21530753.1394
  22980282.319    -9789774.513 8  -7603777.06446  22980281.622    22980291.0564
 01  4 18  1 41 30.0000000  0  9 17 21 29 23 03 09 15 18 31
  22333603.441   -18178801.301 8 -14136075.29546  22333602.818    22333613.4164
  21141809.174   -20811955.037 9 -15928977.12147  21141808.501    21141816.3094
  21289766.775   -17501190.446 9 -12983974.73547  21289766.501    21289775.2594
  22370233.206   -14105885.077 8 -10959056.95546  22370232.480    22370241.1024
  21564800.509   -19012352.788 9 -14785440.39747  21564800.110    21564808.9494
  23557081.056    -7245658.995 8  -5429745.71245  23557080.713    23557091.7544
  21125769.420   -23679901.128 9 -18160585.66747  21125768.605    21125777.1304
  21540692.876   -22605454.100 9 -17226364.78247  21540692.339    21540699.2694
  22971074.506    -9838161.760 8  -7641481.36046  22971073.786    22971083.1784
 01  4 18  1 42  0.0000000  0  9 17 21 29 23 03 09 15 18 31
  22347373.480   -18106440.017 8 -14079689.98846  22347372.826    22347383.4484
  21139965.549   -20821643.068 9 -15936526.23947  21139964.937    21139972.7284
  21276613.599   -17570310.086 9 -13037834.07047  21276613.318    21276622.1694
  22380242.788   -14053284.670 8 -10918069.67546  22380242.051    22380250.6254
  21567921.577   -18995951.558 9 -14772660.24647  21567921.229    21567930.0344
  23557018.406    -7245988.417 8  -5430002.39345  23557018.145    23557029.0114
  21135435.022   -23629107.971 9 -18121006.62647  21135434.223    21135442.7904
  21550664.071   -22553055.488 9 -17185534.74247  21550663.476    21550670.4264
  22961965.092    -9886031.105 8  -7678782.09846  22961964.523    22961973.9204
 01  4 18  1 42 30.0000000  0  9 17 21 29 23 03 09 15 18 31
  22361203.872   -18033761.216 8 -14023057.27446  22361203.191    22361213.9344
  21138150.061   -20831182.639 9 -15943959.66147  21138149.544    21138157.3944
  21263537.761   -17639022.988 9 -13091376.46647  21263537.490    21263546.5334
  22390261.531   -14000635.200 8 -10877044.17046  22390260.885    22390269.4344
  21571148.418   -18978994.953 9 -14759447.33947  21571147.975    21571156.7544
  23557061.124    -7245764.100 8  -5429827.57545  23557060.697    23557071.6414
  21145170.610   -23577947.358 9 -18081141.25547  21145169.824    21145178.3734
  21560660.118   -22500526.277 9 -17144602.93847  21560659.526    21560666.4354
  22952954.673    -9933381.208 8  -7715678.22446  22952954.011    22952963.4794
 01  4 18  1 43  0.0000000  0  9 17 21 29 23 03 09 15 18 31
  22375094.656   -17960764.751 8 -13966177.02446  22375094.035    22375104.8164
  21136363.039   -20840573.150 9 -15951276.94047  21136362.531    21136370.4614
  21250539.711   -17707327.407 9 -13144600.56947  21250539.418    21250548.4984
  22400289.902   -13947936.458 8 -10835980.26446  22400289.142    22400297.7684
  21574480.674   -18961483.455 9 -14745802.04747  21574480.278    21574489.1104
  23557209.445    -7244984.697 8  -5429220.23945  23557209.103    23557220.0234
  21154976.163   -23526418.950 9 -18040989.29347  21154975.385    21154983.9114
  21570680.875   -22447866.975 9 -17103569.76047  21570680.309    21570687.2084
  22944043.586    -9980210.295 8  -7752168.35546  22944042.680    22944052.2454
 01  4 18  1 43 30.0000000  0  9 17 21 29 23 03 09 15 18 31
  22389046.016   -17887450.439 8 -13909049.11746  22389045.366    22389056.1954
  21134604.475   -20849814.661 9 -15958478.11747  21134603.908    21134611.8614
  21237619.917   -17775221.062 9 -13197504.59647  21237619.632    21237628.6524
  22410327.472   -13895188.261 8 -10794877.84346  22410326.813    22410335.5564
  21577918.488   -18943417.569 9 -14731724.76647  21577918.128    21577926.9834
  23557463.724    -7243648.682 8  -5428179.15445  23557463.398    23557474.1584
  21164851.868   -23474521.973 9 -18000550.14247  21164851.098    21164859.6574
  21580726.407   -22395077.468 9 -17062435.11647  21580725.824    21580732.7764
  22935231.679   -10026516.155 8  -7788250.79546  22935230.890    22935240.5664
 01  4 18  1 44  0.0000000  0  9 17 21 29 23 03 09 15 18 31
  22403057.625   -17813819.396 8 -13851674.39446  22403056.957    22403067.8504
  21132874.120   -20858908.363 9 -15965564.11147  21132873.486    21132881.4034
  21224778.369   -17842703.396 9 -13250088.11347  21224778.092    21224787.0314
  22420374.451   -13842391.800 8 -10753737.79946  22420373.718    22420382.4584
  21581461.598   -18924798.875 9 -14717216.72847  21581461.185    21581470.0514
  23557823.789    -7241756.055 8  -5426704.35145  23557823.438    23557834.3334
  21174797.605   -23422257.138 9 -17959824.34347  21174796.803    21174805.3934
  21590796.374   -22342159.253 9 -17021200.18447  21590795.813    21590802.8384
  22926519.423   -10072298.313 8  -7823925.15846  22926518.801    22926528.5404
 01  4 18  1 44 30.0000000  0  9 17 21 29 23 03 09 15 18 31
  22417129.498   -17739871.310 8 -13794052.63746  22417128.924    22417139.7664
  21131171.942   -20867853.758 9 -15972534.53347  21131171.245    21131179.1054
  21212015.510   -17909772.141 9 -13302349.35247  21212015.238    21212024.1134
  22430430.586   -13789546.560 8 -10712559.74046  22430429.847    22430438.5084
  21585109.897   -18905627.343 9 -14702277.89547  21585109.479    21585118.3384
  23558290.146    -7239305.217 8  -5424794.57945  23558289.786    23558300.7584
  21184813.474   -23369623.571 9 -17918811.21747  21184812.670    21184821.2574
  21600890.858   -22289112.376 9 -16979864.98347  21600890.355    21600897.3274
  22917907.537   -10117554.355 8  -7859189.54846  22917906.853    22917916.5914
 01  4 18  1 45  0.0000000  0  9 17 21 29 23 03 09 15 18 31
  22431261.665   -17665607.249 8 -13736184.65146  22431261.031    22431271.8234
  21129497.772   -20876651.659 9 -15979390.03647  21129497.034    21129504.8904
  21199331.483   -17976426.722 9 -13354287.85747  21199331.199    21199340.0084
  22440495.801   -13736653.685 8 -10671344.57146  22440495.048    22440503.6414
  21588863.057   -18885905.074 9 -14686909.92347  21588862.562    21588871.3774
  23558862.706    -7236296.095 8  -5422449.80645  23558862.329    23558873.2914
  21194899.312   -23316622.225 9 -17877511.51547  21194898.527    21194907.0954
  21611009.658   -22235938.215 9 -16938430.60847  21611009.140    21611016.0554
  22909395.847   -10162283.193 8  -7894043.13546  22909395.136    22909404.9424
 01  4 18  1 45 30.0000000  0  9 17 21 29 23 03 09 15 18 31
  22445453.602   -17591028.290 8 -13678071.30846  22445452.946    22445463.8654
  21127851.216   -20885303.144 9 -15986131.45047  21127850.653    21127858.5224
  21186726.393   -18042666.301 9 -13405903.00247  21186726.135    21186734.8734
  22450569.884   -13683714.095 8 -10630092.99246  22450569.204    22450577.8864
  21592720.550   -18865633.560 9 -14671113.97947  21592720.091    21592728.9014
  23559541.617    -7232728.518 8  -5419669.85445  23559541.279    23559552.1094
  21205054.977   -23263253.766 9 -17835925.76647  21205054.186    21205062.8044
  21621152.312   -22182638.173 9 -16896898.14647  21621151.788    21621158.7464
  22900984.552   -10206484.215 8  -7928485.45846  22900983.979    22900993.7874
 01  4 18  1 46  0.0000000  0  9 17 21 29 23 03 09 15 18 31
  22459705.509   -17516134.609 8 -13619712.72746  22459704.860    22459715.7454
  21126232.673   -20893808.291 9 -15992758.83247  21126232.144    21126240.0114
  21174200.736   -18108488.929 9 -13457193.24147  21174200.456    21174209.0504
  22460652.882   -13630727.714 8 -10588804.96746  22460652.164    22460661.0344
  21596682.499   -18844813.451 9 -14654890.54747  21596682.038    21596690.8184
  23560327.100    -7228601.260 8  -5416453.80745  23560326.675    23560337.5184
  21215280.622   -23209517.806 9 -17794053.64647  21215279.827    21215288.4704
  21631318.862   -22129212.478 9 -16855267.77947  21631318.360    21631325.3744
  22892674.149   -10250156.000 8  -7962515.35046  22892673.422    22892683.2804
 01  4 18  1 46 30.0000000  0  9 17 21 29 23 03 09 15 18 31
  22474017.260   -17440926.264 8 -13561108.93246  22474016.622    22474027.4654
  21124642.266   -20902167.100 9 -15999272.18647  21124641.565    21124649.3834
  21161754.525   -18173893.156 9 -13508157.45647  21161754.283    21161762.9274
  22470744.634   -13577694.673 8 -10547480.59346  22470744.037    22470752.9664
  21600748.760   -18823445.501 9 -14638240.22747  21600748.263    21600757.0134
  23561219.044    -7223913.531 8  -5412801.00445  23561218.608    23561229.6054
  21225576.266   -23155414.198 9 -17751895.03647  21225575.440    21225584.0884
  21641509.292   -22075661.600 9 -16813539.87247  21641508.755    21641515.7934
  22884464.520   -10293296.797 8  -7996131.51046  22884463.956    22884473.6584
 01  4 18  1 47  0.0000000  0  9 17 21 29 23 03 09 15 18 31
  22488388.907   -17365403.351 8 -13502260.03046  22488388.242    22488399.0344
  21123079.633   -20910379.299 9 -16005671.29247  21123078.867    21123086.7214
  21149388.336   -18238877.378 9 -13558794.39347  21149388.103    21149396.8014
  22480845.477   -13524614.804 8 -10506119.70846  22480844.875    22480853.6904
  21604919.079   -18801530.572 9 -14621163.68447  21604918.556    21604927.3034
  23562217.863    -7218664.372 8  -5408710.73045  23562217.486    23562228.4574
  21235941.809   -23100942.606 9 -17709449.69847  21235941.014    21235949.7564
  21651723.479   -22021985.725 9 -16771714.54547  21651722.964    21651729.9664
  22876356.362   -10335904.844 8  -8029332.53546  22876355.839    22876365.5124
 01  4 18  1 47 30.0000000  0  9 17 21 29 23 03 09 15 18 31
  22502820.051   -17289567.549 8 -13443167.33646  22502819.432    22502830.2914
  21121544.396   -20918446.416 9 -16011957.35247  21121543.710    21121551.5834
  21137102.249   -18303441.016 9 -13609103.61147  21137102.009    21137110.7044
  22490955.042   -13471489.530 8 -10464723.44446  22490954.316    22490963.0494
  21609192.974   -18779070.690 9 -14603662.51747  21609192.497    21609201.3554
  23563323.626    -7212853.983 8  -5404183.15145  23563323.171    23563333.9434
  21246377.285   -23046104.131 9 -17666718.47047  21246376.489    21246385.2244
  21661961.109   -21968186.679 9 -16729793.25647  21661960.607    21661967.5994
  22868349.734   -10377979.789 8  -8062118.15746  22868349.192    22868358.8534
 01  4 18  1 48  0.0000000  0  9 17 21 29 23 03 09 15 18 31
  22517310.708   -17213419.350 8 -13383831.18646  22517310.041    22517320.8824
  21120036.679   -20926368.751 9 -16018130.59847  21120036.093    21120043.9584
  21124896.329   -18367583.144 9 -13659084.38047  21124896.079    21124904.7514
  22501072.923   -13418319.364 8 -10423292.21146  22501072.272    22501081.0334
  21613570.345   -18756067.358 9 -14585737.87847  21613569.937    21613578.8234
  23564536.003    -7206481.938 8  -5399217.90745  23564535.581    23564546.5594
  21256882.540   -22990899.047 9 -17623701.56247  21256881.697    21256890.3974
  21672222.072   -21914265.422 9 -16687776.74147  21672221.503    21672228.5614
  22860444.943   -10419520.448 8  -8094487.44746  22860444.324    22860453.8714
 01  4 18  1 48 30.0000000  0  9 17 21 29 23 03 09 15 18 31
  22531860.596   -17136959.245 8 -13324252.02246  22531859.938    22531870.8754
  21118556.519   -20934147.045 9 -16024191.60947  21118555.908    21118563.7334
  21112770.780   -18431302.565 9 -13708735.77047  21112770.553    21112779.1894
  22511199.473   -13365104.476 8 -10381826.11146  22511198.811    22511207.6574
  21618051.129   -18732521.653 9 -14567390.61047  21618050.645    21618059.4984
  23565855.558    -7199547.668 8  -5393814.56445  23565855.177    23565866.0104
  21267457.427   -22935327.541 9 -17580399.15047  21267456.636    21267465.3914
  21682506.147   -21860222.582 9 -16645665.49747  21682505.554    21682512.6154
  22852642.118   -10460525.465 8  -8126439.36346  22852641.326    22852650.8104
 01  4 18  1 49  0.0000000  0  9 17 21 29 23 03 09 15 18 31
  22546469.843   -17060187.416 8 -13264429.95246  22546469.214    22546480.2214
  21117103.870   -20941781.332 9 -16030140.40647  21117103.154    21117110.9774
  21100726.129   -18494597.332 9 -13758056.26947  21100725.862    21100734.4014
  22521334.515   -13311844.643 8 -10340325.00746  22521333.845    22521342.7664
  21622634.836   -18708434.130 9 -14548621.15147  21622634.362    21622643.2294
  23567282.318    -7192049.962 8  -5387972.17045  23567281.900    23567292.9174
  21278102.237   -22879389.350 9 -17536811.00347  21278101.427    21278110.1454
  21692813.334   -21806058.132 9 -16603459.49547  21692812.758    21692819.8184
  22844941.262   -10500992.834 8  -8157972.34246  22844940.587    22844950.0394
 01  4 18  1 49 30.0000000  0  9 17 21 29 23 03 09 15 18 31
  22561138.302   -16983104.675 8 -13204365.59846  22561137.649    22561148.6454
  21115678.472   -20949272.223 9 -16035977.46247  21115677.700    21115685.5224
  21088762.358   -18557466.556 9 -13807045.17147  21088762.134    21088770.6504
  22531477.967   -13258540.644 8 -10298789.48446  22531477.253    22531486.1704
  21627321.331   -18683806.644 9 -14529430.93847  21627320.847    21627329.6974
  23568816.251    -7183988.881 8  -5381690.77645  23568815.898    23568826.9004
  21288816.711   -22823084.805 9 -17492937.37847  21288815.909    21288824.5714
  21703143.338   -21751773.216 9 -16561159.62747  21703142.827    21703149.8984
  22837342.849   -10540922.009 8  -8189085.94846  22837342.237    22837351.7434
 01  4 18  1 50  0.0000000  0  9 17 21 29 23 03 09 15 18 31
  22575865.882   -16905711.095 8 -13144059.01346  22575865.243    22575876.2314
  21114280.311   -20956619.313 9 -16041702.46147  21114279.589    21114287.4214
  21076880.001   -18619908.440 9 -13855701.08247  21076879.770    21076888.2104
  22541629.848   -13205192.188 8 -10257219.33046  22541629.215    22541637.9774
  21632110.300   -18658639.706 9 -14509820.38447  21632109.872    21632118.8234
  23570457.673    -7175363.383 8  -5374969.59445  23570457.293    23570468.2164
  21299600.910   -22766413.782 9 -17448778.19947  21299600.094    21299608.7564
  21713496.344   -21697367.951 9 -16518765.95147  21713495.829    21713502.9064
  22829847.467   -10580311.372 8  -8219778.90746  22829846.606    22829856.1604
 01  4 18  1 50 30.0000000  0  9 17 21 29 23 03 09 15 18 31
  22590652.203   -16828009.190 8 -13083512.21446  22590651.517    22590662.5754
  21112909.065   -20963824.940 9 -16047317.23947  21112908.398    21112916.2694
  21065078.840   -18681923.827 9 -13904024.66047  21065078.590    21065086.9384
  22551789.912   -13151801.359 8 -10215616.14346  22551789.251    22551797.9694
  21637001.446   -18632936.608 9 -14489792.04147  21637001.026    21637010.0544
  23572206.069    -7166175.003 8  -5367809.79845  23572205.722    23572216.7014
  21310454.389   -22709378.177 9 -17404334.92947  21310453.580    21310462.2934
  21723871.912   -21642844.850 9 -16476280.46147  21723871.287    21723878.3514
  22822454.166   -10619161.521 8  -8250051.72346  22822453.585    22822463.2214
 01  4 18  1 51  0.0000000  0  9 17 21 29 23 03 09 15 18 31
  22605497.289   -16749997.818 8 -13022724.25246  22605496.690    22605507.7774
  21111565.023   -20970887.221 9 -16052820.32447  21111564.428    21111572.3084
  21053359.341   -18743509.967 9 -13952013.76547  21053359.113    21053367.4374
  22561958.139   -13098366.823 8 -10173978.89646  22561957.502    22561966.4294
  21641994.711   -18606697.076 9 -14469345.69647  21641994.249    21642003.2424
  23574062.182    -7156421.417 8  -5360209.60945  23574061.867    23574072.4934
  21321377.578   -22651976.617 9 -17359606.48447  21321376.778    21321385.4794
  21734269.878   -21588203.076 9 -16433702.49447  21734269.269    21734276.4034
  22815164.414   -10657469.674 8  -8279902.18346  22815163.751    22815173.4244
 01  4 18  1 51 30.0000000  0  9 17 21 29 23 03 09 15 18 31
  22620401.139   -16671678.544 8 -12961696.37346  22620400.463    22620411.6564
  21110248.113   -20977807.470 9 -16058212.72647  21110247.540    21110255.4044
  21041721.700   -18804666.302 9 -13999667.95747  21041721.429    21041729.6994
  22572134.435   -13044889.803 8 -10132308.52646  22572133.777    22572142.8554
  21647089.599   -18579923.426 9 -14448483.15647  21647089.132    21647098.0374
  23576025.532    -7146103.146 8  -5352169.35345  23576025.248    23576036.1644
  21332370.178   -22594210.183 9 -17314593.73047  21332369.358    21332378.1274
  21744690.163   -21533444.251 9 -16391033.32247  21744689.545    21744696.7294
  22807978.051   -10695235.464 8  -8309330.01746  22807977.056    22807986.8594
 01  4 18  1 52  0.0000000  0  9 17 21 29 23 03 09 15 18 31
  22635363.348   -16593051.826 8 -12900428.93046  22635362.695    22635373.9584
  21108958.272   -20984586.154 9 -16063494.81947  21108957.673    21108965.4554
  21030165.950   -18865391.711 9 -14046986.36447  21030165.669    21030173.9594
  22582318.842   -12991370.304 8 -10090605.06746  22582318.236    22582327.2094
  21652285.918   -18552616.645 9 -14427205.18947  21652285.495    21652294.4334
  23578096.724    -7135219.838 8  -5343688.85745  23578096.374    23578107.1324
  21343432.070   -22536078.972 9 -17269296.74447  21343431.320    21343440.1454
  21755132.571   -21478568.771 9 -16348273.25947  21755132.026    21755139.1804
  22800894.656   -10732457.548 8  -8338334.21746  22800893.860    22800903.5904
 01  4 18  1 52 30.0000000  0  9 17 21 29 23 03 09 15 18 31
  22650384.158   -16514117.140 8 -12838921.52146  22650383.466    22650394.8434
  21107695.449   -20991222.926 9 -16068666.32747  21107694.767    21107702.5074
  21018692.572   -18925684.058 9 -14093967.32647  21018692.292    21018700.6704
  22592511.601   -12937807.764 8 -10048868.05946  22592510.950    22592519.7434
  21657583.702   -18524777.226 9 -14405512.18247  21657583.237    21657592.1604
  23580275.329    -7123769.963 8  -5334766.84445  23580275.016    23580285.8634
  21354563.782   -22477582.146 9 -17223714.83947  21354562.994    21354571.7444
  21765597.380   -21423576.315 9 -16305422.04547  21765596.801    21765603.8794
  22793915.311   -10769133.961 8  -8366913.21346  22793914.601    22793924.1384
 01  4 18  1 53  0.0000000  0  9 17 21 29 23 03 09 15 18 31
  22665463.307   -16434876.648 8 -12777175.79346  22665462.616    22665473.9074
  21106459.323   -20997718.547 9 -16073727.85447  21106458.653    21106466.4524
  21007301.626   -18985543.305 9 -14140610.80647  21007301.328    21007309.7394
  22602712.143   -12884203.602 8 -10007098.63046  22602711.529    22602720.4014
  21662982.342   -18496407.677 9 -14383406.08047  21662981.800    21662990.7444
  23582561.795    -7111754.450 8  -5325404.08245  23582561.492    23582572.5324
  21365764.667   -22418721.218 9 -17177849.23447  21365763.859    21365772.6584
  21776084.070   -21368468.446 9 -16262480.89347  21776083.491    21776090.6054
  22787039.992   -10805264.913 8  -8395067.17346  22787039.181    22787048.5424
 01  4 18  1 53 30.0000000  0  9 17 21 29 23 03 09 15 18 31
  22680600.421   -16355331.393 8 -12715192.57946  22680599.698    22680610.9454
  21105249.759   -21004074.251 9 -16078680.35347  21105249.160    21105257.0094
  20995993.086   -19044969.231 9 -14186916.63747  20995992.797    20996001.2614
  22612920.380   -12830558.612 8  -9965297.38846  22612919.751    22612928.8394
  21668481.387   -18467509.893 9 -14360888.36647  21668480.863    21668489.8544
  23584955.828    -7099173.595 8  -5315600.80845  23584955.425    23584966.4354
  21377034.622   -22359497.170 9 -17131700.68747  21377033.847    21377042.7614
  21786592.528   -21313246.666 9 -16219450.97747  21786591.916    21786599.0734
  22780268.417   -10840849.865 8  -8422795.68346  22780267.608    22780276.9754
 01  4 18  1 54  0.0000000  0  9 17 21 29 23 03 09 15 18 31
  22695795.534   -16275481.208 8 -12652971.77246  22695794.848    22695806.1354
  21104067.076   -21010289.244 9 -16083523.20647  21104066.479    21104074.3794
  20984767.442   -19103959.465 9 -14232882.96647  20984767.208    20984775.6334
  22623136.561   -12776872.259 8  -9923463.90346  22623135.979    22623145.0504
  21674080.789   -18438084.725 9 -14337959.71247  21674080.286    21674089.3924
  23587457.769    -7086026.232 8  -5305356.10745  23587457.403    23587468.3774
  21388373.931   -22299909.032 8 -17085268.40747  21388373.108    21388382.0414
  21797122.612   -21257910.615 9 -16176332.01147  21797122.037    21797129.2034
  22773601.047   -10875886.894 8  -8450097.24046  22773600.334    22773609.6744
 01  4 18  1 54 30.0000000  0  9 17 21 29 23 03 09 15 18 31
  22711048.588   -16195326.264 8 -12590513.49946  22711047.898    22711059.2604
  21102911.370   -21016363.565 9 -16088256.44547  21102910.649    21102918.4624
  20973625.098   -19162512.830 9 -14278508.88547  20973624.832    20973633.1604
  22633360.806   -12723144.240 8  -9881597.93646  22633360.161    22633369.0914
  21679780.291   -18408133.249 9 -14314620.94347  21679779.861    21679788.9864
  23590067.327    -7072311.703 8  -5294669.42145  23590066.986    23590078.1004
  21399782.332   -22239957.218 9 -17038552.75247  21399781.550    21399790.4484
  21807674.392   -21202460.635 9 -16133124.26647  21807673.802    21807680.9594
  22767038.285   -10910374.689 8  -8476970.81846  22767037.518    22767046.8594
 01  4 18  1 55  0.0000000  0  9 17 21 29 23 03 09 15 18 31
  22726359.303   -16114867.134 8 -12527818.22446  22726358.759    22726370.3394
  21101782.417   -21022297.111 9 -16092879.98247  21101781.561    21101789.3054
  20962565.987   -19220627.991 9 -14323793.33847  20962565.758    20962574.0694
  22643592.845   -12669374.558 8  -9839699.51946  22643592.207    22643601.1674
  21685579.846   -18377656.609 9 -14290872.95547  21685579.416    21685588.4484
  23592785.193    -7058029.509 8  -5283540.44645  23592784.766    23592795.7634
  21411260.007   -22179641.750 9 -16991553.73647  21411259.213    21411268.1424
  21818247.807   -21146897.197 9 -16089828.12247  21818247.242    21818254.3474
  22760580.103   -10944312.167 8  -8503415.57746  22760579.389    22760588.7774
 01  4 18  1 55 30.0000000  0  9 17 21 29 23 03 09 15 18 31
  22741727.976   -16034105.232 8 -12464887.00046  22741727.309    22741738.9274
  21100679.612   -21028091.167 9 -16097394.82647  21100678.904    21100686.6814
  20951590.426   -19278304.604 9 -14368736.07347  20951590.196    20951598.4714
  22653832.678   -12615564.130 8  -9797769.34546  22653832.048    22653841.0244
  21691478.935   -18346656.879 9 -14266717.37347  21691478.522    21691487.5244
  23595610.808    -7043180.315 8  -5271969.61845  23595610.439    23595621.7504
  21422806.787   -22118963.431 9 -16944271.97747  21422805.950    21422814.9194
  21828842.629   -21091221.494 9 -16046444.48447  21828842.007    21828849.1794
  22754226.668   -10977699.114 8  -8529431.36446  22754226.067    22754235.4494
 01  4 18  1 56  0.0000000  0  9 17 21 29 23 03 09 15 18 31
  22757153.731   -15953042.362 8 -12401721.25745  22757153.031    22757164.7784
  21099603.038   -21033747.222 9 -16101802.14147  21099602.549    21099610.4054
  20940698.302   -19335542.846 9 -14413337.21847  20940698.057    20940706.3004
  22664079.928   -12561714.474 8  -9755808.61746  22664079.284    22664088.2944
  21697476.964   -18315136.940 8 -14242156.42147  21697476.559    21697485.6724
  23598544.435    -7027765.231 8  -5259957.89545  23598544.008    23598554.9064
  21434422.230   -22057923.955 9 -16896708.78847  21434421.409    21434430.3914
  21839458.412   -21035435.203 9 -16002974.66947  21839457.808    21839465.0294
  22747978.129   -11010535.685 8  -8555018.28946  22747977.443    22747986.8334
 01  4 18  1 56 30.0000000  0  9 17 21 29 23 03 09 15 18 31
  22772637.044   -15871677.734 8 -12338320.35445  22772636.341    22772648.0504
  21098553.165   -21039263.787 9 -16106100.75347  21098552.776    21098560.6374
  20929890.014   -19392340.181 9 -14457594.78847  20929889.779    20929898.0124
  22674334.962   -12507824.136 8  -9713816.18946  22674334.255    22674343.3474
  21703574.024   -18283096.795 9 -14217190.11547  21703573.619    21703582.8524
  23601585.758    -7011782.356 8  -5247503.69545  23601585.293    23601596.2994
  21446106.701   -21996521.880 9 -16848863.05447  21446105.890    21446114.7944
  21850095.420   -20979537.663 9 -15959418.17547  21850094.834    21850102.0114
  22741834.801   -11042819.291 8  -8580174.33246  22741834.036    22741843.3994
 01  4 18  1 57  0.0000000  0  9 17 21 29 23 03 09 15 18 31
  22788177.222   -15790014.423 8 -12274686.71046  22788176.463    22788188.1824
  21097529.735   -21044643.136 9 -16110292.43947  21097529.184    21097537.0024
  20919165.383   -19448697.815 9 -14501509.74147  20919165.183    20919173.4264
  22684597.194   -12453895.727 8  -9671794.09146  22684596.511    22684605.5774
  21709769.239   -18250540.576 9 -14191821.67447  21709768.850    21709778.1114
  23604734.861    -6995233.987 8  -5234608.85645  23604734.482    23604745.4424
  21457859.640   -21934759.819 9 -16800736.82847  21457858.853    21457867.8434
  21860753.076   -20923531.323 9 -15915776.88947  21860752.456    21860759.6214
  22735796.399   -11074551.484 8  -8604900.69846  22735795.536    22735804.9374
 01  4 18  1 57 30.0000000  0  9 17 21 29 23 03 09 15 18 31
  22803774.699   -15708049.402 8 -12210817.95146  22803773.975    22803785.6394
  21096532.910   -21049882.219 9 -16114374.83347  21096532.215    21096540.0494
  20908525.363   -19504611.262 9 -14545078.56847  20908525.159    20908533.4314
  22694867.376   -12399925.812 8  -9629739.64346  22694866.711    22694875.7654
  21716063.082   -18217466.008 9 -14166049.33247  21716062.732    21716071.9734
  23607992.153    -6978116.435 8  -5221270.48645  23607991.738    23608002.5964
  21469681.745   -21872634.628 9 -16752327.64347  21469680.959    21469689.9744
  21871431.854   -20867413.282 9 -15872048.59047  21871431.293    21871438.5724
  22729863.582   -11105727.776 8  -8629193.89446  22729862.804    22729872.2454
 01  4 18  1 58  0.0000000  0  9 17 21 29 23 03 09 15 18 31
  22819429.120   -15625785.400 8 -12146716.23646  22819428.408    22819440.0544
  21095562.139   -21054983.410 9 -16118349.78147  21095561.437    21095569.3364
  20897969.724   -19560081.615 9 -14588302.13747  20897969.507    20897977.7814
  22705144.996   -12345916.394 8  -9587654.41746  22705144.366    22705153.4564
  21722455.093   -18183876.698 9 -14139875.88347  21722454.658    21722463.8414
  23611357.489    -6960431.325 8  -5207489.87645  23611357.187    23611368.1624
  21481572.472   -21810148.856 9 -16703637.47147  21481571.677    21481580.6304
  21882131.621   -20811186.026 9 -15828235.16747  21882131.066    21882138.3974
  22724036.426   -11136349.202 8  -8653054.74146  22724035.727    22724045.2354
 01  4 18  1 58 30.0000000  0  9 17 21 29 23 03 09 15 18 31
  22835140.362   -15543222.740 8 -12082381.80946  22835139.612    22835151.3304
  21094617.672   -21059946.023 9 -16122216.75047  21094617.050    21094624.9444
  20887498.687   -19615107.165 9 -14631179.10247  20887498.476    20887506.7244
  22715430.294   -12291866.993 8  -9545538.04546  22715429.635    22715438.7354
  21728944.750   -18149773.725 8 -14113302.18047  21728944.275    21728953.4184
  23614830.919    -6942178.134 8  -5193266.61245  23614830.643    23614841.3634
  21493531.847   -21747301.973 9 -16654665.91647  21493531.058    21493540.0174
  21892852.209   -20754849.662 8 -15784336.72247  21892851.604    21892858.8994
  22718315.264   -11166414.423 8  -8676482.16446  22718314.548    22718323.9954
 01  4 18  1 59  0.0000000  0  9 17 21 29 23 03 09 15 18 31
  22850907.890   -15460363.488 8 -12017816.30145  22850907.157    22850919.0664
  21093699.472   -21064771.796 9 -16125977.07547  21093698.776    21093706.6294
  20877112.211   -19669688.511 9 -14673709.93947  20877111.956    20877120.1354
  22725722.920   -12237779.384 8  -9503391.88846  22725722.260    22725731.3644
  21735531.438   -18115160.176 9 -14086330.63347  21735531.005    21735540.1114
  23618412.170    -6923358.316 8  -5178601.82745  23618411.934    23618422.6954
  21505559.586   -21684095.755 9 -16605414.38547  21505558.782    21505567.8094
  21903592.926   -20698406.221 9 -15740354.84247  21903592.379    21903599.6724
  22712699.640   -11195924.076 8  -8699476.68046  22712698.925    22712708.4454
 01  4 18  1 59 30.0000000  0  9 17 21 29 23 03 09 15 18 31
  22866732.072   -15377207.385 8 -11953019.43645  22866731.401    22866743.1094
  21092807.392   -21069459.648 9 -16129629.93347  21092806.714    21092814.5254
  20866810.648   -19723823.646 9 -14715893.07847  20866810.368    20866818.4774
  22736022.899   -12183652.570 8  -9461215.19346  22736022.280    22736031.3424
  21742215.171   -18080036.847 8 -14058961.84847  21742214.758    21742223.8254
  23622101.353    -6903971.049 8  -5163494.83845  23622101.069    23622111.9834
  21517655.818   -21620529.883 9 -16555882.58047  21517655.037    21517664.0024
  21914354.219   -20641855.206 9 -15696289.13547  21914353.698    21914360.8754
  22707190.050   -11224876.479 8  -8722036.99046  22707189.430    22707198.9884
 01  4 18  2  0  0.0000000  0  9 17 21 29 23 03 09 15 18 31
  22882612.568   -15293755.808 8 -11887992.31246  22882611.867    22882623.4634
  21091941.206   -21074010.766 9 -16133176.24947  21091940.613    21091948.4384
  20856594.025   -19777512.205 9 -14757728.22947  20856593.731    20856601.7974
  22746330.233   -12129487.120 8  -9419008.38446  22746329.583    22746338.6594
  21748995.582   -18044405.684 9 -14031197.35347  21748995.194    21749004.3464
  23625898.717    -6884016.611 8  -5147945.95245  23625898.401    23625909.1114
  21529820.299   -21556605.104 8 -16506071.11847  21529819.516    21529828.5124
  21925135.863   -20585197.389 8 -15652140.21647  21925135.295    21925142.5164
  22701786.696   -11253271.178 8  -8744162.71446  22701786.011    22701795.5814
 01  4 18  2  0 30.0000000  0  9 17 21 29 23 03 09 15 18 31
  22898548.849   -15210010.201 8 -11822736.09546  22898548.205    22898559.8794
  21091101.036   -21078426.059 9 -16136616.72047  21091100.395    21091108.2304
  20846462.315   -19830754.060 9 -14799215.30747  20846462.025    20846470.0174
  22756644.769   -12075284.010 8  -9376772.22446  22756644.192    22756653.1484
  21755872.217   -18008269.313 9 -14003039.18247  21755871.783    21755880.9624
  23629803.684    -6863495.844 8  -5131955.73145  23629803.408    23629814.2414
  21542052.855   -21492322.617 9 -16455980.92647  21542052.058    21542061.0944
  21935937.567   -20528434.185 9 -15607909.18947  21935937.027    21935944.3574
  22696489.436   -11281107.767 8  -8765853.56146  22696488.868    22696498.4144
 01  4 18  2  1  0.0000000  0  9 17 21 29 23 03 09 15 18 31
  22914541.296   -15125969.928 8 -11757250.25145  22914540.624    22914552.4224
  21090287.144   -21082703.820 9 -16139950.02347  21090286.389    21090294.2304
  20836416.014   -19883546.861 9 -14840352.46747  20836415.760    20836423.7184
  22766966.832   -12021041.880 8  -9334505.68246  22766966.158    22766975.2434
  21762844.946   -17971627.860 9 -13974487.45147  21762844.476    21762853.6514
  23633816.731    -6842407.183 8  -5115523.00245  23633816.400    23633827.3064
  21554353.744   -21427681.530 8 -16405611.29647  21554352.892    21554361.9694
  21946759.620   -20471564.562 9 -15563595.22747  21946759.025    21946766.4334
  22691298.812   -11308384.656 8  -8787108.25846  22691298.211    22691307.7494
 01  4 18  2  1 30.0000000  0  9 17 21 29 23 03 09 15 18 31
  22930589.405   -15041636.768 8 -11691536.21445  22930588.733    22930600.5044
  21089499.054   -21086845.400 9 -16143177.21447  21089498.224    21089506.1194
  20826455.215   -19935890.723 9 -14881139.81447  20826454.965    20826462.8554
  22777295.916   -11966761.840 8  -9292209.58146  22777295.266    22777304.6134
  21769913.166   -17934483.900 8 -13945544.15947  21769912.693    21769921.9714
  23637937.618    -6820751.835 8  -5098648.72645  23637937.237    23637948.1344
  21566722.541   -21362683.098 9 -16354963.22747  21566721.689    21566730.7574
  21957601.472   -20414590.010 8 -15519199.50447  21957600.929    21957608.3284
  22686214.670   -11335101.896 8  -8807926.87946  22686214.061    22686223.6414
 01  4 18  2  2  0.0000000  0  9 17 21 29 23 03 09 15 18 31
  22946693.166   -14957011.853 8 -11625594.79545  22946692.495    22946704.1114
  21088736.593   -21090851.516 9 -16146298.86047  21088735.822    21088743.7364
  20816579.922   -19987785.194 9 -14921576.97947  20816579.692    20816587.5854
  22787632.215   -11912444.273 8  -9249884.25646  22787631.611    22787640.9434
  21777076.556   -17896839.486 8 -13916210.90947  21777076.144    21777085.5184
  23642166.233    -6798530.502 8  -5081333.40545  23642165.779    23642176.6084
  21579159.220   -21297328.043 8 -16304037.27247  21579158.419    21579167.4904
  21968463.093   -20357511.558 8 -15474722.82347  21968462.570    21968469.8904
  22681237.028   -11361259.296 8  -8828309.25846  22681236.457    22681246.1204
 01  4 18  2  2 30.0000000  0  9 17 21 29 23 03 09 15 18 31
  22962852.210   -14872096.178 8 -11559426.85245  22962851.479    22962863.1494
  21087999.899   -21094722.464 9 -16149315.17047  21087999.202    21088007.0504
  20806790.379   -20039229.554 9 -14961663.42047  20806790.119    20806797.9914
  22797975.782   -11858089.366 8  -9207529.81346  22797975.080    22797984.1444
  21784335.014   -17858696.669 8 -13886489.28747  21784334.539    21784343.8274
  23646502.489    -6775743.228 8  -5063577.07945  23646502.028    23646512.8974
  21591663.743   -21231616.973 8 -16252833.89547  21591662.863    21591671.8844
  21979344.419   -20300329.661 8 -15430165.53347  21979343.977    21979351.2414
  22676366.167   -11386856.384 8  -8848255.03146  22676365.499    22676375.2154
 01  4 18  2  3  0.0000000  0  9 17 21 29 23 03 09 15 18 31
  22979066.383   -14786890.099 8 -11493032.62845  22979065.744    22979077.5534
  21087289.239   -21098457.312 9 -16152225.41647  21087288.514    21087296.2834
  20797086.701   -20090222.560 9 -15001398.14747  20797086.437    20797094.3014
  22808326.299   -11803696.808 8  -9165146.03446  22808325.645    22808334.5994
  21791687.923   -17820056.799 8 -13856380.35747  21791687.479    21791696.7054
  23650946.448    -6752389.736 8  -5045379.52945  23650945.981    23650957.0534
  21604235.932   -21165549.785 8 -16201353.01647  21604235.079    21604244.0854
  21990245.572   -20243044.267 8 -15385527.59147  21990245.080    21990252.3984
  22671602.105   -11411892.021 8  -8867763.31146  22671601.367    22671611.0474
 01  4 18  2  3 30.0000000  0  9 17 21 29 23 03 09 15 18 31
  22995335.927   -14701393.476 8 -11426411.97945  22995335.281    22995347.1124
  21086604.451   -21102055.596 9 -16155029.25747  21086603.758    21086611.5464
  20787469.272   -20140762.416 9 -15040779.77647  20787468.995    20787476.8234
  22818684.310   -11749265.783 8  -9122732.27846  22818683.565    22818692.6544
  21799135.262   -17780920.934 8 -13825884.93347  21799134.853    21799144.0514
  23655498.420    -6728469.214 8  -5026740.15745  23655497.990    23655508.9094
  21616875.912   -21099126.222 8 -16149594.45547  21616875.079    21616884.1804
  22001166.469   -20185655.005 9 -15340808.71347  22001165.900    22001173.3434
  22666944.941   -11436364.484 8  -8886832.74946  22666944.411    22666954.1064
 01  4 18  2  4  0.0000000  0  9 17 21 29 23 03 09 15 18 31
  23011659.885   -14615610.660 8 -11359568.30645  23011659.340    23011670.9884
  21085944.875   -21105521.241 9 -16157729.75147  21085944.235    21085952.1054
  20777937.525   -20190851.916 9 -15079810.47847  20777937.253    20777945.0804
  22829048.834   -11694799.740 8  -9080291.24046  22829048.099    22829057.3234
  21806676.115   -17741294.225 9 -13795007.03147  21806675.653    21806684.8914
  23660157.597    -6703985.401 8  -5007661.85145  23660157.114    23660167.9574
  21629582.966   -21032350.223 8 -16097561.26747  21629582.142    21629591.3234
  22012106.326   -20128165.709 9 -15296011.88547  22012105.776    22012113.2634
  22662394.732   -11460276.638 8  -8905465.58146  22662394.061    22662403.6944
 01  4 18  2  4 30.0000000  0  9 17 21 29 23 03 09 15 18 31
  23028038.695   -14529539.068 8 -11292499.65245  23028038.191    23028049.9464
  21085311.235   -21108850.815 9 -16160324.21747  21085310.603    21085318.5084
  20768492.268   -20240486.837 9 -15118486.96747  20768491.982    20768499.7934
  22839420.651   -11640295.428 8  -9037820.39546  22839419.889    22839429.2344
  21814310.563   -17701175.128 8 -13763745.45247  21814310.097    21814319.4224
  23664924.417    -6678935.388 8  -4988142.37245  23664923.994    23664934.7184
  21642357.676   -20965218.933 8 -16045251.20447  21642356.878    21642366.0364
  22023065.780   -20070573.472 8 -15251134.85047  22023065.259    22023072.6684
  22657951.749   -11483624.719 8  -8923658.87046  22657951.057    22657960.6144
 01  4 18  2  5  0.0000000  0  9 17 21 29 23 03 09 15 18 31
  23044472.311   -14443180.197 8 -11225207.13345  23044471.874    23044483.6894
  21084703.488   -21112044.696 9 -16162812.95047  21084702.884    21084710.7074
  20759133.514   -20289666.908 9 -15156809.03047  20759133.231    20759140.9824
  22849799.630   -11585753.391 8  -8995320.14346  22849798.913    22849808.2574
  21822038.195   -17660566.076 8 -13732102.09747  21822037.787    21822047.1914
  23669798.886    -6653319.707 8  -4968182.07545  23669798.510    23669809.3914
  21655199.822   -20897733.266 8 -15992665.01447  21655198.958    21655208.1804
  22034044.641   -20012879.302 8 -15206178.38447  22034044.099    22034051.4574
  22653616.072   -11506408.703 8  -8941412.60446  22653615.418    22653624.8814
 01  4 18  2  5 30.0000000  0  9 17 21 29 23 03 09 15 18 31
  23060960.339   -14356535.728 8 -11157692.07545  23060959.760    23060971.6524
  21084121.385   -21115103.438 9 -16165196.36647  21084120.807    21084128.5904
  20749861.339   -20338392.320 9 -15194776.81647  20749861.050    20749868.7174
  22860185.800   -11531174.359 8  -8952791.06246  22860185.043    22860194.3814
  21829858.730   -17619469.646 8 -13700078.96047  21829858.234    21829867.6614
  23674780.807    -6627139.343 8  -4947781.76945  23674780.380    23674791.3094
  21668109.146   -20829894.299 8 -15939803.53547  21668108.321    21668117.6294
  22045042.588   -19955084.492 8 -15161143.48647  22045042.065    22045049.4334
  22649387.802   -11528628.878 8  -8958727.00746  22649387.035    22649396.4674
 01  4 18  2  6  0.0000000  0  9 17 21 29 23 03 09 15 18 31
  23077502.375   -14269606.375 8 -11089955.02045  23077501.858    23077513.8044
  21083564.737   -21118028.374 9 -16167475.53047  21083564.163    21083571.9884
  20740675.765   -20386662.382 9 -15232389.77647  20740675.489    20740683.1754
  22870578.910   -11476558.389 8  -8910233.19846  22870578.149    22870587.4414
  21837771.535   -17577887.720 8 -13667677.51247  21837771.046    21837780.4944
  23679870.164    -6600394.805 8  -4926941.85745  23679869.697    23679880.5904
  21681085.623   -20761702.808 8 -15886667.35247  21681084.817    21681094.0904
  22056059.689   -19897189.394 8 -15116030.45247  22056059.178    22056066.5564
  22645266.789   -11550284.791 8  -8975601.73346  22645266.068    22645275.5184
 01  4 18  2  6 30.0000000  0  9 17 21 29 23 03 09 15 18 31
  23094098.446   -14182393.593 8 -11021997.11445  23094097.879    23094109.9424
  21083033.513   -21120819.525 9 -16169650.43147  21083032.960    21083040.8464
  20731576.972   -20434476.650 9 -15269647.57847  20731576.679    20731584.3824
  22880978.822   -11421905.909 8  -8867646.89046  22880978.088    22880987.3194
  21845776.268   -17535822.653 9 -13634899.59747  21845775.794    21845785.2624
  23685066.643    -6573086.757 8  -4905662.84445  23685066.260    23685077.2664
  21694128.924   -20693159.821 8 -15833257.27147  21694128.088    21694137.3854
  22067095.805   -19839194.613 8 -15070839.73647  22067095.278    22067102.5984
  22641253.308   -11571376.120 8  -8992036.51746  22641252.557    22641261.9534
 01  4 18  2  7  0.0000000  0  9 17 21 29 23 03 09 15 18 31
  23110748.539   -14094897.208 8 -10953818.21745  23110747.952    23110760.1194
  21082528.145   -21123475.490 9 -16171720.00847  21082527.570    21082535.4444
  20722565.114   -20481833.545 9 -15306548.98647  20722564.837    20722572.5774
  22891385.963   -11367215.934 8  -8825031.34946  22891385.243    22891394.5254
  21853872.796   -17493275.483 8 -13601746.02147  21853872.339    21853881.7604
  23690370.603    -6545214.625 8  -4883944.29445  23690370.129    23690381.0784
  21707239.166   -20624264.685 8 -15779572.80247  21707238.371    21707247.7494
  22078150.784   -19781099.847 8 -15025571.11547  22078150.285    22078157.6514
  22637347.485   -11591901.815 8  -9008030.54146  22637346.711    22637356.0054
 01  4 18  2  7 30.0000000  0  9 17 21 29 23 03 09 15 18 31
  23127451.784   -14007121.035 7 -10885421.34245  23127451.109    23127463.6774
  21082047.798   -21125999.749 9 -16173686.95247  21082047.212    21082055.0544
  20713639.927   -20528735.372 9 -15343095.79247  20713639.656    20713647.3044
  22901799.733   -11312491.417 8  -8782388.90246  22901799.074    22901808.5784
  21862060.186   -17450250.940 8 -13568220.45847  21862059.701    21862069.1054
  23695781.164    -6516781.861 8  -4861788.90045  23695780.752    23695791.7564
  21720415.805   -20555021.060 8 -15725616.77747  21720415.029    21720424.3894
  22089224.330   -19722908.299 8 -14980227.06746  22089223.789    22089231.1714
  22633548.882   -11611864.032 8  -9023585.50046  22633548.100    22633557.2684
 01  4 18  2  8  0.0000000  0  9 17 21 29 23 03 09 15 18 31
  23144208.798   -13919062.041 8 -10816804.06845  23144208.218    23144220.8424
  21081593.424   -21128387.620 9 -16175547.61747  21081592.817    21081600.6144
  20704802.263   -20575177.376 9 -15379284.30247  20704801.974    20704809.5664
  22912221.043   -11257728.218 8  -8739716.29646  22912220.271    22912229.6574
  21870338.688   -17406747.186 9 -13534321.48347  21870338.200    21870347.6234
  23701299.297    -6487784.362 8  -4839193.45645  23701298.883    23701309.6104
  21733659.526   -20485425.347 8 -15671386.37747  21733658.701    21733668.0784
  22100316.948   -19664616.210 8 -14934804.68446  22100316.399    22100323.7864
  22629858.330   -11631258.216 8  -9038697.83446  22629857.526    22629866.6024
 01  4 18  2  8 30.0000000  0  9 17 21 29 23 03 09 15 18 31
  23161019.271   -13830724.116 8 -10747969.40445  23161018.630    23161030.9564
  21081164.431   -21130642.625 9 -16177304.75147  21081163.714    21081171.4994
  20696051.588   -20621161.856 9 -15415116.29247  20696051.312    20696058.9164
  22922648.877   -11202929.334 8  -8697015.87946  22922648.061    22922657.3434
  21878707.393   -17362769.120 8 -13500052.92047  21878706.986    21878716.3674
  23706923.926    -6458225.926 8  -4816160.89445  23706923.609    23706934.4094
  21746969.468   -20415481.138 8 -15616884.43947  21746968.637    21746978.0114
  22111428.156   -19606227.142 8 -14889306.71746  22111427.557    22111434.8464
  22626275.365   -11650087.303 8  -9053369.83746  22626274.436    22626283.5144
 01  4 18  2  9  0.0000000  0  9 17 21 29 23 03 09 15 18 31
  23177882.601   -13742107.737 8 -10678917.76945  23177881.966    23177894.1334
  21080760.642   -21132764.269 9 -16178957.96547  21080759.934    21080767.7424
  20687388.175   -20666687.819 9 -15450591.00047  20687387.949    20687395.6134
  22933083.498   -11148094.239 8  -8654287.26246  22933082.777    22933092.0764
  21887166.214   -17318318.157 8 -13465415.86647  21887165.770    21887175.1214
  23712655.461    -6428106.487 8  -4792691.19445  23712655.131    23712665.9854
  21760345.800   -20345188.639 8 -15562111.09547  21760344.947    21760354.2694
  22122557.713   -19547740.805 8 -14843732.96246  22122557.122    22122564.4624
  22622799.998   -11668350.398 8  -9067600.78646  22622799.032    22622808.1604
 01  4 18  2  9 30.0000000  0  9 17 21 29 23 03 09 15 18 31
  23194798.863   -13653212.706 8 -10609649.03445  23194798.265    23194810.5044
  21080382.256   -21134752.043 9 -16180506.86447  21080381.635    21080389.4594
  20678812.482   -20711753.502 9 -15485707.04247  20678812.186    20678819.8704
  22943525.360   -11093221.939 8  -8611529.64746  22943524.688    22943534.0704
  21895714.798   -17273395.262 8 -13430411.07347  21895714.362    21895723.7394
  23718493.789    -6397425.412 8  -4768783.86345  23718493.469    23718504.4294
  21773788.426   -20274547.307 8 -15507065.95647  21773787.601    21773796.9874
  22133705.945   -19489156.747 8 -14798083.05746  22133705.305    22133712.7004
  22619432.392   -11686046.062 8  -9081389.60146  22619431.573    22619440.8104
 01  4 18  2 10  0.0000000  0  9 17 21 29 23 03 09 15 18 31
  23211767.892   -13564040.036 8 -10540163.96545  23211767.337    23211779.6604
  21080029.614   -21136605.455 9 -16181951.06047  21080028.980    21080036.7494
  20670324.393   -20756358.479 9 -15520464.10047  20670324.102    20670331.7844
  22953974.379   -11038312.334 8  -8568742.95746  22953973.734    22953983.0774
  21904352.819   -17228002.416 8 -13395040.08847  21904352.432    21904361.8324
  23724439.068    -6366183.164 8  -4744439.27745  23724438.652    23724449.6504
  21787297.364   -20203557.830 8 -15451749.53247  21787296.558    21787305.8744
  22144872.598   -19430474.990 8 -14752357.02046  22144872.044    22144879.4994
  22616172.882   -11703173.876 8  -9094735.93246  22616172.170    22616181.4534
 01  4 18  2 10 30.0000000  0  9 17 21 29 23 03 09 15 18 31
  23228789.315   -13474592.751 8 -10470464.88945  23228788.734    23228801.0704
  21079701.999   -21138326.529 9 -16183292.13747  21079701.416    21079709.2014
  20661923.724   -20800504.045 9 -15554863.17547  20661923.458    20661931.0934
  22964430.077   -10983367.444 8  -8525928.77546  22964429.406    22964438.6824
  21913079.561   -17182143.653 9 -13359306.04247  21913079.131    21913088.5544
  23730490.688    -6334382.157 8  -4719659.26445  23730490.214    23730501.0824
  21800872.067   -20132222.652 8 -15396163.72647  21800871.221    21800880.5064
  22156057.555   -19371698.140 8 -14706556.87646  22156056.961    22156064.3204
  22613021.199   -11719735.471 8  -9107641.05246  22613020.482    22613029.8734
 01  4 18  2 11  0.0000000  0  9 17 21 29 23 03 09 15 18 31
  23245862.923   -13384871.496 8 -10400552.32345  23245862.195    23245874.6124
  21079399.536   -21139915.534 9 -16184530.29947  21079399.016    21079406.8474
  20653610.641   -20844189.584 9 -15588903.79147  20653610.313    20653617.9254
  22974892.439   -10928387.024 8  -8483086.90846  22974891.814    22974901.1604
  21921894.451   -17135821.190 8 -13323210.67447  21921893.989    21921903.4824
  23736648.362    -6302022.974 8  -4694444.28745  23736647.931    23736658.8224
  21814512.456   -20060542.280 8 -15340308.93847  21814511.598    21814520.9064
  22167260.389   -19312826.323 8 -14660682.74046  22167259.845    22167267.2384
  22609977.301   -11735730.842 8  -9120104.95746  22609976.569    22609986.0434
 01  4 18  2 11 30.0000000  0  9 17 21 29 23 03 09 15 18 31
  23262988.745   -13294875.217 8 -10330425.46645  23262988.018    23263000.3454
  21079122.763   -21141369.731 9 -16185663.41947  21079122.247    21079130.0934
  20645385.562   -20887412.262 9 -15622583.73247  20645385.267    20645392.8414
  22985362.039   -10873368.771 8  -8440215.56146  22985361.376    22985370.7204
  21930797.488   -17089034.729 8 -13286753.75047  21930797.095    21930806.6324
  23742912.523    -6269104.107 8  -4668793.20945  23742912.144    23742923.1384
  21828218.774   -19988515.117 8 -15284183.92447  21828217.969    21828227.2984
  22178481.821   -19253857.741 8 -14614733.19146  22178481.247    22178488.6964
  22607041.628   -11751157.401 8  -9132125.64346  22607041.041    22607050.4974
 01  4 18  2 12  0.0000000  0  9 17 21 29 23 03 09 15 18 31
  23280166.137   -13204607.641 8 -10260087.23045  23280165.447    23280177.8004
  21078871.032   -21142692.318 9 -16186693.99147  21078870.542    21078878.3864
  20637248.130   -20930174.466 9 -15655904.87447  20637247.851    20637255.3904
  22995838.323   -10818315.522 8  -8397316.94546  22995837.653    22995846.9904
  21939788.033   -17041789.321 8 -13249939.20847  21939787.651    21939797.1984
  23749282.695    -6235628.947 8  -4642708.66745  23749282.264    23749293.2794
  21841990.453   -19916144.715 8 -15227791.45647  21841989.615    21841999.0204
  22189720.876   -19194795.382 8 -14568710.58646  22189720.386    22189727.9234
  22604214.003   -11766017.769 8  -9143705.12146  22604213.279    22604222.6054
 01  4 18  2 12 30.0000000  0  9 17 21 29 23 03 09 15 18 31
  23297395.158   -13114068.740 8 -10189537.55745  23297394.569    23297406.8444
  21078644.701   -21143882.097 9 -16187621.06947  21078644.128    21078651.9784
  20629198.592   -20972474.598 9 -15688865.94347  20629198.323    20629205.9294
  23006321.669   -10763226.074 8  -8354390.09946  23006321.005    23006330.2624
  21948865.834   -16994085.736 8 -13212767.64147  21948865.427    21948874.9254
  23755758.821    -6201596.996 8  -4616190.26845  23755758.291    23755769.2964
  21855827.454   -19843430.674 8 -15171131.21147  21855826.626    21855836.1044
  22200978.088   -19135638.505 8 -14522614.31546  22200977.613    22200985.0854
  22601494.329   -11780310.576 8  -9154842.35946  22601493.541    22601502.7354
 01  4 18  2 13  0.0000000  0  9 17 21 29 23 03 09 15 18 31
  23314675.588   -13023260.004 8 -10118777.60545  23314674.967    23314687.3234
  21078443.492   -21144939.639 9 -16188445.10447  21078442.898    21078450.7214
  20621236.958   -21014312.680 9 -15721466.98047  20621236.705    20621244.3204
  23016811.631   -10708100.851 8  -8311435.40046  23016810.914    23016820.3734
  21958030.278   -16945926.617 8 -13175241.11247  21958029.872    21958039.2834
  23762340.510    -6167009.350 8  -4589238.85145  23762340.093    23762351.1264
  21869729.637   -19770374.072 8 -15114204.03647  21869728.812    21869738.3074
  22212253.109   -19076387.982 8 -14476445.07546  22212252.617    22212260.0404
  22598882.339   -11794036.270 8  -9165537.69746  22598881.630    22598890.7744
 01  4 18  2 13 30.0000000  0  9 17 21 29 23 03 09 15 18 31
  23332007.237   -12932180.875 8 -10047806.99445  23332006.728    23332019.2974
  21078267.788   -21145863.297 9 -16189164.81847  21078267.119    21078274.9344
  20613363.682   -21055686.652 9 -15753706.37847  20613363.436    20613371.0714
  23027308.670   -10652938.071 8  -8268451.43946  23027307.997    23027317.5524
  21967281.156   -16897312.582 8 -13137360.12547  21967280.818    21967290.2224
  23769028.406    -6131864.865 8  -4561853.55445  23769027.964    23769038.9844
  21883697.231   -19696974.017 8 -15057009.24947  21883696.442    21883705.9584
  22223546.160   -19017042.560 8 -14430201.89546  22223545.620    22223553.1104
  22596378.645   -11807192.953 8  -9175789.64146  22596377.913    22596387.1254
 01  4 18  2 14  0.0000000  0  9 17 21 29 23 03 09 15 18 31
  23349389.955   -12840834.084 8  -9976627.79145  23349389.374    23349402.1594
  21078117.086   -21146654.997 9 -16189781.70047  21078116.414    21078124.2464
  20605578.470   -21096597.790 9 -15785585.11947  20605578.215    20605585.8604
  23037812.809   -10597739.528 8  -8225439.59846  23037812.044    23037821.3454
  21976618.115   -16848247.617 8 -13099127.74547  21976617.674    21976627.0804
  23775821.489    -6096166.271 8  -4534036.48645  23775821.161    23775832.1324
  21897729.793   -19623233.100 8 -14999548.84147  21897728.957    21897738.4274
  22234856.869   -18957604.204 8 -14383886.29346  22234856.359    22234863.8824
  22593982.929   -11819782.322 8  -9185599.52046  22593982.161    22593991.3774
 01  4 18  2 14 30.0000000  0  9 17 21 29 23 03 09 15 18 31
  23366823.607   -12749220.878 8  -9905240.96945  23366822.915    23366835.6174
  21077991.526   -21147314.853 9 -16190295.85447  21077990.850    21077998.6454
  20597881.393   -21137045.992 9 -15817103.13347  20597881.154    20597888.7624
  23048323.574   -10542505.398 8  -8182400.03846  23048322.808    23048332.0914
  21986040.353   -16798734.021 8 -13060545.78647  21986039.851    21986049.2734
  23782720.140    -6059914.266 8  -4505788.17445  23782719.696    23782730.7724
  21911827.008   -19549152.126 8 -14941823.45547  21911826.139    21911835.5604
  22246185.223   -18898073.442 8 -14337498.69446  22246184.726    22246192.1754
  22591695.159   -11831804.291 8  -9194967.28846  22591694.436    22591703.5944
 01  4 18  2 15  0.0000000  0  9 17 21 29 23 03 09 15 18 31
  23384307.645   -12657342.526 8  -9833647.54745  23384306.991    23384319.6114
  21077891.114   -21147842.367 9 -16190706.89147  21077890.500    21077898.2254
  20590272.488   -21177030.828 9 -15848260.08947  20590272.251    20590279.8204
  23058841.074   -10487235.550 8  -8139332.64746  23058840.307    23058849.6454
  21995547.434   -16748774.012 8 -13021615.98947  21995546.970    21995556.4094
  23789723.698    -6023109.996 8  -4477109.55745  23789723.327    23789734.2544
  21925988.697   -19474731.907 8 -14883833.74146  21925987.875    21925997.2884
  22257531.131   -18838450.563 8 -14291039.32446  22257530.583    22257538.0454
  22589515.271   -11843259.433 8  -9203893.38746  22589514.624    22589523.7874
 01  4 18  2 15 30.0000000  0  9 17 21 29 23 03 09 15 18 31
  23401842.364   -12565197.938 8  -9761846.67445  23401841.692    23401854.0954
  21077816.250   -21148235.595 9 -16191013.28647  21077815.622    21077823.3844
  20582752.178   -21216549.918 9 -15879054.12047  20582751.937    20582759.4984
  23069365.867   -10431927.628 8  -8096235.57546  23069365.141    23069374.3944
  22005139.443   -16698367.782 8 -12982338.49347  22005138.989    22005148.5614
  23796832.709    -5985752.088 8  -4447999.56145  23796832.306    23796843.1334
  21940215.203   -19399971.177 8 -14825578.68246  21940214.396    21940223.7564
  22268894.712   -18778733.845 8 -14244506.83846  22268894.255    22268901.7604
  22587443.974   -11854145.318 8  -9212375.88646  22587443.149    22587452.2834
 01  4 18  2 16  0.0000000  0  9 17 21 29 23 03 09 15 18 31
  23419426.723   -12472791.961 7  -9689842.13045  23419426.019    23419438.3794
  21077766.049   -21148498.567 9 -16191218.18547  21077765.507    21077773.3084
  20575319.872   -21255606.628 9 -15909487.85247  20575319.633    20575327.2034
  23079897.087   -10376585.561 8  -8053111.92746  23079896.341    23079905.6604
  22014815.346   -16647521.406 8 -12942718.00147  22014814.831    22014824.4614
  23804046.166    -5947845.060 8  -4418461.64145  23804045.652    23804056.7784
  21954505.672   -19324874.453 8 -14767061.81046  21954504.872    21954514.2354
  22280275.583   -18718927.584 8 -14197904.56546  22280275.047    22280282.5314
  22585480.001   -11864465.956 8  -9220417.93246  22585479.148    22585488.3164
 01  4 18  2 16 30.0000000  0  9 17 21 29 23 03 09 15 18 31
  23437060.982   -12380122.674 8  -9617632.42945  23437060.461    23437072.8784
  21077741.381   -21148628.692 9 -16191319.55347  21077740.754    21077748.5394
  20567976.235   -21294197.790 9 -15939558.82347  20567975.987    20567983.5514
  23090435.408   -10321206.259 8  -8009959.24246  23090434.685    23090444.0584
  22024575.009   -16596234.219 8 -12902754.03547  22024574.524    22024584.1504
  23811364.479    -5909386.700 8  -4388494.10545  23811364.026    23811375.1064
  21968860.471   -19249439.577 8 -14708281.43546  21968859.665    21968869.0294
  22291673.909   -18659028.852 8 -14151230.24246  22291673.376    22291680.8464
  22583624.099   -11874218.261 8  -9228017.11646  22583623.313    22583632.4834
 01  4 18  2 17  0.0000000  0  9 17 21 29 23 03 09 15 18 31
  23454745.234   -12287191.955 8  -9545219.02145  23454744.707    23454757.0104
  21077742.079   -21148625.803 9 -16191317.27947  21077741.333    21077749.0724
  20560721.126   -21332323.343 9 -15969266.98047  20560720.879    20560728.4584
  23100980.731   -10265790.121 8  -7966777.86146  23100980.064    23100989.4634
  22034417.960   -16544508.935 8 -12862448.68547  22034417.500    22034427.1344
  23818787.547    -5870378.444 8  -4358098.08245  23818787.156    23818798.2384
  21983279.390   -19173667.804 8 -14649238.54746  21983278.603    21983288.0234
  22303089.652   -18599038.527 8 -14104484.54346  22303089.163    22303096.6414
  22581876.419   -11883402.494 8  -9235173.63246  22581875.583    22581884.8724
 01  4 18  2 17 30.0000000  0  9 17 21 29 23 03 09 15 18 31
  23472479.073   -12194001.534 8  -9472603.21745  23472478.401    23472490.7314
  21077767.581   -21148490.848 9 -16191212.10147  21077766.946    21077774.7324
  20553554.530   -21369983.925 9 -15998612.82447  20553554.281    20553561.8334
  23111532.994   -10210337.946 8  -7923568.40746  23111532.269    23111541.6044
  22044343.719   -16492348.881 8 -12821804.55747  22044343.229    22044352.8684
  23826314.829    -5830822.221 8  -4327275.10045  23826314.536    23826325.5134
  21997762.099   -19097560.971 8 -14589934.58446  21997761.306    21997770.7384
  22314522.702   -18538957.766 8 -14057668.38146  22314522.208    22314529.6364
  22580236.583   -11892019.954 8  -9241888.53146  22580235.698    22580245.0344
 01  4 18  2 18  0.0000000  0  9 17 21 29 23 03 09 15 18 31
  23490261.924   -12100552.494 7  -9399785.89345  23490261.271    23490273.7094
  21077818.281   -21148224.117 9 -16191004.23947  21077817.671    21077825.5364
  20546476.414   -21407179.346 9 -16027596.20447  20546476.161    20546483.6884
  23122092.162   -10154849.334 8  -7880330.54746  23122091.499    23122100.6704
  22054351.851   -16439756.130 8 -12780823.25647  22054351.380    22054360.9904
  23833946.446    -5790718.661 8  -4296025.64845  23833946.052    23833957.0474
  22012308.484   -19021119.744 8 -14530370.04746  22012307.656    22012317.0314
  22325973.003   -18478786.753 8 -14010781.87846  22325972.401    22325979.8094
  22578704.415   -11900070.609 8  -9248161.75046  22578703.739    22578713.0464
 01  4 18  2 18 30.0000000  0  9 17 21 29 23 03 09 15 18 31
  23508093.506   -12006845.656 7  -9326767.70045  23508092.896    23508105.6414
  21077894.402   -21147824.777 9 -16190693.03647  21077893.698    21077901.5434
  20539486.942   -21443908.870 9 -16056216.53947  20539486.709    20539494.2354
  23132658.313   -10099323.830 8  -7837063.96346  23132657.565    23132666.9224
  22064441.889   -16386732.726 8 -12739506.38546  22064441.395    22064451.0894
  23841681.855    -5750068.332 8  -4264350.12745  23841681.468    23841692.5354
  22026918.426   -18944344.435 8 -14470545.17646  22026917.592    22026926.9024
  22337440.190   -18418525.348 8 -13963824.98246  22337439.662    22337447.1604
  22577280.344   -11907554.313 8  -9253993.19046  22577279.615    22577288.9234
 01  4 18  2 19  0.0000000  0  9 17 21 29 23 03 09 15 18 31
  23525974.044   -11912882.230 7  -9253549.59145  23525973.507    23525986.6574
  21077995.601   -21147292.769 9 -16190278.46947  21077994.908    21078002.7514
  20532586.175   -21480172.337 9 -16084473.71847  20532585.947    20532593.4454
  23143231.270   -10043761.503 8  -7793768.68546  23143230.684    23143240.2874
  22074613.346   -16333281.111 8 -12697855.84946  22074612.914    22074622.6954
  23849521.219    -5708872.360 8  -4232249.47045  23849520.890    23849531.6624
  22041591.805   -18867235.718 8 -14410460.51746  22041590.944    22041600.3034
  22348924.767   -18358173.916 8 -13916797.90746  22348924.192    22348931.7034
  22575964.247   -11914471.216 8  -9259382.94546  22575963.316    22575972.6524
 01  4 18  2 19 30.0000000  0  9 17 21 29 23 03 09 15 18 31
  23543903.323   -11818664.141 7  -9180133.01345  23543902.765    23543915.8724
  21078121.732   -21146629.442 9 -16189761.56847  21078121.110    21078128.8994
  20525773.997   -21515970.302 9 -16112368.17247  20525773.783    20525781.2794
  23153811.588    -9988162.877 8  -7750445.11146  23153810.920    23153820.4324
  22084865.874   -16279404.083 8 -12655873.82046  22084865.476    22084875.2084
  23857464.125    -5667132.504 8  -4199724.98245  23857463.781    23857474.7774
  22056328.121   -18789795.394 8 -14350117.46846  22056327.332    22056336.7214
  22360426.303   -18297733.468 8 -13869701.47046  22360425.729    22360433.1914
  22574755.366   -11920822.061 8  -9264331.65346  22574754.753    22574764.1374
 01  4 18  2 20  0.0000000  0  9 17 21 29 23 03 09 15 18 31
  23561880.782   -11724192.641 7  -9106518.97845  23561880.210    23561893.3504
  21078273.114   -21145834.264 9 -16189141.92547  21078272.436    21078280.1584
  20519050.478   -21551302.508 9 -16139899.70147  20519050.237    20519057.7054
  23164398.702    -9932527.783 8  -7707093.11146  23164397.952    23164407.3744
  22095198.968   -16225104.214 8 -12613562.29646  22095198.512    22095208.1584
  23865510.340    -5624849.581 8  -4166777.33945  23865509.882    23865520.8694
  22071127.519   -18712024.251 8 -14289516.64046  22071126.697    22071136.1504
  22371944.680   -18237204.233 8 -13822535.85046  22371944.046    22371951.4684
  22573654.560   -11926607.099 8  -9268839.44946  22573653.955    22573663.3684
 01  4 18  2 20 30.0000000  0  9 17 21 29 23 03 09 15 18 31
  23579906.305   -11629469.192 7  -9032708.60945  23579905.712    23579918.7414
  21078449.536   -21144907.058 9 -16188419.40947  21078448.864    21078456.6174
  20512415.510   -21586169.166 9 -16167068.46847  20512415.261    20512422.7034
  23174992.299    -9876856.476 8  -7663712.92946  23174991.638    23175001.1164
  22105611.955   -16170384.090 8 -12570923.30646  22105611.443    22105621.0394
  23873659.665    -5582025.033 8  -4133407.64845  23873659.239    23873670.1004
  22085989.613   -18633923.604 8 -14228659.05746  22085988.778    22085998.2774
  22383479.737   -18176586.666 8 -13775301.40546  22383479.130    22383486.5934
  22572661.469   -11931827.089 8  -9272906.94646  22572660.602    22572669.9724
 01  4 18  2 21  0.0000000  0  9 17 21 29 23 03 09 15 18 31
  23597979.544   -11534494.507 7  -8958702.47345  23597978.800    23597991.8824
  21078651.046   -21143847.760 9 -16187593.96447  21078650.364    21078658.2154
  20505869.243   -21620569.585 9 -16193873.92847  20505869.013    20505876.4364
  23185593.234    -9821148.396 8  -7620304.08446  23185592.568    23185602.0794
  22116104.445   -16115245.898 8 -12527958.54546  22116103.950    22116113.5684
  23881912.003    -5538659.779 8  -4099616.63445  23881911.526    23881922.2254
  22100914.288   -18555493.993 8 -14167545.13446  22100913.466    22100922.9994
  22395031.606   -18115880.814 8 -13727998.18046  22395031.073    22395038.5734
  22571775.508   -11936481.923 8  -9276534.07046  22571774.815    22571784.1164
 01  4 18  2 21 30.0000000  0  9 17 21 29 23 03 09 15 18 31
  23616100.329   -11439269.436 7  -8884501.22545  23616099.624    23616112.8464
  21078877.876   -21142655.595 9 -16186664.98947  21078877.227    21078885.0884
  20499411.824   -21654503.159 9 -16220315.61047  20499411.623    20499419.0044
  23196201.559    -9765402.904 8  -7576866.06246  23196200.764    23196210.2774
  22126676.153   -16059691.443 8 -12484669.43046  22126675.651    22126685.3484
  23890266.680    -5494754.141 8  -4065404.51845  23890266.382    23890277.2004
  22115901.559   -18476735.685 8 -14106175.10246  22115900.730    22115910.3764
  22406600.461   -18055086.470 8 -13680625.99646  22406599.884    22406607.3804
  22570997.230   -11940571.345 8  -9279720.60246  22570996.594    22571005.9224
 01  4 18  2 22  0.0000000  0  9 17 21 29 23 03 09 15 18 31
  23634268.325   -11343795.904 7  -8810106.37945  23634267.667    23634280.7974
  21079129.862   -21141331.230 9 -16185632.99647  21079129.223    21079137.0024
  20493043.161   -21687970.712 9 -16246394.16147  20493042.922    20493050.2214
  23206816.479    -9709620.667 8  -7533399.45446  23206815.756    23206825.3544
  22137326.342   -16003724.075 8 -12441058.55746  22137325.878    22137335.7094
  23898724.464    -5450310.021 8  -4030772.83745  23898724.047    23898735.1534
  22130951.037   -18397650.449 8 -14044550.32846  22130950.202    22130959.8534
  22418185.936   -17994204.367 8 -13633185.43246  22418185.373    22418193.0044
  22570326.605   -11944096.686 8  -9282467.60446  22570325.758    22570335.0234
 01  4 18  2 22 30.0000000  0  9 17 21 29 23 03 09 15 18 31
  23652483.666   -11248073.787 7  -8735517.81245  23652482.997    23652496.2654
  21079407.306   -21139873.340 9 -16184496.95447  21079406.611    21079414.3454
  20486763.474   -21720970.612 9 -16272108.31047  20486763.219    20486770.4434
  23217438.664    -9653800.036 8  -7489902.89846  23217437.952    23217447.5864
  22148055.044   -15947344.756 8 -12397126.69346  22148054.521    22148064.4464
  23907284.334    -5405326.912 8  -3995721.16245  23907284.081    23907294.9414
  22146062.799   -18318237.880 8 -13982670.48146  22146061.960    22146071.6224
  22429788.191   -17933233.650 8 -13585675.81846  22429787.691    22429795.3684
  22569763.357   -11947056.524 8  -9284773.95446  22569762.519    22569771.6774
 01  4 18  2 23  0.0000000  0  9 17 21 29 23 03 09 15 18 31
  23670745.653   -11152106.762 7  -8660738.45445  23670745.114    23670758.2704
  21079709.556   -21138284.286 9 -16183258.71647  21079708.961    21079716.7414
  20480572.281   -21753505.291 9 -16297459.94747  20480572.035    20480579.2384
  23228067.901    -9597943.554 8  -7446378.42346  23228067.203    23228076.6234
  22158861.139   -15890558.379 8 -12352877.63346  22158860.640    22158870.6114
  23915946.204    -5359808.855 8  -3960252.64345  23915945.915    23915956.9434
  22161236.118   -18238501.341 8 -13920538.18846  22161235.326    22161245.0484
  22441407.081   -17872177.182 8 -13538099.37846  22441406.467    22441413.9044
  22569306.969   -11949453.991 8  -9286642.10446  22569306.294    22569315.3784
 01  4 18  2 23 30.0000000  0  9 17 21 29 23 03 09 15 18 31
  23689054.481   -11055894.026 8  -8585767.61445  23689053.948    23689067.0714
  21080037.292   -21136562.034 9 -16181916.68847  21080036.684    21080044.5384
  20474470.038   -21785572.612 9 -16322447.41547  20474469.790    20474477.0154
  23238704.576    -9542048.717 8  -7402824.06146  23238703.770    23238713.2134
  22169744.469   -15833365.584 8 -12308311.89746  22169744.085    22169754.0514
  23924710.101    -5313754.973 8  -3924366.61545  23924709.738    23924720.8484
  22176471.308   -18158439.875 8 -13858152.71646  22176470.529    22176480.2594
  22453042.461   -17811032.604 8 -13490454.30046  22453041.843    22453049.2634
  22568958.216   -11951287.348 8  -9288070.66746  22568957.356    22568966.5004
 01  4 18  2 24  0.0000000  0 10 17 21 29 25 23 03 09 15 18 31
  23707408.480   -10959444.484 8  -8510612.24845  23707407.902    23707420.7424
  21080388.966   -21134714.179 9 -16180476.77047  21080388.281    21080396.1464
  20468455.364   -21817180.068 9 -16347076.54647  20468455.083    20468462.2704
  24611857.088    -2205311.588 8  -1444744.15145  24611856.748    24611876.8694
  23249346.797    -9486122.932 8  -7359245.58846  23249346.033    23249355.7904
  22180703.613   -15775776.065 8 -12263437.00846  22180703.128    22180713.0504
  23933574.078    -5267174.037 8  -3888069.87245  23933573.712    23933584.8384
  22191766.768   -18078061.918 8 -13795520.60946  22191766.000    22191775.7184
  22464693.100   -17749807.882 8 -13442746.76646  22464692.507    22464699.9914
  22568715.100   -11952564.322 8  -9289065.70046  22568714.284    22568723.5224
 01  4 18  2 24 30.0000000  0 10 17 21 29 25 23 03 09 15 18 31
  23725808.714   -10862751.382 8  -8435267.07745  23725807.994    23725820.9794
  21080766.023   -21132732.188 9 -16178932.35347  21080765.480    21080773.2184
  20462529.655   -21848319.712 9 -16371341.14447  20462529.366    20462536.5204
  24593457.662    -2301998.513 8  -1520083.87145  24593457.255    24593477.4284
  23259996.371    -9430158.209 8  -7315636.81146  23259995.670    23260005.6364
  22191739.063   -15717784.600 8 -12218248.91646  22191738.559    22191748.5054
  23942539.944    -5220059.043 8  -3851357.00445  23942539.595    23942550.7834
  22207123.825   -17997360.299 8 -13732636.32046  22207123.008    22207132.8134
  22476360.584   -17688495.364 8 -13394970.83046  22476360.009    22476367.5334
  22568579.176   -11953277.536 8  -9289621.45146  22568578.568    22568587.7884
 01  4 18  2 25  0.0000000  0 10 17 21 29 25 23 03 09 15 18 31
  23744255.206   -10765815.020 7  -8359732.36945  23744254.485    23744267.3924
  21081168.975   -21130615.201 9 -16177282.73147  21081168.301    21081176.0144
  20456693.129   -21878990.690 9 -16395240.55547  20456692.836    20456699.9264
  24575044.790    -2398755.695 8  -1595478.39045  24575044.292    24575064.4544
  23270653.810    -9374153.409 8  -7271996.76946  23270653.152    23270662.8524
  22202850.509   -15659392.818 8 -12172748.91046  22202850.097    22202860.1524
  23951607.433    -5172410.270 7  -3814228.17445  23951606.978    23951617.9694
  22222542.490   -17916335.036 8 -13669499.83446  22222541.674    22222551.4874
  22488044.914   -17627094.231 8 -13347125.84646  22488044.301    22488051.8864
  22568551.062   -11953426.733 8  -9289737.69346  22568550.247    22568559.3344
 01  4 18  2 25 30.0000000  0 10 17 21 29 25 23 03 09 15 18 31
  23762747.338   -10668637.870 7  -8284010.04345  23762746.773    23762759.7664
  21081597.198   -21128364.326 9 -16175528.79347  21081596.575    21081604.3104
  20450945.571   -21909193.854 9 -16418775.42847  20450945.315    20450952.3674
  24556618.803    -2495581.678 8  -1670926.56345  24556618.588    24556638.2544
  23281318.940    -9318109.391 8  -7228326.16246  23281318.129    23281327.5494
  22214037.574   -15600604.328 8 -12126939.76746  22214037.222    22214047.3434
  23960775.704    -5124230.416 7  -3776685.50745  23960775.261    23960786.5104
  22238022.363   -17834988.364 8 -13606112.89346  22238021.548    22238031.3414
  22499745.673   -17565605.919 8 -13299212.92546  22499745.161    22499752.7304
  22568629.685   -11953013.690 8  -9289415.83646  22568628.893    22568637.8904
 01  4 18  2 26  0.0000000  0 10 17 21 29 25 23 03 09 15 18 31
  23781284.737   -10571221.258 7  -8208101.14645  23781284.238    23781297.8314
  21082051.055   -21125979.444 9 -16173670.43347  21082050.430    21082058.1084
  20445287.085   -21938929.495 9 -16441945.99848  20445286.812    20445293.8104
  24538180.302    -2592473.609 8  -1746426.13245  24538180.002    24538199.1634
  23291991.052    -9262025.947 8  -7184624.85846  23291990.311    23291999.9014
  22225299.772   -15541421.660 8 -12080823.47646  22225299.395    22225309.5374
  23970044.850    -5075520.676 8  -3738729.97345  23970044.462    23970055.5654
  22253563.151   -17753321.359 8 -13542476.35546  22253562.349    22253572.1314
  22511463.147   -17504030.557 8 -13251232.17046  22511462.579    22511470.1144
  22568815.041   -11952038.652 8  -9288656.06946  22568814.385    22568823.4284
 01  4 18  2 26 30.0000000  0 10 17 21 29 25 23 03 09 15 18 31
  23799867.709   -10473567.160 7  -8132007.20545  23799867.314    23799880.9004
  21082530.348   -21123460.931 9 -16171707.93447  21082529.699    21082537.3854
  20439717.415   -21968198.269 9 -16464752.78048  20439717.118    20439724.1234
  24519729.593    -2689429.957 8  -1821975.89345  24519729.316    24519748.3124
  23302670.725    -9205903.523 8  -7140893.19446  23302670.047    23302679.8324
  22236636.318   -15481848.256 8 -12034402.70146  22236635.857    22236645.9414
  23979414.678    -5026283.139 7  -3700363.18845  23979414.207    23979425.3204
  22269164.649   -17671335.703 8 -13478591.53046  22269163.829    22269173.6204
  22523196.910   -17442368.972 8 -13203184.25246  22523196.385    22523203.9354
  22569107.311   -11950502.806 8  -9287459.29446  22569106.593    22569115.6444
 01  4 18  2 27  0.0000000  0 10 17 21 29 25 23 03 09 15 18 31
  23818495.688   -10375677.858 7  -8055729.92245  23818494.989    23818508.6244
  21083034.834   -21120809.681 9 -16169642.01247  21083034.179    21083041.9154
  20434236.348   -21997001.066 9 -16487196.45948  20434236.063    20434243.1134
  24501266.788    -2786449.192 8  -1897574.72945  24501266.488    24501285.4534
  23313358.088    -9149742.836 8  -7097131.67546  23313357.358    23313367.0264
  22248046.399   -15421887.266 8 -11987679.94146  22248046.068    22248056.1644
  23988884.072    -4976519.874 7  -3661586.69845  23988883.741    23988895.0794
  22284826.409   -17589033.201 8 -13414459.80746  22284825.606    22284835.4334
  22534947.046   -17380622.172 8 -13155069.91246  22534946.461    22534954.0264
  22569506.014   -11948407.674 8  -9285826.72546  22569505.327    22569514.3744
 01  4 18  2 27 30.0000000  0 10 17 21 29 25 23 03 09 15 18 31
  23837168.139   -10277554.144 7  -7979270.00645  23837167.502    23837181.0074
  21083564.721   -21118024.894 9 -16167472.02747  21083564.102    21083571.7794
  20428844.049   -22025337.412 9 -16509276.67148  20428843.776    20428850.8264
  24482792.711    -2883528.070 7  -1973220.04345  24482792.327    24482811.5014
  23324052.705    -9093543.163 8  -7053339.81246  23324051.835    23324061.3684
  22259530.068   -15361540.883 8 -11940656.86546  22259529.658    22259539.8184
  23998453.702    -4926231.855 8  -3622401.36345  23998453.397    23998464.5474
  22300548.310   -17506414.443 8 -13350081.64546  22300547.492    22300557.2614
  22546713.419   -17318790.203 8 -13106889.20946  22546712.726    22546720.3314
  22570011.091   -11945753.406 8  -9283758.48246  22570010.446    22570019.5054
 01  4 18  2 28  0.0000000  0 10 17 21 29 25 23 03 09 15 18 31
  23855884.591   -10179198.600 7  -7902629.44545  23855883.906    23855897.8294
  21084119.910   -21115107.580 9 -16165198.77347  21084119.248    21084126.8874
  20423540.311   -22053208.806 9 -16530994.58748  20423540.028    20423547.0414
  24464307.725    -2980665.146 7  -2048910.68145  24464307.184    24464326.0744
  23334754.084    -9037305.598 8  -7009518.42346  23334753.277    23334762.9304
  22271086.309   -15300812.805 8 -11893336.36746  22271085.938    22271096.1314
  24008122.688    -4875421.796 8  -3582809.22245  24008122.461    24008133.5434
  22316329.937   -17423481.685 8 -13285458.79146  22316329.187    22316338.9284
  22558495.526   -17256874.300 8 -13058643.10846  22558494.969    22558502.5864
  22570622.375   -11942541.854 8  -9281255.95946  22570621.574    22570630.6604
 01  4 18  2 28 30.0000000  0 10 17 21 29 25 23 03 09 15 18 31
  23874645.411   -10080610.556 7  -7825807.74345  23874644.777    23874658.7304
  21084700.625   -21112055.896 9 -16162820.83347  21084699.956    21084707.6574
  20418325.333   -22080613.405 9 -16552348.76548  20418325.058    20418332.0814
  24445812.482    -3077856.232 7  -2124643.36845  24445811.838    24445830.5014
  23345463.485    -8981028.053 8  -6965665.87846  23345462.752    23345472.2934
  22282715.072   -15239703.836 8 -11845719.06846  22282714.668    22282724.7594
  24017891.395    -4824088.937 7  -3542809.74245  24017891.051    24017901.8894
  22332171.490   -17340234.234 8 -13220590.74446  22332170.710    22332180.5534
  22570294.116   -17194872.680 8 -13010330.21946  22570293.511    22570301.1194
  22571339.822   -11938771.788 8  -9278318.25546  22571338.997    22571348.0054
 01  4 18  2 29  0.0000000  0 10 17 21 29 25 23 03 09 15 18 31
  23893449.827    -9981794.369 7  -7748808.24345  23893449.019    23893463.1454
  21085306.343   -21108872.490 9 -16160340.24547  21085305.717    21085313.4384
  20413198.549   -22107554.361 9 -16573341.66048  20413198.257    20413205.3064
  24427306.804    -3175101.453 7  -2200418.35145  24427306.178    24427324.9334
  23356180.071    -8924713.225 8  -6921784.26346  23356179.333    23356188.7844
  22294415.228   -15178219.556 8 -11797809.31846  22294414.798    22294424.8284
  24027758.166    -4772237.730 7  -3502406.28845  24027757.880    24027768.9994
  22348072.182   -17256675.883 8 -13155480.44046  22348071.372    22348081.2504
  22582108.298   -17132788.375 8 -12961952.90546  22582107.782    22582115.3474
  22572162.711   -11934446.766 8  -9274948.11846  22572161.937    22572171.0424
 01  4 18  2 29 30.0000000  0 10 17 21 29 25 23 03 09 15 18 31
  23912297.717    -9882748.840 7  -7671630.06045  23912297.080    23912310.8624
  21085937.680   -21105554.626 9 -16157754.88047  21085937.090    21085944.7384
  20408160.495   -22134029.017 9 -16593971.21948  20408160.225    20408167.2404
  24408791.720    -3272395.516 7  -2276231.39745  24408791.297    24408809.9754
  23366904.029    -8868358.331 8  -6877871.44346  23366903.270    23366912.8774
  22306186.861   -15116360.040 8 -11749607.18446  22306186.398    22306196.5324
  24037724.067    -4719866.721 7  -3461597.82545  24037723.680    24037734.8994
  22364032.234   -17172805.344 8 -13090126.86646  22364031.463    22364041.4054
  22593938.740   -17070619.095 8 -12913509.38246  22593938.222    22593945.8524
  22573091.551   -11929565.039 8  -9271144.19346  22573090.864    22573099.9784
 01  4 18  2 30  0.0000000  0 10 17 21 29 25 23 03 09 15 18 31
  23931188.968    -9783475.957 7  -7594274.68345  23931188.233    23931201.7844
  21086594.622   -21102102.416 9 -16155064.82847  21086593.985    21086601.6144
  20403211.047   -22160038.256 9 -16614238.11148  20403210.761    20403217.7464
  24390267.854    -3369736.965 7  -2352081.34245  24390267.371    24390285.8964
  23377635.447    -8811963.863 8  -6833927.81146  23377634.820    23377644.5174
  22318029.372   -15054128.435 8 -11701115.09846  22318028.850    22318038.9834
  24047788.669    -4666978.431 7  -3420386.32045  24047788.361    24047799.2224
  22380051.350   -17088624.429 8 -13024531.44146  22380050.553    22380060.5724
  22605785.314   -17008365.508 8 -12865000.16446  22605784.801    22605792.4854
  22574126.268   -11924127.802 8  -9266907.38946  22574125.508    22574134.6424
 01  4 18  2 30 30.0000000  0 10 17 21 29 25 23 03 09 15 18 31
  23950122.968    -9683978.139 7  -7516744.06045  23950122.135    23950135.8334
  21087276.809   -21098517.288 9 -16152271.21147  21087276.212    21087283.8614
  20398349.901   -22185583.330 9 -16634143.31648  20398349.637    20398356.5824
  24371735.071    -3467124.112 7  -2427966.90545  24371734.710    24371753.0624
  23388374.592    -8755530.513 8  -6789953.85046  23388373.995    23388383.5354
  22329941.773   -14991528.571 8 -11652336.07546  22329941.253    22329951.4274
  24057951.018    -4613575.355 7  -3378773.64145  24057950.667    24057961.8054
  22396129.217   -17004135.058 8 -12958695.64346  22396128.403    22396138.4194
  22617647.688   -16946028.874 8 -12816426.23446  22617647.108    22617654.8444
  22575266.275   -11918137.100 8  -9262239.33046  22575265.519    22575274.6824
 01  4 18  2 31  0.0000000  0 10 17 21 29 25 23 03 09 15 18 31
  23969099.638    -9584255.592 7  -7439038.35445  23969098.768    23969112.6514
  21087984.700   -21094797.432 9 -16149372.60747  21087984.033    21087991.7074
  20393577.268   -22210663.345 9 -16653686.13748  20393577.010    20393583.9474
  24353194.374    -3564553.301 7  -2503885.23045  24353194.016    24353212.4384
  23399121.385    -8699056.866 8  -6745948.48746  23399120.655    23399130.0934
  22341923.929   -14928561.966 8 -11603271.26146  22341923.418    22341933.4954
  24068211.076    -4559657.731 8  -3336759.99545  24068210.834    24068222.2224
  22412265.711   -16919337.261 8 -12892619.54246  22412264.952    22412274.9624
  22629525.883   -16883608.262 8 -12767786.86446  22629525.316    22629533.0454
  22576511.620   -11911592.645 8  -9257139.76846  22576510.897    22576520.0374
 01  4 18  2 31 30.0000000  0 10 17 21 29 25 23 03 09 15 18 31
  23988118.658    -9484309.923 7  -7361158.79345  23988117.731    23988131.6964
  21088718.089   -21090943.063 9 -16146369.20047  21088717.475    21088725.1234
  20388893.175   -22235278.641 9 -16672866.84148  20388892.903    20388899.7654
  24334646.164    -3662021.923 7  -2579834.27945  24334645.807    24334664.1934
  23409875.438    -8642542.743 8  -6701911.62145  23409874.761    23409884.5024
  22353975.289   -14865231.392 8 -11553922.84246  22353974.875    22353984.8894
  24078568.875    -4505227.349 8  -3294346.80245  24078568.654    24078580.3084
  22428460.708   -16834232.291 8 -12826304.05846  22428459.950    22428469.9354
  22641420.035   -16821103.819 8 -12719082.18546  22641419.571    22641427.2214
  22577862.305   -11904495.297 8  -9251609.38046  22577861.502    22577870.6764
 01  4 18  2 32  0.0000000  0 10 17 21 29 25 23 03 09 15 18 31
  24007180.029    -9384142.232 7  -7283106.24345  24007179.155    24007193.0564
  21089477.353   -21086953.507 9 -16143260.44247  21089476.699    21089484.3304
  20384297.496   -22259429.102 9 -16691685.33248  20384297.185    20384304.0204
  24316091.158    -3759526.982 7  -2655811.71045  24316090.751    24316109.1934
  23420637.547    -8585987.601 8  -6657842.76846  23420636.929    23420646.6334
  22366095.818   -14801539.071 8 -11504292.53746  22366095.274    22366105.2934
  24089024.356    -4450285.547 8  -3251535.18945  24089023.935    24089035.2864
  22444714.047   -16748820.855 8 -12759749.79746  22444713.278    22444723.2844
  22653330.408   -16758515.588 8 -12670312.19446  22653329.806    22653337.5144
  22579318.011   -11896845.338 8  -9245648.39346  22579317.224    22579326.4514
 01  4 18  2 32 30.0000000  0 10 17 21 29 25 23 03 09 15 18 31
  24026283.065    -9283755.959 7  -7204883.36345  24026282.141    24026296.0324
  21090261.825   -21082830.679 9 -16140047.84347  21090261.196    21090268.8924
  20379789.711   -22283117.069 9 -16710143.43648  20379789.435    20379796.2834
  24297529.358    -3857068.550 7  -2731817.60145  24297529.011    24297547.2714
  23431407.343    -8529393.454 8  -6613743.50346  23431406.684    23431416.3954
  22378284.021   -14737489.973 8 -11454384.23246  22378283.467    22378293.5504
  24099576.010    -4394836.014 7  -3208327.86845  24099575.621    24099587.0434
  22461025.114   -16663106.379 8 -12692959.39446  22461024.306    22461034.3194
  22665256.065   -16695845.651 8 -12621478.55046  22665255.520    22665263.2454
  22580878.281   -11888645.707 8  -9239259.09046  22580877.584    22580886.8024
 01  4 18  2 33  0.0000000  0 10 17 21 29 25 23 03 09 15 18 31
  24045427.728    -9183150.486 7  -7126489.67645  24045426.797    24045440.6424
  21091072.185   -21078572.260 9 -16136729.58647  21091071.525    21091079.2044
  20375370.388   -22306340.656 9 -16728239.68648  20375370.115    20375376.9264
  24278961.524    -3954641.413 7  -2807847.90845  24278961.156    24278979.3234
  23442184.948    -8472757.774 8  -6569611.87246  23442184.154    23442193.8624
  22390539.833   -14673084.562 8 -11404198.28846  22390539.372    22390549.5194
  24110224.455    -4338878.151 7  -3164724.43445  24110224.138    24110235.4874
  22477393.915   -16577087.902 8 -12625932.11446  22477393.144    22477403.1364
  22677197.825   -16633092.008 8 -12572579.68046  22677197.183    22677204.9714
  22582543.516   -11879895.168 8  -9232440.51946  22582542.781    22582552.0154
 01  4 18  2 33 30.0000000  0 10 17 21 29 25 23 03 09 15 18 31
  24064613.849    -9082328.017 7  -7047926.91845  24064613.024    24064626.7434
  21091908.273   -21074178.345 9 -16133305.74647  21091907.656    21091915.3384
  20371039.259   -22329101.190 9 -16745975.12548  20371038.943    20371045.7204
  24260388.099    -4052243.987 8  -2883901.33345  24260387.693    24260405.5474
  23452969.996    -8416081.196 8  -6525448.39746  23452969.327    23452979.1154
  22402863.007   -14608326.382 8 -11353737.44146  22402862.571    22402872.5824
  24120969.361    -4282414.072 7  -3120726.55945  24120968.900    24120980.2944
  22493820.271   -16490767.360 8 -12558669.45646  22493819.473    22493829.4844
  22689155.229   -16570255.520 8 -12523616.26146  22689154.635    22689162.4984
  22584313.112   -11870595.784 8  -9225194.26846  22584312.376    22584321.6334
 01  4 18  2 34  0.0000000  0 10 17 21 29 25 23 03 09 15 18 31
  24083840.603    -8981291.143 7  -6969197.08445  24083839.855    24083853.4924
  21092769.913   -21069650.223 9 -16129777.33147  21092769.310    21092777.0374
  20366795.896   -22351399.863 9 -16763350.67048  20366795.591    20366802.4064
  24241809.356    -4149874.573 8  -2959976.57745  24241808.936    24241826.4494
  23463762.823    -8359364.456 8  -6481253.59946  23463762.245    23463771.9864
  22415252.735   -14543219.117 8 -11303004.59446  22415252.144    22415262.2314
  24131809.966    -4225446.407 8  -3076336.22045  24131809.535    24131821.4404
  22510303.613   -16404146.866 8 -12491173.07246  22510302.841    22510312.9174
  22701128.178   -16507337.617 8 -12474589.38946  22701127.606    22701135.3884
  22586186.859   -11860749.399 8  -9217521.78846  22586186.069    22586195.3794
 01  4 18  2 34 30.0000000  0 10 17 21 29 25 23 03 09 15 18 31
  24103108.398    -8880039.169 7  -6890299.62945  24103107.706    24103121.1054
  21093657.599   -21064985.503 9 -16126142.46747  21093656.985    21093664.7074
  20362640.720   -22373234.927 9 -16780364.95448  20362640.437    20362647.3084
  24223225.794    -4247528.848 7  -3036070.30045  24223225.411    24223242.6824
  23474563.937    -8302605.204 8  -6437025.66846  23474563.288    23474572.9854
  22427708.436   -14477763.459 8 -11252000.26846  22427707.891    22427718.1674
  24142746.507    -4167975.127 7  -3031553.48245  24142746.115    24142757.6884
  22526844.279   -16317225.517 8 -12423442.24846  22526843.510    22526853.6184
  22713117.096   -16444336.158 8 -12425497.38546  22713116.417    22713124.1234
  22588164.781   -11850354.856 8  -9209422.16246  22588164.040    22588173.4164
 01  4 18  2 35  0.0000000  0 10 17 21 29 25 23 03 09 15 18 31
  24122416.515    -8778575.234 7  -6811237.03145  24122415.909    24122429.4234
  21094570.887   -21060185.962 9 -16122402.55647  21094570.223    21094577.9774
  20358573.448   -22394608.462 9 -16797019.62248  20358573.153    20358579.9834
  24204638.151    -4345205.649 8  -3112181.60845  24204637.838    24204654.8884
  23485372.756    -8245804.848 8  -6392765.71546  23485371.965    23485381.9054
  22440229.472   -14411963.921 8 -11200727.98946  22440229.043    22440239.4634
  24153778.072    -4110003.438 8  -2986380.81545  24153777.727    24153789.5894
  22543441.651   -16230006.302 8 -12355479.32946  22543440.831    22543451.0204
  22725121.349   -16381252.897 8 -12376341.66046  22725120.776    22725128.5024
  22590246.563   -11839414.752 8  -9200897.41446  22590245.859    22590255.2314
 01  4 18  2 35 30.0000000  0 10 17 21 29 25 23 03 09 15 18 31
  24141764.793    -8676899.875 7  -6732009.70945  24141764.313    24141777.8064
  21095510.086   -21055250.348 9 -16118556.61147  21095509.493    21095517.2234
  20354594.144   -22415519.884 9 -16813314.20348  20354593.838    20354600.6274
  24186047.060    -4442901.384 8  -3188307.64645  24186046.759    24186063.6054
  23496189.508    -8188962.411 8  -6348472.95645  23496188.757    23496198.7214
  22452815.994   -14345822.304 8 -11149189.16046  22452815.509    22452825.8134
  24164905.094    -4051532.070 7  -2940818.80245  24164904.625    24164916.5454
  22560095.564   -16142489.694 8 -12287284.66946  22560094.801    22560105.0384
  22737141.393   -16318087.212 8 -12327121.70246  22737140.875    22737148.6134
  22592432.192   -11827929.191 8  -9191947.66846  22592431.505    22592440.8934
 01  4 18  2 36  0.0000000  0 10 17 21 29 25 23 03 09 15 18 31
  24161153.126    -8575014.920 7  -6652619.06645  24161152.552    24161166.2284
  21096475.353   -21050178.405 9 -16114604.43247  21096474.664    21096482.3604
  20350702.673   -22435969.608 9 -16829249.00848  20350702.352    20350709.1114
  24167452.638    -4540613.680 8  -3264446.61245  24167452.402    24167469.2054
  23507014.374    -8132077.685 8  -6304147.24645  23507013.583    23507023.4854
  22465467.150   -14279341.670 8 -11097386.14446  22465466.561    22465476.6444
  24176126.389    -3992562.954 7  -2894868.90445  24176125.896    24176137.8924
  22576805.794   -16054677.179 8 -12218859.44346  22576804.983    22576815.3504
  22749177.189   -16254839.333 8 -12277837.69346  22749176.713    22749184.4384
  22594721.348   -11815899.636 8  -9182574.01246  22594720.710    22594729.9924
 01  4 18  2 36 30.0000000  0 10 17 21 29 25 23 03 09 15 18 31
  24180580.663    -8472922.704 7  -6573066.93645  24180580.193    24180594.0104
  21097466.303   -21044970.503 9 -16110546.31747  21097465.639    21097473.3434
  20346898.670   -22455959.494 9 -16844825.50548  20346898.385    20346905.1094
  24148855.381    -4638341.188 8  -3340597.46745  24148855.146    24148871.9114
  23517847.105    -8075151.370 8  -6259789.12145  23517846.324    23517856.2154
  22478181.779   -14212525.674 8 -11045321.82246  22478181.159    22478191.2994
  24187442.114    -3933099.041 7  -2848533.42645  24187441.544    24187453.7484
  22593571.862   -15966570.895 8 -12150205.30546  22593571.096    22593581.4534
  22761228.377   -16191510.364 8 -12228490.50146  22761227.840    22761235.6474
  22597113.825   -11803328.115 8  -9172778.04646  22597113.094    22597122.2634
 01  4 18  2 37  0.0000000  0 10 17 21 29 25 23 03 09 15 18 31
  24200047.682    -8370623.608 7  -6493353.58245  24200047.255    24200061.0874
  21098483.396   -21039625.600 9 -16106381.44047  21098482.764    21098490.3824
  20343182.475   -22475488.385 9 -16860042.78948  20343182.178    20343188.8744
  24130255.981    -4736079.836 8  -3416757.00745  24130255.663    24130272.3754
  23528687.910    -8018181.932 8  -6215397.41045  23528687.189    23528697.3484
  22490959.560   -14145376.218 8 -10992997.67846  22490959.242    22490969.6034
  24198851.820    -3873140.896 8  -2801812.84245  24198851.343    24198863.3374
  22610393.966   -15878170.676 8 -12081322.11546  22610393.171    22610403.4884
  22773295.036   -16128099.395 8 -12179079.40346  22773294.516    22773302.3574
  22599609.319   -11790214.311 8  -9162559.52546  22599608.616    22599617.7494
 01  4 18  2 37 30.0000000  0 10 17 21 29 25 23 03 09 15 18 31
  24219553.530    -8268119.548 7  -6413480.53245  24219553.111    24219567.3374
  21099526.594   -21034143.837 9 -16102109.91447  21099525.902    21099533.5474
  20339553.681   -22494557.435 9 -16874901.74348  20339553.390    20339560.1104
  24111654.915    -4833827.316 8  -3492923.43945  24111654.640    24111671.2864
  23539537.119    -7961169.689 8  -6170972.31946  23539536.458    23539546.5804
  22503800.908   -14077896.178 8 -10940415.91946  22503800.413    22503810.9064
  24210355.489    -3812690.452 8  -2754708.69445  24210354.920    24210366.5864
  22627271.609   -15789478.248 8 -12012211.23746  22627270.827    22627281.1554
  22785377.360   -16064606.898 8 -12129604.78446  22785376.842    22785384.5574
  22602207.653   -11776559.844 8  -9151919.70146  22602206.908    22602216.1924
 01  4 18  2 38  0.0000000  0 10 17 21 29 25 23 03 09 15 18 31
  24239098.339    -8165412.453 7  -6333449.27444  24239097.601    24239111.8614
  21100595.682   -21028525.464 9 -16097731.94547  21100595.042    21100602.6604
  20336012.260   -22513167.275 9 -16889402.87748  20336011.982    20336018.7434
  24093052.544    -4931581.745 8  -3569095.27545  24093052.317    24093068.7474
  23550394.318    -7904114.826 8  -6126514.02445  23550393.622    23550403.7774
  22516704.135   -14010088.845 8 -10887579.14546  22516703.730    22516714.4014
  24221952.042    -3751750.174 7  -2707222.88845  24221951.522    24221963.0064
  22644204.554   -15700495.576 8 -11942874.18746  22644203.734    22644214.0954
  22797475.067   -16001033.376 8 -12080067.02746  22797474.457    22797482.1854
  22604908.557   -11762366.611 8  -9140860.05146  22604907.788    22604917.0904
 01  4 18  2 38 30.0000000  0 10 17 21 29 25 23 03 09 15 18 31
  24258681.456    -8062502.602 7  -6253260.03544  24258680.745    24258695.0924
  21101691.137   -21022769.070 9 -16093246.41447  21101690.454    21101698.0684
  20332558.397   -22531317.086 9 -16903545.55248  20332558.143    20332564.9314
  24074449.610    -5029339.025 8  -3645269.33845  24074449.346    24074465.5864
  23561259.898    -7847015.686 8  -6082021.20845  23561259.190    23561269.2864
  22529669.524   -13941955.786 8 -10834488.53946  22529669.054    22529679.6904
  24233641.572    -3690320.441 7  -2659355.65045  24233641.120    24233652.8454
  22661192.738   -15611222.429 8 -11873310.80346  22661191.894    22661202.2894
  22809588.396   -15937377.063 8 -12030464.75246  22809587.820    22809595.8214
  22607712.097   -11747633.949 8  -9129380.08446  22607711.397    22607720.6394
 01  4 18  2 39  0.0000000  0 10 17 21 29 25 23 03 09 15 18 31
  24278302.928    -7959393.061 7  -6172915.19944  24278302.052    24278316.3894
  21102812.464   -21016876.072 9 -16088654.45147  21102811.797    21102819.4364
  20329191.702   -22549008.979 9 -16917331.40248  20329191.434    20329198.1864
  24055846.285    -5127098.405 8  -3721445.01945  24055846.006    24055862.0144
  23572133.804    -7789873.584 8  -6037494.92245  23572133.061    23572143.1584
  22542695.961   -13873501.113 8 -10781147.33846  22542695.536    22542706.1224
  24245423.501    -3628404.685 8  -2611109.69545  24245423.153    24245435.1124
  22678235.577   -15521661.578 8 -11803523.22746  22678234.785    22678245.2444
  22821717.284   -15873639.999 8 -11980799.55946  22821716.744    22821724.6924
  22610617.790   -11732364.664 8  -9117481.95746  22610617.066    22610626.3154
 01  4 18  2 39 30.0000000  0 10 17 21 29 25 23 03 09 15 18 31
  24297962.063    -7856084.671 7  -6092415.46144  24297961.221    24297975.4464
  21103960.062   -21010845.021 9 -16083954.91047  21103959.463    21103967.0664
  20325912.163   -22566242.799 9 -16930760.30948  20325911.904    20325918.6564
  24037243.240    -5224856.244 7  -3797619.54745  24037242.874    24037258.7404
  23583015.873    -7732687.542 8  -5992934.41345  23583015.199    23583025.3334
  22555783.204   -13804727.315 8 -10727557.46946  22555782.866    22555793.3834
  24257298.308    -3566003.919 8  -2562485.81745  24257297.912    24257309.6134
  22695333.149   -15431813.605 8 -11733511.94246  22695332.348    22695342.8514
  22833861.627   -15809821.688 8 -11931071.04846  22833860.957    22833868.9264
  22613625.386   -11716559.634 8  -9105166.37946  22613624.693    22613633.9124
 01  4 18  2 40  0.0000000  0 10 17 21 29 25 23 03 09 15 18 31
  24317658.448    -7752579.369 7  -6011762.28744  24317657.565    24317672.0984
  21105134.060   -21004675.984 9 -16079147.84947  21105133.390    21105140.9884
  20322719.654   -22583019.488 9 -16943833.01248  20322719.394    20322726.1574
  24018640.815    -5322610.480 7  -3873791.27445  24018640.502    24018656.1354
  23593906.397    -7675457.741 8  -5948339.79345  23593905.689    23593915.9724
  22568930.831   -13735637.383 8 -10673721.26946  22568930.394    22568940.8904
  24269265.021    -3503120.582 7  -2513485.92745  24269264.408    24269276.2024
  22712485.044   -15341680.288 8 -11663278.27046  22712484.244    22712494.7374
  22846021.019   -15745922.646 8 -11881279.61446  22846020.419    22846028.4194
  22616734.635   -11700220.254 8  -9092434.42846  22616734.021    22616743.1474
 01  4 18  2 40 30.0000000  0 10 17 21 29 25 23 03 09 15 18 31
  24337392.481    -7648878.460 7  -5930956.64644  24337391.564    24337405.5974
  21106334.250   -20998368.470 9 -16074232.88247  21106333.649    21106341.2704
  20319614.086   -22599339.266 9 -16956549.67448  20319613.824    20319620.5604
  24000039.781    -5420357.892 7  -3949957.66745  24000039.550    24000054.8074
  23604805.251    -7618183.440 8  -5903710.49245  23604804.693    23604814.8364
  22582137.930   -13666234.086 8 -10619640.88146  22582137.461    22582148.0274
  24281322.783    -3439756.264 8  -2464111.28845  24281322.259    24281334.1004
  22729690.992   -15251262.771 8 -11592823.16946  22729690.222    22729700.7964
  22858196.037   -15681942.762 8 -11831425.19746  22858195.490    22858203.4434
  22619945.660   -11683347.554 8  -9079286.88846  22619944.908    22619953.8964
 01  4 18  2 41  0.0000000  0 10 17 21 29 25 23 03 09 15 18 31
  24357163.331    -7544983.675 7  -5849999.93045  24357162.338    24357176.6794
  21107560.942   -20991922.159 9 -16069209.77147  21107560.320    21107567.8904
  20316595.383   -22615202.812 9 -16968910.83548  20316595.104    20316601.7944
  23981440.374    -5518095.838 7  -4026116.64945  23981440.196    23981455.4374
  23615712.778    -7560864.512 8  -5859046.42845  23615712.153    23615722.1704
  22595403.933   -13596520.500 8 -10565318.71346  22595403.548    22595414.1564
  24293471.672    -3375912.956 7  -2414363.47345  24293471.300    24293483.0564
  22746950.834   -15160562.576 8 -11522147.79546  22746949.984    22746960.6374
  22870386.616   -15617882.008 8 -11781507.75546  22870386.051    22870393.9554
  22623257.826   -11665942.785 8  -9065724.75746  22623257.045    22623265.9664
 01  4 18  2 41 30.0000000  0 10 21 29 25 11 23 03 09 15 18 31
  21108813.683   -20985339.245 9 -16064080.21447  21108813.043    21108820.5474
  20313662.758   -22630613.679 9 -16980919.25848  20313662.464    20313669.1204
  23962842.762    -5615825.020 8  -4102268.83145  23962842.520    23962857.8304
  24703424.426    -3758194.714 7  -2908639.49345  24703422.986    24703434.2394
  23626628.195    -7503503.718 8  -5814349.73145  23626627.546    23626637.6384
  22608728.061   -13526502.412 8 -10510759.27246  22608727.733    22608738.2874
  24305710.920    -3311595.465 7  -2364246.03145  24305710.546    24305722.3274
  22764263.443   -15069584.107 8 -11451255.61446  22764262.638    22764273.4014
  22882591.721   -15553743.778 8 -11731529.96346  22882591.092    22882599.1604
  22626670.293   -11648010.265 8  -9051751.39946  22626669.553    22626678.4944
 01  4 18  2 42  0.0000000  0 10 21 29 25 11 23 03 09 15 18 31
  21110093.193   -20978614.963 9 -16058840.49947  21110092.557    21110100.1464
  20310817.134   -22645567.495 9 -16992571.53848  20310816.824    20310823.4904
  23944248.497    -5713537.519 8  -4178408.02145  23944248.223    23944263.3374
  24684089.727    -3859798.603 7  -2987811.21445  24684088.392    24684099.5774
  23637552.542    -7446095.473 8  -5769616.08245  23637551.893    23637562.0544
  22622110.784   -13456177.482 8 -10455960.72946  22622110.299    22622120.8194
  24318041.186    -3246800.455 7  -2313756.45145  24318040.791    24318052.6694
  22781629.901   -14978323.496 8 -11380143.57346  22781629.046    22781639.8054
  22894812.437   -15489522.831 8 -11681487.70446  22894811.872    22894819.9544
  22630184.045   -11629546.267 8  -9037363.89246  22630183.110    22630192.1274
 01  4 18  2 42 30.0000000  0 10 21 29 25 11 23 03 09 15 18 31
  21111399.376   -20971750.636 9 -16053491.66347  21111398.823    21111406.3994
  20308058.080   -22660066.217 9 -17003869.20748  20308057.794    20308064.4614
  23925657.560    -5811232.335 8  -4254533.43545  23925657.293    23925672.1544
  24664763.851    -3961355.115 7  -3066946.03245  24664762.810    24664773.9294
  23648485.871    -7388641.208 8  -5724846.53245  23648485.264    23648495.3594
  22635550.685   -13385550.439 8 -10400926.77746  22635550.244    22635560.9494
  24330461.728    -3181531.669 7  -2262897.49845  24330461.222    24330473.2214
  22799049.497   -14886783.645 8 -11308813.92246  22799048.586    22799059.2854
  22907048.834   -15425220.898 8 -11631382.32646  22907048.270    22907056.1374
  22633798.077   -11610553.776 8  -9022564.57746  22633797.188    22633806.2674
 01  4 18  2 43  0.0000000  0 10 21 29 25 11 23 03 09 15 18 31
  21112732.504   -20964745.663 9 -16048033.23047  21112731.860    21112739.3454
  20305385.565   -22674110.358 9 -17014812.64648  20305385.274    20305391.9314
  23907070.349    -5908906.469 8  -4330642.70945  23907070.071    23907085.1214
  24645447.942    -4062862.133 7  -3146042.27545  24645446.603    24645457.7594
  23659427.914    -7331140.372 8  -5680040.71945  23659427.319    23659437.4314
  22649047.825   -13314623.511 8 -10345659.13546  22649047.311    22649057.9204
  24342971.353    -3115791.186 7  -2211671.19545  24342971.083    24342983.1864
  22816521.929   -14794965.636 8 -11237267.54046  22816521.061    22816531.7464
  22919300.715   -15360837.667 8 -11581213.58746  22919299.980    22919307.8344
  22637512.449   -11591033.843 8  -9007354.27646  22637511.617    22637520.7774
 01  4 18  2 43 30.0000000  0 10 21 29 25 11 23 03 09 15 18 31
  21114092.082   -20957600.452 9 -16042465.52747  21114091.449    21114098.9754
  20302799.280   -22687701.124 9 -17025402.81548  20302799.005    20302805.6584
  23888487.387    -6006557.990 8  -4406734.41145  23888486.986    23888502.3514
  24626141.705    -4164318.087 7  -3225098.73445  24626140.168    24626151.2164
  23670378.867    -7273593.285 8  -5635198.85745  23670378.159    23670388.4004
  22662601.074   -13243400.300 8 -10290160.63046  22662600.598    22662611.1474
  24355570.769    -3049581.171 7  -2160079.06145  24355570.478    24355582.4924
  22834046.936   -14702871.456 8 -11165505.96746  22834046.069    22834056.7614
  22931567.539   -15296373.779 8 -11530982.03346  22931566.896    22931575.0954
  22641326.957   -11570988.616 8  -8991734.65946  22641326.096    22641335.2914
 01  4 18  2 44  0.0000000  0 10 21 29 25 11 23 03 09 15 18 31
  21115478.512   -20950314.270 9 -16036787.97747  21115477.969    21115485.5204
  20300299.212   -22700838.905 9 -17035640.00848  20300298.936    20300305.5704
  23869909.445    -6104183.928 8  -4482806.18445  23869909.006    23869924.5504
  24606844.828    -4265721.101 7  -3304113.94745  24606843.627    24606854.7754
  23681338.393    -7215999.271 8  -5590320.43945  23681337.900    23681348.1914
  22676210.244   -13171883.318 8 -10234433.21946  22676209.807    22676220.4654
  24368259.047    -2982903.587 7  -2108122.55345  24368258.736    24368270.6154
  22851624.362   -14610502.183 8 -11093530.02046  22851623.490    22851634.0964
  22943849.983   -15231829.224 8 -11480687.60446  22943849.374    22943857.7434
  22645241.162   -11550419.307 8  -8975706.65346  22645240.347    22645249.5914
 01  4 18  2 44 30.0000000  0 10 21 29 25 11 23 03 09 15 18 31
  21116892.015   -20942886.991 9 -16031000.47847  21116891.390    21116898.8764
  20297885.081   -22713524.891 9 -17045525.15048  20297884.807    20297891.4494
  23851336.902    -6201781.834 8  -4558856.08245  23851336.504    23851351.9794
  24587558.482    -4367069.470 8  -3383086.59945  24587557.788    24587568.6664
  23692307.389    -7158358.332 8  -5545405.42245  23692306.678    23692316.8124
  22689874.738   -13100075.920 8 -10178479.52246  22689874.376    22689885.3254
  24381036.016    -2915760.734 8  -2055803.45545  24381035.710    24381047.7994
  22869253.695   -14517859.734 8 -11021341.21446  22869252.786    22869263.4984
  22956147.878   -15167204.170 8 -11430330.42846  22956147.250    22956155.3414
  22649254.698   -11529327.626 8  -8959271.62546  22649253.918    22649263.2204
 01  4 18  2 45  0.0000000  0 10 21 29 25 11 23 03 09 15 18 31
  21118332.163   -20935318.799 9 -16025103.17147  21118331.514    21118339.0324
  20295556.762   -22725760.051 9 -17055058.99248  20295556.499    20295563.1224
  23832770.139    -6299349.541 8  -4634882.45046  23832769.808    23832785.1034
  24568283.435    -4468361.448 8  -3462015.32245  24568282.523    24568293.1624
  23703284.984    -7100670.632 8  -5500453.96645  23703284.477    23703294.3944
  22703594.100   -13027981.794 8 -10122302.39246  22703593.619    22703604.7934
  24393901.017    -2848155.098 7  -2003123.69045  24393900.584    24393912.9824
  22886934.669   -14424946.132 8 -10948941.11346  22886933.784    22886944.4874
  22968460.846   -15102499.273 8 -11379911.00746  22968460.196    22968468.0824
  22653367.399   -11507715.320 8  -8942430.91246  22653366.661    22653375.9934
 01  4 18  2 45 30.0000000  0 10 21 29 25 11 23 03 09 15 18 31
  21119799.164   -20927609.146 9 -16019095.63847  21119798.598    21119806.1164
  20293314.127   -22737544.992 9 -17064242.01748  20293313.851    20293320.4764
  23814209.620    -6396884.281 8  -4710883.16046  23814209.286    23814224.5764
  24549019.608    -4569595.123 7  -3540898.62645  24549018.199    24549028.9464
  23714271.776    -7042935.794 8  -5455465.79845  23714271.003    23714281.0224
  22717367.401   -12955603.550 8 -10065903.88846  22717366.904    22717377.9534
  24406853.736    -2780088.819 7  -1950084.99445  24406853.336    24406865.6264
  22904667.043   -14331762.530 8 -10876330.60746  22904666.210    22904676.7494
  22980788.782   -15037714.454 8 -11329429.37046  22980788.221    22980796.3024
  22657578.860   -11485584.020 8  -8925185.78946  22657578.125    22657587.4964
 01  4 18  2 46  0.0000000  0 10 21 29 25 11 23 03 09 15 18 31
  21121293.292   -20919757.608 9 -16012977.53847  21121292.663    21121300.1754
  20291157.093   -22748880.064 9 -17073074.49948  20291156.795    20291163.4074
  23795656.029    -6494383.421 8  -4786856.17146  23795655.601    23795670.7374
  24529766.718    -4670767.926 7  -3619734.51645  24529765.637    24529776.3674
  23725267.241    -6985152.998 8  -5410440.28945  23725266.559    23725276.7034
  22731194.246   -12882943.713 8 -10009285.93946  22731193.652    22731204.5114
  24419893.661    -2711563.535 7  -1896688.66245  24419893.190    24419905.3294
  22922450.534   -14238309.786 8 -10803510.41145  22922449.728    22922460.3164
  22993132.243   -14972849.255 8 -11278885.09746  22993131.716    22993139.9844
  22661888.939   -11462934.577 8  -8907536.91246  22661888.211    22661897.5784
 01  4 18  2 46 30.0000000  0 10 21 29 25 11 23 03 09 15 18 31
  21122814.561   -20911763.298 9 -16006748.18647  21122813.950    21122821.4454
  20289085.551   -22759765.876 9 -17081556.90448  20289085.279    20289091.9104
  23777109.542    -6591843.734 8  -4862798.89045  23777109.030    23777124.2164
  24510525.520    -4771877.497 7  -3698521.15645  24510524.768    24510535.6504
  23736272.267    -6927321.634 8  -5365376.89945  23736271.541    23736281.6134
  22745073.879   -12810005.124 8  -9952450.80446  22745073.443    22745084.2104
  24433020.487    -2642580.741 7  -1842935.74145  24433020.103    24433032.2884
  22940285.216   -14144589.116 8 -10730481.43045  22940284.380    22940294.8614
  23005491.146   -14907903.447 8 -11228277.98746  23005490.590    23005498.9264
  22666297.362   -11439768.169 8  -8889485.21846  22666296.629    22666306.0194
 01  4 18  2 47  0.0000000  0 10 21 29 25 11 23 03 09 15 18 31
  21124363.067   -20903625.876 9 -16000407.31947  21124362.418    21124369.9544
  20287099.440   -22770202.929 9 -17089689.63548  20287099.144    20287105.7824
  23758571.062    -6689262.621 8  -4938709.34545  23758570.624    23758585.4284
  24491297.241    -4872921.874 7  -3777256.98145  24491296.509    24491307.4234
  23747286.510    -6869441.416 8  -5320275.46145  23747285.876    23747295.9674
  22759006.335   -12736790.442 8  -9895400.52346  22759005.818    22759016.6414
  24446233.894    -2573142.476 7  -1788827.88745  24446233.565    24446245.8964
  22958170.632   -14050602.234 8 -10657245.00145  22958169.669    22958180.1244
  23017865.349   -14842877.101 8 -11177608.12246  23017864.684    23017872.8304
  22670803.798   -11416086.531 8  -8871032.03746  22670803.060    22670812.5014
 01  4 18  2 47 30.0000000  0  9 21 29 25 11 23 03 15 18 31
  21125938.568   -20895346.299 9 -15993955.68247  21125937.938    21125945.4954
  20285198.193   -22780193.775 9 -17097474.67048  20285197.900    20285204.5484
  23740040.842    -6786638.962 8  -5014586.63745  23740040.413    23740054.8134
  24472081.710    -4973900.863 7  -3855941.85345  24472080.611    24472091.6434
  23758309.827    -6811513.866 8  -5275137.13945  23758309.105    23758319.2414
  22772990.450   -12663304.325 8  -9838138.72446  22772989.927    22773000.8904
  22976105.858   -13956352.246 8 -10583803.57545  22976104.923    22976115.3454
  23030254.331   -14777772.080 8 -11126876.95346  23030253.747    23030261.7454
  22675407.554   -11391893.101 8  -8852180.06846  22675406.972    22675416.4094
 01  4 18  2 48  0.0000000  0  9 21 29 25 11 23 03 15 18 31
  21127542.041   -20886920.104 9 -15987389.79547  21127541.397    21127548.9364
  20283382.568   -22789734.459 9 -17104908.92948  20283382.287    20283388.9554
  23721520.057    -6883965.230 8  -5090424.92345  23721519.614    23721533.8354
  24452879.380    -5074807.521 7  -3934570.38845  24452878.565    24452889.7784
  23769342.967    -6753533.855 8  -5229957.95745  23769342.316    23769352.5234
  22787026.421   -12589544.880 8  -9780663.95746  22787025.850    22787037.0244
  22994091.743   -13861835.854 8 -10510154.56945  22994090.821    22994101.3324
  23042659.407   -14712583.685 8 -11076080.81146  23042658.770    23042666.7754
  22680109.541   -11367185.004 8  -8832927.05646  22680108.807    22680118.2444
 01  4 18  2 48 30.0000000  0  9 21 29 25 11 23 03 15 18 31
  21129172.587   -20878351.350 9 -15980712.83747  21129171.939    21129179.4984
  20281651.533   -22798830.747 9 -17111996.91548  20281651.275    20281657.9204
  23703008.351    -6981243.747 8  -5166226.02745  23703007.959    23703022.0344
  24433690.751    -5175644.937 7  -4013144.94545  24433689.768    24433700.9554
  23780385.294    -6695505.952 8  -5184741.45745  23780384.562    23780394.6704
  22801112.723   -12515520.221 8  -9722982.53446  22801112.338    22801123.5004
  23012127.131   -13767059.405 7 -10436302.92645  23012126.166    23012136.9134
  23055079.226   -14647316.788 8 -11025223.53346  23055078.621    23055086.8524
  22684908.005   -11341968.530 8  -8813277.90946  22684907.365    22684916.8134
 01  4 18  2 49  0.0000000  0  9 21 29 25 11 23 03 15 18 31
  21130830.686   -20869638.001 9 -15973923.20447  21130830.041    21130837.5404
  20280005.215   -22807482.111 9 -17118738.20548  20280004.975    20280011.6004
  23684506.263    -7078470.610 8  -5241986.88145  23684505.939    23684520.1544
  24414515.546    -5276409.344 7  -4091662.63545  24414514.884    24414526.2164
  23791437.227    -6637428.373 8  -5139486.27645  23791436.531    23791446.5494
  22815249.564   -12441231.652 8  -9665095.46246  22815249.042    22815260.1264
  23030211.851   -13672023.049 7 -10362248.75545  23030210.907    23030221.9374
  23067514.282   -14581970.117 8 -10974304.07346  23067513.642    23067521.9314
  22689803.316   -11316243.686 8  -8793232.62446  22689802.627    22689812.0814
 01  4 18  2 49 30.0000000  0  9 21 29 25 11 23 03 15 18 31
  21132516.284   -20860780.073 9 -15967020.91347  21132515.624    21132523.0934
  20278443.461   -22815689.317 9 -17125133.39848  20278443.196    20278449.8254
  23666014.636    -7175642.889 8  -5317705.21745  23666014.340    23666028.6134
  24395354.711    -5377098.925 8  -4170121.98745  24395354.277    24395365.5354
  23802498.543    -6579300.834 8  -5094192.17345  23802497.804    23802508.0844
  22829435.883   -12366682.327 8  -9607005.20946  22829435.401    22829446.3844
  23048345.902   -13576728.336 7 -10287993.24345  23048344.943    23048355.9784
  23079964.495   -14516543.596 8 -10923322.40146  23079963.913    23079972.0004
  22694795.096   -11290012.276 8  -8772792.61746  22694794.371    22694803.8254
 01  4 18  2 50  0.0000000  0  9 21 29 25 11 23 03 15 18 31
  21134229.362   -20851777.683 9 -15960006.06347  21134228.708    21134236.2334
  20276965.887   -22823453.585 9 -17131183.44548  20276965.619    20276972.3144
  23647533.966    -7272758.223 8  -5393379.17445  23647533.634    23647547.8364
  24376208.966    -5477711.556 7  -4248521.36145  24376208.212    24376219.6494
  23813569.362    -6521123.308 8  -5048859.12045  23813568.689    23813578.8694
  22843671.270   -12291875.659 8  -9548714.42846  22843670.726    22843681.8364
  23066528.756   -13481177.049 7 -10213537.78545  23066527.696    23066538.6824
  23092430.002   -14451037.659 8 -10872278.84746  23092429.384    23092437.3634
  22699882.808   -11263276.250 8  -8751959.41346  22699882.158    22699891.6024
 01  4 18  2 50 30.0000000  0  9 21 29 25 11 23 03 15 18 31
  21135970.032   -20842630.338 9 -15952878.26847  21135969.383    21135976.9264
  20275572.460   -22830775.572 9 -17136888.85248  20275572.194    20275578.9264
  23629064.697    -7369813.722 8  -5469006.50345  23629064.340    23629078.4234
  24357077.625    -5578245.207 7  -4326859.20645  24357077.286    24357088.6754
  23824649.830    -6462895.206 8  -5003486.66845  23824649.179    23824659.2324
  22857955.089   -12216814.330 8  -9490225.21146  22857954.647    22857965.7044
  23084760.255   -13385370.514 7 -10138883.46645  23084759.094    23084770.2094
  23104910.493   -14385452.211 8 -10821173.34446  23104909.824    23104917.9414
  22705066.472   -11236037.152 8  -8730734.18446  22705065.680    22705075.1114
 01  4 18  2 51  0.0000000  0  9 21 29 25 11 23 03 15 18 31
  21137738.527   -20833337.034 9 -15945636.72947  21137737.859    21137745.3284
  20274263.089   -22837655.968 9 -17142250.17048  20274262.830    20274269.5644
  23610607.427    -7466806.570 8  -5544585.01345  23610607.027    23610620.9284
  24337962.112    -5678697.619 8  -4405133.71345  24337961.850    24337973.2474
  23835740.173    -6404616.218 8  -4958074.54145  23835739.361    23835749.4014
  22872287.038   -12141501.295 8  -9431539.85546  22872286.406    22872297.4384
  23103039.851   -13289310.059 7 -10064031.33345  23103038.968    23103050.2324
  23117405.963   -14319787.126 8 -10770005.81646  23117405.423    23117413.7634
  22710345.418   -11208296.848 8  -8709118.42046  22710344.555    22710353.9704
 01  4 18  2 51 30.0000000  0  9 21 29 25 11 23 03 15 18 31
  21139534.909   -20823897.206 9 -15938281.02347  21139534.225    21139541.6894
  20273037.667   -22844095.617 9 -17147268.05248  20273037.408    20273044.0614
  23592162.409    -7563734.123 8  -5620112.63745  23592162.047    23592175.6964
  24318862.732    -5779066.536 8  -4483343.15045  24318862.222    24318873.7094
  23846839.912    -6346285.660 8  -4912622.29545  23846839.346    23846849.5324
  22886665.775   -12065939.171 8  -9372660.42946  22886665.372    22886676.4334
  23121367.834   -13192996.961 7  -9988982.28945  23121367.070    23121378.0984
  23129916.980   -14254042.097 8 -10718775.98946  23129916.471    23129924.7464
  22715719.281   -11180056.735 8  -8687113.19746  22715718.505    22715727.9194
 01  4 18  2 52  0.0000000  0  9 21 29 25 11 23 03 15 18 31
  21141359.158   -20814310.433 9 -15930810.81747  21141358.472    21141365.9464
  20271895.968   -22850095.324 9 -17151943.11848  20271895.709    20271902.3014
  23573730.249    -7660593.661 8  -5695587.28445  23573729.957    23573743.5034
  24299779.515    -5879349.953 8  -4561485.99045  24299778.993    24299790.3644
  23857949.944    -6287903.276 8  -4867129.65845  23857949.166    23857959.4864
  22901091.729   -11990130.947 8  -9313589.21646  22901091.294    22901102.2394
  23139743.526   -13096432.877 7  -9913737.71245  23139742.639    23139753.8104
  23142443.392   -14188217.068 8 -10667483.80046  23142442.660    23142450.6144
  22721187.994   -11151318.503 8  -8664719.82646  22721187.199    22721196.6234
 01  4 18  2 52 30.0000000  0  9 21 29 25 11 23 03 15 18 31
  21143211.334   -20804576.872 9 -15923226.23147  21143210.670    21143218.1104
  20270837.798   -22855655.833 9 -17156275.95348  20270837.531    20270844.1174
  23555311.778    -7757382.168 8  -5771006.57445  23555311.567    23555324.8364
  24280712.986    -5979545.879 8  -4639560.60645  24280712.362    24280723.6334
  23869069.701    -6229468.646 8  -4821596.33145  23869069.067    23869079.3154
  22915563.964   -11914079.422 8  -9254328.44246  22915563.565    22915574.6274
  23158166.565   -12999619.296 7  -9838298.71945  23158165.864    23158176.7574
  23154984.490   -14122312.309 8 -10616129.52146  23154983.858    23154991.8324
  22726751.242   -11122083.889 8  -8641939.66846  22726750.418    22726759.8644
 01  4 18  2 53  0.0000000  0  9 21 29 25 11 23 03 15 18 31
  21145091.668   -20794695.726 9 -15915526.64647  21145091.018    21145098.4664
  20269862.879   -22860778.823 9 -17160267.86348  20269862.626    20269869.2014
  23536907.331    -7854097.423 8  -5846368.76645  23536907.039    23536920.0944
  24261663.569    -6079652.539 7  -4717565.68845  24261662.680    24261674.0004
  23880199.471    -6170981.872 8  -4776022.34145  23880198.822    23880209.0694
  22930082.069   -11837788.230 8  -9194880.88646  22930081.475    22930092.4564
  23176636.814   -12902558.511 7  -9762667.09544  23176636.137    23176646.9254
  23167540.787   -14056328.383 8 -10564713.57246  23167540.255    23167548.2214
  22732408.490   -11092355.087 8  -8618774.41546  22732407.672    22732417.1644
 01  4 18  2 53 30.0000000  0  9 21 29 25 11 23 03 15 18 31
  21147000.373   -20784665.629 9 -15907710.99847  21146999.707    21147007.2274
  20268971.259   -22865464.161 9 -17163918.74948  20268971.023    20268977.5744
  23518517.466    -7950736.020 8  -5921671.23646  23518517.130    23518530.0564
  24242630.815    -6179666.590 8  -4795498.59545  24242630.706    24242641.8034
  23891339.352    -6112441.736 8  -4730406.77145  23891338.670    23891348.9104
  22944644.808   -11761259.297 8  -9135248.09946  22944644.313    22944655.4794
  23195154.131   -12805250.967 7  -9686843.14144  23195153.169    23195164.0454
  23180112.651   -13990264.016 8 -10513234.92446  23180112.112    23180120.1054
  22738159.416   -11062133.136 8  -8595224.90846  22738158.740    22738168.2594
 01  4 18  2 54  0.0000000  0  9 21 29 25 11 23 03 15 18 31
  21148937.194   -20774487.385 9 -15899779.90947  21148936.526    21148944.0904
  20268162.701   -22869713.260 9 -17167229.71448  20268162.453    20268168.9734
  23500142.646    -8047295.533 8  -5996912.08246  23500142.270    23500155.1164
  24223616.920    -6279586.331 8  -4873358.00845  24223616.659    24223627.5444
  23902489.321    -6053848.173 8  -4684749.60845  23902488.622    23902499.1514
  22959252.157   -11684496.487 8  -9075433.07046  22959251.830    22959263.0854
  23213717.923   -12707698.659 7  -9610828.50344  23213716.687    23213727.8904
  23192699.624   -13924119.615 8 -10461693.94146  23192698.939    23192707.0044
  22744004.021   -11031420.339 8  -8571292.91946  22744003.264    22744012.8194
 01  4 18  2 54 30.0000000  0  9 21 29 25 11 23 03 15 18 31
  21150902.358   -20764160.245 9 -15891732.78647  21150901.735    21150909.2134
  20267436.900   -22873527.400 9 -17170201.74748  20267436.626    20267443.1374
  23481783.153    -8143773.490 8  -6072089.37746  23481782.721    23481795.7134
  24204621.661    -6379410.038 8  -4951142.56445  24204620.691    24204631.5474
  23913649.708    -5995201.275 8  -4639050.85545  23913648.965    23913659.4954
  22973903.685   -11607502.943 8  -9015438.26046  22973903.308    22973914.5874
  23232327.569   -12609903.549 7  -9534624.63444  23232326.526    23232337.6074
  23205301.613   -13857895.466 8 -10410090.80646  23205301.044    23205309.0394
  22749941.573   -11000218.864 8  -8546980.13446  22749940.764    22749950.2874
 01  4 18  2 55  0.0000000  0  9 21 29 25 11 23 03 15 18 31
  21152896.003   -20753683.782 9 -15883569.31847  21152895.355    21152902.8484
  20266793.625   -22876907.369 9 -17172835.46048  20266793.361    20266799.9264
  23463439.531    -8240167.009 8  -6147200.90146  23463439.200    23463452.3314
  24185644.183    -6479135.348 8  -5028850.46845  24185643.497    24185654.2864
  23924820.066    -5936500.378 8  -4593310.03845  23924819.352    23924829.8584
  22988598.605   -11530281.265 8  -8955265.66946  22988598.274    22988609.5494
  23250983.124   -12511866.899 7  -9458232.57344  23250982.331    23250993.6034
  23217918.900   -13791591.433 8 -10358425.44146  23217918.389    23217926.3704
  22755971.617   -10968530.448 8  -8522287.91746  22755970.899    22755980.4024
 01  4 18  2 55 30.0000000  0  9 21 29 25 11 23 03 15 18 31
  21154918.250   -20743056.558 9 -15875288.37747  21154917.605    21154925.1654
  20266232.936   -22879853.491 9 -17175131.11548  20266232.679    20266239.2894
  23445112.826    -8336472.769 8  -6222244.06946  23445112.527    23445125.6194
  24166685.807    -6578759.549 8  -5106479.55745  24166685.502    24166696.3084
  23936001.077    -5877744.439 8  -4547526.32345  23936000.322    23936010.8824
  23003336.658   -11452833.868 8  -8894917.19446  23003336.191    23003347.5794
  23269684.880   -12413589.682 7  -9381653.02544  23269683.675    23269694.8084
  23230551.587   -13725206.848 8 -10306697.30346  23230551.004    23230559.0994
  22762094.188   -10936356.283 8  -8497217.19146  22762093.461    22762103.0204
 01  4 18  2 56  0.0000000  0  9 21 29 25 11 23 03 15 18 31
  21156969.132   -20732279.339 9 -15866890.55247  21156968.446    21156975.9904
  20265754.505   -22882367.905 9 -17177090.37248  20265754.250    20265760.8334
  23426803.109    -8432689.398 8  -6297217.75646  23426802.843    23426815.9734
  24147747.325    -6678281.595 8  -5184029.01445  24147746.972    24147757.6554
  23947192.382    -5818934.213 8  -4501700.32945  23947191.733    23947202.3824
  23018116.816   -11375164.968 8  -8834396.11246  23018116.339    23018127.7554
  23288431.703   -12315074.592 7  -9304888.17644  23288430.654    23288442.0134
  23243199.222   -13658742.830 8 -10254907.27446  23243198.709    23243206.9004
  22768308.492   -10903699.346 8  -8471770.28646  22768307.839    22768317.5144
 01  4 18  2 56 30.0000000  0  9 21 29 25 11 23 03 15 18 31
  21159048.751   -20721350.848 9 -15858374.86447  21159048.056    21159055.6594
  20265358.190   -22884450.656 9 -17178713.26748  20265357.895    20265364.4514
  23408511.121    -8528812.740 8  -6372118.74446  23408510.935    23408523.9374
  24128828.864    -6777698.497 8  -5261496.59245  24128828.420    24128839.1554
  23958394.615    -5760068.373 8  -4455830.96145  23958393.780    23958404.4204
  23032938.628   -11297276.564 8  -8773704.00846  23032938.039    23032949.6464
  23307223.686   -12216322.224 7  -9227938.35544  23307222.936    23307234.3144
  23255862.345   -13592198.379 8 -10203054.56546  23255861.732    23255869.9534
  22774614.625   -10870560.707 8  -8445948.01746  22774613.942    22774623.6454
 01  4 18  2 57  0.0000000  0  9 21 29 25 11 23 03 15 18 31
  21161157.161   -20710271.201 9 -15849741.39147  21161156.466    21161164.0394
  20265043.690   -22886103.280 9 -17180001.00548  20265043.403    20265049.9044
  23390237.590    -8624840.561 8  -6446945.32546  23390237.406    23390250.0344
  24109930.634    -6877008.697 8  -5338880.98345  24109930.043    24109940.7784
  23969606.730    -5701146.936 8  -4409918.32845  23969606.076    23969616.9664
  23047801.247   -11219172.104 8  -8712843.55046  23047800.889    23047812.5144
  23326060.345   -12117334.745 7  -9150805.38644  23326059.237    23326071.1104
  23268540.536   -13525574.102 8 -10151139.67946  23268539.955    23268548.3284
  22781011.979   -10836942.792 8  -8419752.29546  22781011.234    22781020.9374
 01  4 18  2 57 30.0000000  0  9 21 29 25 11 23 03 15 18 31
  21163294.526   -20699039.157 9 -15840989.16347  21163293.817    21163301.3564
  20264810.964   -22887326.187 9 -17180953.89748  20264810.693    20264817.1254
  23371982.687    -8720769.962 8  -6521695.19446  23371982.513    23371994.9574
  24091053.000    -6976209.139 8  -5416179.87945  24091052.741    24091063.4914
  23980829.958    -5642169.337 8  -4363961.89445  23980829.277    23980840.0044
  23062705.047   -11140854.196 8  -8651816.75846  23062704.452    23062716.0334
  23344941.555   -12018113.304 7  -9073490.15144  23344940.454    23344952.4864
  23281234.088   -13458869.370 8 -10099162.09546  23281233.558    23281241.9864
  22787500.182   -10802846.972 8  -8393184.19246  22787499.552    22787509.1414
 01  4 18  2 58  0.0000000  0  9 21 29 25 11 23 03 15 18 31
  21165460.895   -20687655.047 9 -15832118.44547  21165460.177    21165467.7134
  20264659.621   -22888121.694 9 -17181573.74348  20264659.338    20264665.7084
  23353746.943    -8816599.037 8  -6596366.90146  23353746.688    23353758.9814
  24072197.138    -7075298.613 8  -5493392.28845  24072196.496    24072207.2364
  23992064.003    -5583135.810 8  -4317961.87045  23992063.350    23992073.8044
  23077648.310   -11062326.630 8  -8590626.60646  23077647.907    23077659.5454
  23363866.792   -11918660.353 6  -8995994.56144  23363865.593    23363877.6174
  23293942.710   -13392085.223 8 -10047122.61646  23293942.169    23293950.6124
  22794078.902   -10768276.105 8  -8366245.90646  22794078.277    22794087.7174
 01  4 18  2 58 30.0000000  0  9 21 29 25 11 23 03 15 18 31
  21167656.172   -20676118.442 9 -15823128.90847  21167655.487    21167663.0874
  20264589.495   -22888490.340 9 -17181860.97048  20264589.207    20264595.5304
  23335530.783    -8912324.768 8  -6670958.09446  23335530.479    23335542.6734
  24053362.518    -7174274.648 8  -5570516.30445  24053361.954    24053372.3674
  24003308.571    -5524045.823 8  -4271917.89445  24003307.786    24003318.4114
  23092631.245   -10983591.964 8  -8529275.06746  23092630.744    23092642.3774
  23382835.800   -11818977.375 6  -8918319.74044  23382834.222    23382846.3894
  23306666.656   -13325221.193 8  -9995020.87946  23306666.200    23306674.4594
  22800747.880   -10733232.349 8  -8338939.11646  22800747.031    22800756.4174
 01  4 18  2 59  0.0000000  0  9 21 29 25 11 23 03 15 18 31
  21169880.723   -20664428.436 9 -15814019.83047  21169880.097    21169887.6354
  20264600.295   -22888433.240 9 -17181816.44248  20264600.009    20264606.3624
  23317334.712    -9007944.416 8  -6745466.63346  23317334.366    23317346.6254
  24034549.993    -7273135.161 8  -5647550.29345  24034549.338    24034559.6434
  24014563.703    -5464898.983 8  -4225829.59745  24014563.084    24014573.9284
  23107652.728   -10904653.309 8  -8467764.58346  23107652.236    23107664.1704
  23401848.530   -11719066.226 7  -8840467.08244  23401847.286    23401859.4124
  23319405.878   -13258277.291 8  -9942856.90946  23319405.262    23319413.5694
  22807506.173   -10697717.372 8  -8311265.17346  22807505.373    22807514.7964
 01  4 18  2 59 30.0000000  0  9 21 29 25 11 23 03 15 18 31
  21172134.643   -20652584.025 9 -15804790.43447  21172133.987    21172141.5344
  20264692.010   -22887950.918 9 -17181440.57648  20264691.736    20264698.1164
  23299159.358    -9103454.663 8  -6819889.94746  23299159.069    23299171.3304
  24015759.706    -7371877.209 8  -5724491.97045  24015759.236    24015769.3034
  24025830.128    -5405694.331 8  -4179696.27245  24025829.573    24025840.2824
  23122712.404   -10825513.219 8  -8406097.14546  23122712.040    23122724.1824
  23420904.501   -11618927.821 7  -8762437.28444  23420903.514    23420914.9164
  23332160.144   -13191252.761 8  -9890630.14545  23332159.563    23332168.0994
  22814353.619   -10661732.874 8  -8283225.35746  22814353.002    22814362.4814
 01  4 18  3  0  0.0000000  0  9 21 29 25 11 23 03 15 18 31
  21174417.870   -20640585.352 9 -15795440.85247  21174417.256    21174424.8464
  20264864.455   -22887044.674 9 -17180734.38348  20264864.166    20264870.5424
  23281005.468    -9198853.027 8  -6894226.08946  23281005.185    23281017.3274
  23996992.579    -7470499.104 8  -5801340.03545  23996991.958    23997001.8564
  24037107.783    -5346431.516 8  -4133517.60745  24037107.008    24037117.8384
  23137810.109   -10746174.877 8  -8344275.23146  23137809.717    23137821.9914
  23440003.370   -11518563.945 7  -8684231.80344  23440002.622    23440013.7274
  23344929.709   -13124147.938 8  -9838340.80246  23344929.261    23344937.8284
  22821290.305   -10625281.049 8  -8254821.38746  22821289.580    22821299.0394
 01  4 18  3  0 30.0000000  0  9 21 29 25 11 23 03 15 18 31
  21176730.775   -20628431.532 9 -15785970.36547  21176730.105    21176737.6464
  20265117.299   -22885716.012 9 -17179699.03448  20265117.021    20265123.3164
  23262873.472    -9294137.068 8  -6968473.12246  23262873.119    23262885.1374
  23978248.296    -7568998.436 8  -5878092.62145  23978248.034    23978257.8184
  24048396.045    -5287110.544 8  -4087293.64145  24048395.422    24048406.2774
  23152945.056   -10666641.811 8  -8282301.57146  23152944.590    23152956.7964
  23459144.859   -11417976.477 7  -8605852.09244  23459143.693    23459154.7284
  23357714.947   -13056963.181 8  -9785989.14546  23357714.400    23357722.6944
  22828315.396   -10588364.203 8  -8226055.06746  22828314.646    22828324.1684
 01  4 18  3  1  0.0000000  0  9 21 29 25 11 23 03 15 18 31
  21179073.264   -20616121.803 9 -15776378.39747  21179072.593    21179080.1224
  20265450.435   -22883965.434 9 -17178334.92048  20265450.151    20265456.3994
  23244763.771    -9389303.455 8  -7042628.48046  23244763.425    23244775.2494
  23959528.043    -7667372.862 8  -5954747.86645  23959527.785    23959537.6604
  24059695.817    -5227730.641 8  -4041023.75545  24059695.159    24059706.0764
  23168116.460   -10586916.382 8  -8220178.02746  23168115.957    23168128.0594
  23478328.155   -11317166.777 7  -8527299.23444  23478327.225    23478338.6544
  23370515.217   -12989697.649 8  -9733574.56845  23370514.619    23370522.9194
  22835428.629   -10550983.937 8  -8196927.63446  22835427.812    22835437.4414
 01  4 18  3  1 30.0000000  0  9 21 29 25 11 23 03 15 18 31
  21181445.455   -20603656.054 9 -15766664.85647  21181444.731    21181452.3254
  20265863.564   -22881794.398 9 -17176643.17748  20265863.275    20265869.5214
  23226676.894    -9484349.614 8  -7116690.13446  23226676.468    23226688.2894
  23940832.151    -7765620.255 8  -6031304.12845  23940831.717    23940841.6624
  24071007.027    -5168291.606 8  -3994707.79545  24071006.349    24071017.3254
  23183323.997   -10507001.999 8  -8157907.22246  23183323.489    23183335.3144
  23497553.677   -11216136.891 7  -8448574.75144  23497552.473    23497564.2864
  23383330.619   -12922351.848 8  -9681097.45145  23383330.088    23383338.5874
  22842629.457   -10513142.830 8  -8167441.11846  22842628.777    22842638.3954
 01  4 18  3  2  0.0000000  0  9 21 29 25 11 23 03 15 18 31
  21183847.391   -20591033.839 9 -15756829.39347  21183846.708    21183854.3424
  20266356.382   -22879204.378 9 -17174624.96148  20266356.104    20266362.3754
  23208613.241    -9579273.060 8  -7190656.21346  23208612.882    23208624.5204
  23922160.585    -7863738.539 8  -6107759.81045  23922160.393    23922170.2934
  24082329.279    -5108793.390 8  -3948345.71745  24082328.481    24082339.4484
  23198566.598   -10426902.005 8  -8095491.79746  23198566.097    23198577.9214
  23516820.714   -11114888.459 7  -8369680.02944  23516819.334    23516831.4984
  23396161.555   -12854925.699 8  -9628557.73145  23396160.994    23396169.5494
  22849917.638   -10474843.188 8  -8137597.29846  22849916.942    22849926.6104
 01  4 18  3  2 30.0000000  0  9 21 29 25 11 23 03 15 18 31
  21186279.330   -20578254.299 9 -15746871.34247  21186278.644    21186286.1834
  20266928.853   -22876195.917 9 -17172280.68548  20266928.577    20266934.8814
  23190573.475    -9674070.573 8  -7264524.14546  23190573.111    23190584.8124
  23903514.410    -7961724.775 8  -6184112.62745  23903514.132    23903524.0184
  24093662.872    -5049234.943 8  -3901936.69545  24093662.184    24093673.1634
  23213843.957   -10346618.583 8  -8032933.44046  23213843.590    23213855.5144
  23536129.257   -11013422.750 7  -8290615.96144  23536127.614    23536140.1474
  23409007.754   -12787418.709 8  -9575955.01545  23409007.192    23409015.7984
  22857292.748   -10436086.466 8  -8107397.31346  22857292.116    22857301.8784
 01  4 18  3  3  0.0000000  0  9 21 29 25 11 23 03 15 18 31
  21188741.246   -20565317.084 9 -15736790.43247  21188740.510    21188748.0324
  20267580.589   -22872770.976 9 -17169611.88248  20267580.326    20267586.6214
  23172558.079    -9768740.467 8  -7338292.65746  23172557.762    23172569.5554
  23884893.643    -8059577.780 8  -6260361.59445  23884893.332    23884903.1524
  24105007.910    -4989616.646 8  -3855481.03545  24105007.310    24105018.1764
  23229155.839   -10266155.627 8  -7970235.21146  23229155.350    23229167.4654
  23555478.558   -10911742.117 7  -8211384.50744  23555477.293    23555489.5144
  23421869.197   -12719831.696 8  -9523289.95345  23421868.588    23421877.3174
  22864754.464   -10396875.652 8  -8076843.49346  22864753.711    22864763.5354
 01  4 18  3  3 30.0000000  0  9 21 29 25 11 23 03 15 18 31
  21191233.170   -20552221.874 9 -15726586.40147  21191232.495    21191240.0184
  20268311.343   -22868930.630 9 -17166619.38548  20268311.060    20268317.3644
  23154567.635    -9863279.474 8  -7411959.16846  23154567.347    23154579.2224
  23866298.773    -8157295.049 8  -6336504.81545  23866298.316    23866308.0874
  24116364.600    -4929937.871 7  -3808978.26445  24116363.899    24116374.7934
  23244501.254   -10185515.928 8  -7907399.24646  23244500.796    23244513.1074
  23574868.222   -10809848.026 7  -8131986.73744  23574867.018    23574878.7074
  23434745.995   -12652164.292 8  -9470562.23545  23434745.503    23434754.1154
  22872302.094   -10357212.658 8  -8045937.32946  22872301.356    22872311.2134
 01  4 18  3  4  0.0000000  0  9 21 29 25 11 23 03 15 18 31
  21193755.268   -20538968.153 9 -15716258.84647  21193754.579    21193762.1794
  20269120.989   -22864675.705 9 -17163303.84548  20269120.720    20269127.0124
  23136602.776    -9957684.471 8  -7485521.27046  23136602.474    23136614.3444
  23847730.261    -8254873.916 8  -6412540.15545  23847729.630    23847739.2864
  24127732.662    -4870198.021 8  -3762427.89945  24127732.118    24127743.1344
  23259879.765   -10104702.396 8  -7844427.83246  23259879.271    23259891.5954
  23594298.641   -10707742.034 7  -8052423.84644  23594297.787    23594309.0354
  23447638.182   -12584416.150 8  -9417771.60445  23447637.618    23447646.2994
  22879935.422   -10317099.598 8  -8014680.45246  22879934.720    22879944.4804
 01  4 18  3  4 30.0000000  0  9 21 29 25 11 23 03 15 18 31
  21196307.702   -20525555.473 9 -15705807.43047  21196307.002    21196314.5374
  20270009.259   -22860007.708 9 -17159666.42348  20270008.985    20270015.2884
  23118663.899   -10051952.983 8  -7558977.00946  23118663.602    23118675.4754
  23829188.116    -8352312.812 8  -6488466.45045  23829187.516    23829197.1994
  24139112.708    -4810397.102 7  -3715829.92845  24139112.050    24139122.8054
  23275290.590   -10023718.183 8  -7781323.43346  23275290.152    23275302.3924
  23613768.802   -10605426.306 7  -7972697.50344  23613768.197    23613779.3624
  23460545.736   -12516587.705 8  -9364918.38445  23460545.142    23460553.7444
  22887654.178   -10276539.036 8  -7983074.88446  22887653.357    22887662.9544
